[[{"header":{"parameterUnit":"m.s-1","parameterCategory":1,"la1":30.6,"la2":29.2853,"lo1":-89.7004,"lo2":-87.6739,"dy":0.0162,"dx":0.0183,"nx":112,"ny":82,"refTime":"2026-03-28T00:00:00:Z","depth":0,"parameterNumber":2,"parameterNumberName":"U-component_of_WINDS"},"data":[0.0,0.0,0.0,0.0,0.0,0.0,0.0,0.0,0.0,0.0,0.0,0.0,0.0,0.0,0.0,0.0,0.0,0.0,0.0,0.0,0.0,0.0,0.0,0.0,0.0,0.0,0.0,0.0,0.0,0.0,0.0,0.0,0.0,0.0,0.0,0.0,0.0,0.0,0.0,0.0,0.0,0.0,0.0,0.0,0.0,0.0,0.0,0.0,0.0,0.0,0.0,0.0,0.0,0.0,0.0,0.0,0.0,0.0,0.0,0.0,0.0,0.0,0.0,0.0,0.0,0.0,0.0,0.0,0.0,0.0,0.0,0.0,0.0,0.0,0.0,0.0,0.0,0.0,0.0,0.0,0.0,0.0,0.0,0.0,0.0,0.0,0.0,0.0,0.0,0.0,0.0,-4.7293,-5.3315,-5.6359,-5.4905,-5.2672,-4.9526,-4.5224,0.0,0.0,0.0,0.0,0.0,0.0,0.0,0.0,0.0,0.0,0.0,0.0,0.0,0.0,0.0,0.0,0.0,0.0,0.0,0.0,0.0,0.0,0.0,0.0,0.0,0.0,0.0,0.0,0.0,0.0,0.0,0.0,0.0,0.0,0.0,0.0,0.0,0.0,0.0,0.0,0.0,0.0,0.0,0.0,0.0,0.0,0.0,0.0,0.0,0.0,0.0,0.0,0.0,0.0,0.0,0.0,0.0,0.0,0.0,0.0,0.0,0.0,0.0,0.0,0.0,0.0,0.0,0.0,0.0,0.0,0.0,0.0,0.0,0.0,0.0,0.0,0.0,0.0,0.0,0.0,0.0,0.0,0.0,0.0,0.0,0.0,0.0,0.0,0.0,0.0,0.0,0.0,0.0,0.0,0.0,0.0,0.0,0.0,0.0,0.0,0.0,0.0,0.0,0.0,-4.3978,-5.1657,-5.5615,-5.7137,-5.5683,-5.345,-5.0507,-4.6684,0.0,0.0,0.0,0.0,0.0,0.0,0.0,0.0,0.0,0.0,0.0,0.0,0.0,0.0,0.0,0.0,0.0,0.0,0.0,0.0,0.0,0.0,0.0,0.0,0.0,0.0,0.0,0.0,0.0,0.0,0.0,0.0,0.0,0.0,0.0,0.0,0.0,0.0,0.0,0.0,0.0,0.0,0.0,0.0,0.0,0.0,0.0,0.0,0.0,0.0,0.0,0.0,0.0,0.0,0.0,0.0,0.0,0.0,0.0,0.0,0.0,0.0,0.0,0.0,0.0,0.0,0.0,0.0,0.0,0.0,0.0,0.0,0.0,0.0,0.0,0.0,0.0,0.0,0.0,0.0,0.0,0.0,0.0,0.0,0.0,0.0,0.0,0.0,0.0,0.0,0.0,0.0,0.0,0.0,0.0,0.0,0.0,0.0,0.0,0.0,0.0,0.0,0.0,-4.3031,-4.8105,-5.3518,-5.6021,-5.6697,-5.5243,-5.2638,-4.9526,-4.5867,-4.0358,0.0,0.0,0.0,0.0,0.0,0.0,0.0,0.0,0.0,0.0,0.0,0.0,0.0,0.0,0.0,0.0,0.0,0.0,0.0,0.0,0.0,0.0,0.0,0.0,0.0,0.0,0.0,0.0,0.0,0.0,0.0,0.0,0.0,0.0,0.0,0.0,0.0,0.0,0.0,0.0,0.0,0.0,0.0,0.0,0.0,0.0,0.0,0.0,0.0,0.0,0.0,0.0,0.0,0.0,0.0,0.0,0.0,0.0,0.0,0.0,0.0,0.0,0.0,0.0,0.0,0.0,0.0,0.0,0.0,0.0,0.0,0.0,0.0,0.0,0.0,0.0,0.0,0.0,0.0,0.0,0.0,0.0,0.0,0.0,0.0,0.0,0.0,0.0,0.0,0.0,0.0,0.0,0.0,0.0,0.0,0.0,0.0,0.0,0.0,0.0,0.0,0.0,-4.7631,-5.1657,-5.4296,-5.6089,-5.6325,-5.4499,-5.142,-4.8003,-4.431,-3.8996,0.0,0.0,0.0,0.0,0.0,0.0,0.0,0.0,0.0,0.0,0.0,0.0,0.0,0.0,0.0,0.0,0.0,0.0,0.0,0.0,0.0,0.0,0.0,0.0,0.0,0.0,0.0,0.0,0.0,0.0,0.0,0.0,0.0,0.0,0.0,0.0,0.0,0.0,0.0,0.0,0.0,0.0,0.0,0.0,0.0,0.0,0.0,0.0,0.0,0.0,0.0,0.0,0.0,0.0,0.0,0.0,0.0,0.0,0.0,0.0,0.0,0.0,0.0,0.0,0.0,0.0,0.0,0.0,0.0,0.0,0.0,0.0,0.0,0.0,0.0,0.0,0.0,0.0,0.0,0.0,0.0,0.0,0.0,0.0,0.0,0.0,0.0,0.0,0.0,0.0,0.0,0.0,0.0,0.0,0.0,0.0,0.0,0.0,0.0,0.0,0.0,0.0,-4.8578,-5.2807,-5.4431,-5.6528,-5.6664,-5.3822,-5.0202,-4.6447,-4.2692,-3.6907,0.0,0.0,0.0,0.0,0.0,0.0,0.0,0.0,0.0,0.0,0.0,0.0,0.0,0.0,0.0,0.0,0.0,0.0,0.0,0.0,0.0,0.0,0.0,0.0,0.0,0.0,0.0,0.0,0.0,0.0,0.0,0.0,0.0,0.0,0.0,0.0,0.0,0.0,0.0,0.0,0.0,0.0,0.0,0.0,0.0,0.0,0.0,0.0,0.0,0.0,0.0,0.0,0.0,0.0,0.0,0.0,0.0,0.0,0.0,0.0,0.0,0.0,0.0,0.0,0.0,0.0,0.0,0.0,0.0,0.0,0.0,0.0,0.0,0.0,0.0,0.0,0.0,0.0,0.0,0.0,0.0,0.0,0.0,0.0,0.0,0.0,0.0,0.0,0.0,0.0,0.0,0.0,0.0,0.0,0.0,0.0,0.0,0.0,0.0,0.0,0.0,0.0,-4.824,-5.2401,0.0,-5.6156,-5.5986,-5.2876,-4.9169,-4.5168,-4.0935,0.0,0.0,0.0,0.0,0.0,0.0,0.0,0.0,0.0,0.0,0.0,0.0,0.0,0.0,0.0,0.0,0.0,0.0,0.0,0.0,0.0,0.0,0.0,0.0,0.0,0.0,0.0,0.0,0.0,0.0,0.0,0.0,0.0,0.0,0.0,0.0,0.0,0.0,0.0,0.0,0.0,0.0,0.0,0.0,0.0,0.0,0.0,0.0,0.0,0.0,0.0,0.0,0.0,0.0,0.0,0.0,0.0,0.0,0.0,0.0,0.0,0.0,0.0,0.0,0.0,0.0,0.0,0.0,0.0,0.0,0.0,0.0,0.0,0.0,0.0,0.0,0.0,0.0,0.0,0.0,0.0,0.0,0.0,0.0,0.0,0.0,0.0,0.0,0.0,0.0,0.0,0.0,0.0,0.0,0.0,0.0,0.0,0.0,0.0,0.0,0.0,0.0,-4.2422,-4.7834,-5.1995,0.0,-5.5784,-5.5476,-5.227,-4.8214,-4.3881,-3.942,0.0,0.0,0.0,0.0,0.0,0.0,0.0,0.0,0.0,0.0,0.0,0.0,0.0,0.0,0.0,0.0,0.0,0.0,0.0,0.0,0.0,0.0,0.0,0.0,0.0,0.0,0.0,0.0,0.0,0.0,0.0,0.0,0.0,0.0,0.0,0.0,0.0,0.0,0.0,0.0,0.0,0.0,0.0,0.0,0.0,0.0,0.0,0.0,0.0,0.0,0.0,0.0,0.0,0.0,0.0,0.0,0.0,0.0,0.0,0.0,0.0,0.0,0.0,0.0,0.0,0.0,0.0,0.0,0.0,0.0,0.0,0.0,0.0,0.0,0.0,0.0,0.0,0.0,0.0,0.0,0.0,0.0,0.0,0.0,0.0,0.0,0.0,0.0,0.0,0.0,0.0,0.0,0.0,0.0,0.0,0.0,0.0,0.0,0.0,0.0,0.0,0.0,-4.1711,-4.75,-5.176,-5.3281,-5.548,-5.5441,-5.2067,-4.7333,-4.2617,0.0,0.0,0.0,0.0,0.0,0.0,0.0,0.0,0.0,0.0,0.0,0.0,0.0,0.0,0.0,0.0,0.0,0.0,0.0,0.0,0.0,0.0,0.0,0.0,0.0,0.0,0.0,0.0,0.0,0.0,0.0,0.0,0.0,0.0,0.0,0.0,0.0,0.0,0.0,0.0,0.0,0.0,0.0,0.0,0.0,0.0,0.0,0.0,0.0,0.0,0.0,0.0,0.0,0.0,0.0,0.0,0.0,0.0,0.0,0.0,0.0,0.0,0.0,0.0,0.0,0.0,0.0,0.0,0.0,0.0,0.0,0.0,0.0,0.0,0.0,0.0,0.0,0.0,0.0,0.0,0.0,0.0,0.0,0.0,0.0,0.0,0.0,0.0,0.0,0.0,0.0,0.0,0.0,0.0,0.0,0.0,0.0,0.0,0.0,0.0,0.0,0.0,0.0,-4.123,-4.6855,-5.0826,-5.1827,-5.4362,-5.4379,-5.0371,-4.7139,-4.3198,-3.8137,0.0,0.0,0.0,0.0,0.0,0.0,0.0,0.0,0.0,0.0,0.0,0.0,0.0,0.0,0.0,0.0,0.0,0.0,0.0,0.0,0.0,0.0,0.0,0.0,0.0,0.0,0.0,0.0,0.0,0.0,0.0,0.0,0.0,0.0,0.0,0.0,0.0,0.0,0.0,0.0,0.0,0.0,0.0,0.0,0.0,0.0,0.0,0.0,0.0,0.0,0.0,0.0,0.0,0.0,0.0,0.0,0.0,0.0,0.0,0.0,0.0,0.0,0.0,0.0,0.0,0.0,0.0,0.0,0.0,0.0,0.0,0.0,0.0,0.0,0.0,0.0,0.0,0.0,0.0,0.0,0.0,0.0,0.0,0.0,0.0,0.0,0.0,0.0,0.0,0.0,0.0,0.0,0.0,0.0,0.0,0.0,0.0,0.0,0.0,0.0,0.0,0.0,-4.0616,-4.5733,-4.9398,-5.0412,-5.2833,-5.297,-4.9429,-4.6849,-4.325,-3.8082,0.0,0.0,0.0,0.0,0.0,0.0,0.0,0.0,0.0,0.0,0.0,0.0,0.0,0.0,0.0,0.0,0.0,0.0,0.0,0.0,0.0,0.0,0.0,0.0,0.0,0.0,0.0,0.0,0.0,0.0,0.0,0.0,0.0,0.0,0.0,0.0,0.0,0.0,0.0,0.0,0.0,0.0,0.0,0.0,0.0,0.0,0.0,0.0,0.0,0.0,0.0,0.0,0.0,0.0,0.0,0.0,0.0,0.0,0.0,0.0,0.0,0.0,0.0,0.0,0.0,0.0,0.0,0.0,0.0,0.0,0.0,0.0,0.0,0.0,0.0,0.0,0.0,0.0,0.0,0.0,0.0,0.0,0.0,0.0,0.0,0.0,0.0,0.0,0.0,0.0,0.0,0.0,0.0,0.0,0.0,0.0,0.0,0.0,0.0,0.0,0.0,0.0,-3.9894,-4.439,-4.7737,-4.9047,-5.1094,-5.1351,-4.8927,-4.6416,-4.2967,-3.8116,0.0,0.0,0.0,0.0,0.0,0.0,0.0,0.0,0.0,0.0,0.0,0.0,0.0,0.0,0.0,0.0,0.0,0.0,0.0,0.0,0.0,0.0,0.0,0.0,0.0,0.0,0.0,0.0,0.0,0.0,0.0,0.0,0.0,0.0,0.0,0.0,0.0,0.0,0.0,0.0,0.0,0.0,0.0,0.0,0.0,0.0,0.0,0.0,0.0,0.0,0.0,0.0,0.0,0.0,0.0,0.0,0.0,0.0,0.0,0.0,-3.4392,0.0,0.0,0.0,0.0,0.0,0.0,0.0,0.0,0.0,0.0,0.0,0.0,0.0,0.0,0.0,0.0,0.0,0.0,0.0,0.0,0.0,0.0,0.0,0.0,0.0,0.0,0.0,0.0,0.0,0.0,0.0,0.0,0.0,0.0,0.0,0.0,0.0,0.0,0.0,0.0,0.0,-3.9149,-4.3602,-4.6755,-4.7565,-4.955,-4.9797,-4.73,-4.5943,-4.3376,-3.8998,-3.5399,0.0,0.0,0.0,0.0,0.0,0.0,0.0,0.0,0.0,0.0,0.0,0.0,0.0,0.0,0.0,0.0,0.0,0.0,0.0,0.0,0.0,0.0,0.0,0.0,0.0,0.0,0.0,0.0,0.0,0.0,0.0,0.0,0.0,0.0,0.0,0.0,0.0,0.0,0.0,0.0,0.0,0.0,0.0,0.0,0.0,0.0,0.0,0.0,0.0,0.0,0.0,0.0,0.0,0.0,0.0,0.0,0.0,0.0,0.0,0.0,-3.5968,0.0,0.0,0.0,0.0,0.0,0.0,0.0,0.0,0.0,0.0,0.0,0.0,0.0,0.0,0.0,0.0,0.0,0.0,0.0,0.0,0.0,0.0,0.0,0.0,0.0,0.0,0.0,0.0,0.0,0.0,0.0,0.0,0.0,0.0,0.0,0.0,0.0,0.0,0.0,0.0,-3.8275,-4.2048,-4.4863,-4.614,-4.7517,-4.7862,-4.6579,-4.5728,-4.3711,-3.9907,-3.6863,0.0,0.0,0.0,0.0,0.0,0.0,0.0,0.0,0.0,0.0,0.0,0.0,0.0,0.0,0.0,0.0,0.0,0.0,0.0,0.0,0.0,0.0,0.0,0.0,0.0,0.0,0.0,0.0,0.0,0.0,0.0,0.0,0.0,0.0,0.0,0.0,0.0,0.0,0.0,0.0,0.0,0.0,0.0,0.0,0.0,0.0,0.0,0.0,0.0,0.0,0.0,0.0,0.0,-4.4018,-4.4945,-4.5963,-4.5424,-4.5125,-4.4855,-4.2132,-3.9948,-3.8272,-3.8153,0.0,0.0,0.0,0.0,0.0,0.0,0.0,0.0,0.0,0.0,0.0,0.0,0.0,0.0,0.0,0.0,0.0,0.0,0.0,0.0,0.0,0.0,0.0,0.0,-3.7883,-3.6626,0.0,0.0,0.0,0.0,0.0,0.0,0.0,0.0,0.0,0.0,0.0,0.0,-3.7709,-4.0745,-4.3249,-4.4945,-4.5843,-4.6219,-4.6142,-4.5723,-4.4107,-4.0935,-3.8392,-3.5549,0.0,0.0,0.0,0.0,0.0,0.0,0.0,0.0,0.0,0.0,0.0,0.0,0.0,0.0,0.0,0.0,0.0,0.0,0.0,0.0,0.0,0.0,0.0,0.0,0.0,0.0,0.0,0.0,0.0,0.0,0.0,0.0,-3.5998,-3.6088,0.0,0.0,0.0,0.0,0.0,0.0,0.0,0.0,0.0,0.0,0.0,0.0,0.0,-4.1983,-4.2512,-4.4515,-4.5903,-4.6681,-4.7908,-4.861,-4.879,-4.87,-4.8297,-4.7728,-4.7309,0.0,-4.1692,-4.1085,0.0,0.0,0.0,0.0,0.0,0.0,0.0,0.0,0.0,0.0,0.0,0.0,0.0,0.0,0.0,0.0,0.0,0.0,0.0,0.0,0.0,0.0,-4.1901,-4.2393,-4.1624,-4.0786,0.0,-3.8217,-3.516,-3.3335,-3.2377,0.0,0.0,0.0,0.0,0.0,0.0,0.0,-3.8129,-4.125,-4.3509,-4.4347,-4.5574,-4.6082,-4.5484,-4.5903,-4.5005,-4.2321,-4.0157,-3.7823,-3.51,-3.1779,0.0,0.0,0.0,0.0,0.0,0.0,0.0,0.0,0.0,0.0,0.0,0.0,0.0,0.0,0.0,0.0,0.0,0.0,0.0,0.0,0.0,0.0,0.0,0.0,0.0,0.0,0.0,0.0,0.0,-3.6477,-3.8123,-3.8123,-3.7793,-3.7165,0.0,0.0,0.0,0.0,0.0,0.0,0.0,0.0,0.0,-4.2132,-4.4466,-4.5992,-4.6651,-4.8626,-4.9942,-5.0631,-5.1588,-5.2247,-5.2576,-5.2217,-5.1887,-5.1588,-5.1199,-4.9853,-4.7668,-4.4766,-4.2641,-4.0935,0.0,0.0,0.0,0.0,-3.7464,-3.8427,-3.8691,-3.8811,0.0,-3.8452,0.0,0.0,0.0,0.0,0.0,0.0,0.0,0.0,0.0,0.0,-4.4077,-4.4377,-4.3718,-4.312,-4.3389,-4.2102,-4.0098,0.0,-3.5699,-3.4144,-3.2167,0.0,0.0,0.0,0.0,-3.5864,-3.8672,-4.1242,-4.318,-4.4197,-4.5185,-4.5783,-4.5873,-4.6142,-4.5514,-4.3569,-4.1624,-3.9499,-3.7225,-3.3933,-3.1569,0.0,0.0,0.0,0.0,0.0,0.0,0.0,0.0,0.0,0.0,0.0,0.0,0.0,0.0,0.0,0.0,0.0,0.0,0.0,0.0,0.0,0.0,0.0,0.0,0.0,0.0,0.0,0.0,-3.8512,-4.0307,-4.0636,-4.0217,-3.9649,0.0,0.0,0.0,0.0,0.0,0.0,-4.2102,-4.3718,-4.4934,-4.5771,-4.7908,-4.9344,-5.0048,-5.1648,-5.2785,-5.3443,-5.3952,-5.4551,-5.5179,-5.4521,-5.4221,-5.4162,-5.3473,-5.2905,-5.2157,-4.8356,-4.5963,-4.4407,-4.2102,-4.1683,-4.2252,-4.1294,-4.1654,-4.2671,-4.2851,-4.291,-4.288,-4.2701,-4.1414,-3.9709,-3.8542,0.0,0.0,0.0,0.0,-4.1444,-4.28,-4.4317,-4.5603,-4.5753,-4.5304,-4.4825,-4.4825,-4.4676,-4.3629,0.0,-3.8751,-3.7045,-3.4861,0.0,0.0,0.0,0.0,-3.7135,-3.9619,-4.1504,-4.297,-4.3958,-4.4796,-4.5424,-4.5741,-4.607,-4.5622,-4.4127,-4.2521,-4.0703,-3.8482,-3.5729,-3.3484,-3.178,0.0,0.0,0.0,0.0,0.0,0.0,0.0,0.0,0.0,0.0,0.0,0.0,0.0,0.0,0.0,0.0,0.0,0.0,0.0,0.0,0.0,0.0,0.0,0.0,0.0,0.0,0.0,0.0,0.0,-4.3928,-4.4047,0.0,0.0,0.0,0.0,-4.2901,-4.3688,-4.4915,-4.686,-4.7638,-4.8626,-4.9837,-5.0614,-5.1379,-5.2037,-5.2755,-5.3473,-5.4162,-5.4192,-5.4551,-5.5179,-5.4521,-5.4221,-5.4162,-5.3473,-5.3144,-5.3025,-5.1528,-4.9793,-4.7908,-4.6501,-4.5633,-4.5095,-4.5035,-4.5454,-4.613,-4.68,-4.701,-4.689,-4.6262,-4.3898,-4.1145,-4.0457,-3.9738,0.0,0.0,-4.2132,-4.3439,-4.4796,-4.5693,-4.6441,-4.707,-4.6711,-4.619,-4.619,-4.5693,-4.4466,0.0,-4.1205,-4.0307,-3.7674,0.0,-3.5699,-3.6956,-3.7793,-3.899,-4.1025,-4.2462,-4.326,-4.3319,-4.4526,-4.5065,-4.4466,-4.5603,-4.5442,-4.3469,-4.2701,-4.1183,-3.8512,-3.7075,-3.513,-3.2527,-3.1001,0.0,0.0,0.0,0.0,0.0,0.0,0.0,0.0,0.0,0.0,0.0,0.0,0.0,0.0,0.0,0.0,0.0,0.0,0.0,0.0,0.0,0.0,0.0,0.0,0.0,0.0,0.0,0.0,-4.6142,-4.698,0.0,-4.6591,-4.5723,-4.5723,-4.704,-4.8536,-4.9883,-5.102,-5.2546,-5.3563,-5.4042,-5.467,-5.5119,-5.5359,-5.5568,-5.5807,-5.6077,-5.6077,-5.6196,-5.6406,-5.6166,-5.5837,-5.5448,-5.5209,-5.488,-5.4431,-5.3952,-5.2366,-5.0032,-4.8745,-4.8057,-4.7832,-4.7369,-4.7638,-4.8237,-4.8476,-4.8566,-4.8446,-4.7788,-4.6202,-4.4526,-4.4287,-4.3748,-4.3299,-4.3778,-4.4556,-4.5323,-4.5843,-4.6441,-4.701,-4.7249,-4.713,-4.695,-4.695,-4.677,-4.6052,-4.4257,-4.321,-4.2192,-4.0846,-3.9529,-3.8811,-3.926,-3.9888,-4.0763,-4.1901,-4.2791,-4.329,-4.329,-4.4496,-4.5035,-4.4377,-4.4766,-4.4515,-4.3349,-4.1534,-4.0038,-3.908,-3.7404,-3.5848,-3.4472,-3.2706,-3.0582,0.0,0.0,0.0,0.0,0.0,0.0,0.0,0.0,0.0,0.0,0.0,0.0,0.0,0.0,0.0,0.0,0.0,0.0,0.0,0.0,0.0,0.0,0.0,0.0,0.0,0.0,-4.7399,-4.8506,-4.9583,-5.0092,-4.9643,-4.9015,-4.9164,-5.0527,-5.2007,-5.3174,-5.3832,-5.5329,-5.6128,-5.5837,-5.6466,-5.6795,-5.6795,-5.7004,-5.7094,-5.7094,-5.7094,-5.6974,-5.6795,-5.6795,-5.6436,-5.5837,-5.5837,-5.5598,-5.5179,-5.5179,-5.4012,-5.2157,-5.1259,-5.0661,-5.0212,-4.9763,-4.9733,-4.9912,-4.9912,-4.9793,-4.9523,-4.9075,-4.8207,-4.7309,-4.7309,-4.701,-4.6621,-4.6621,-4.68,-4.698,-4.698,-4.716,-4.7309,-4.7309,-4.7309,-4.7309,-4.7309,-4.713,-4.6711,-4.5813,-4.4766,-4.3658,-4.259,-4.1662,-4.1055,-4.1055,-4.1482,-4.1991,-4.2611,-4.306,-4.329,-4.329,-4.4496,-4.4945,-4.4047,-4.4197,-4.3838,-4.2731,-4.0636,-3.9194,-3.8751,-3.7285,-3.6058,-3.519,-3.2976,-3.0971,-2.9235,0.0,0.0,0.0,0.0,0.0,0.0,0.0,0.0,0.0,0.0,0.0,0.0,0.0,0.0,0.0,0.0,0.0,0.0,0.0,0.0,0.0,0.0,0.0,-4.3389,-4.6352,-4.9164,-5.1079,-5.1917,-5.2366,-5.2366,-5.1768,-5.1917,-5.3204,-5.3952,-5.461,-5.5209,-5.5867,-5.5897,-5.5269,-5.5867,-5.6248,-5.6278,-5.6855,-5.7154,-5.7154,-5.7154,-5.6825,-5.6278,-5.6278,-5.5867,-5.5209,-5.5209,-5.5209,-5.5179,-5.5179,-5.482,-5.4251,-5.4221,-5.3384,-5.2187,-5.2187,-5.1798,-5.1229,-5.1229,-5.0734,-5.0196,-5.0226,-4.9823,-4.9329,-4.9359,-4.9359,-4.9329,-4.9329,-4.885,-4.8297,-4.8267,-4.7788,-4.7309,-4.7309,-4.7309,-4.7309,-4.7309,-4.68,-4.6352,-4.6249,-4.5753,-4.4676,-4.28,-4.244,-4.244,-4.244,-4.244,0.0,-4.32,-4.329,-4.329,-4.329,-4.4496,-4.4766,-4.3409,-4.3888,-4.3449,-4.1474,-4.0068,-3.8751,-3.7434,-3.6776,-3.5851,-3.4533,-3.1898,-2.9924,-2.8637,0.0,0.0,0.0,0.0,0.0,0.0,0.0,0.0,0.0,0.0,0.0,0.0,0.0,0.0,0.0,0.0,0.0,0.0,0.0,0.0,0.0,-4.2222,-4.4736,-4.5424,-4.9164,-5.2217,-5.3264,-5.479,-5.5748,-5.5748,-5.5598,-5.5628,-5.5987,-5.6645,-5.6915,-5.6585,-5.6735,-5.6765,-5.6585,-5.6735,-5.7094,-5.7573,-5.8231,-5.856,-5.856,-5.856,-5.8201,-5.7573,-5.7573,-5.6974,-5.5897,-5.5897,-5.5628,-5.5179,-5.5179,-5.5089,-5.488,-5.4401,-5.3384,-5.2187,-5.2187,-5.1798,-5.1229,-5.1229,-5.0734,-5.0255,-5.0734,-5.0511,-5.0062,-5.0541,-5.0361,-4.9883,-4.9449,-4.885,-4.8177,-4.7698,-4.7429,-4.7309,-4.7309,-4.7309,-4.7309,-4.7309,-4.716,-4.6741,-4.5753,-4.5424,-4.4975,-4.3958,-4.3389,-4.306,-4.306,-4.306,0.0,-4.326,-4.329,-4.329,-4.329,-4.4496,-4.4766,-4.3409,-4.3469,-4.2761,-4.0786,-3.8542,-3.7135,-3.6746,-3.5672,-3.4893,-3.4503,-3.2826,-3.1091,0.0,0.0,0.0,0.0,0.0,0.0,0.0,0.0,0.0,0.0,0.0,0.0,0.0,0.0,0.0,0.0,0.0,0.0,0.0,0.0,0.0,0.0,-4.4855,-4.7698,-4.8656,-5.1588,-5.3862,-5.4551,-5.6077,-5.7094,-5.7094,-5.7094,-5.7214,-5.7513,-5.7902,-5.7812,-5.7124,-5.7094,-5.6855,-5.6316,-5.6825,-5.7304,-5.7693,-5.862,-5.8979,-5.868,-5.868,-5.8201,-5.7304,-5.7304,-5.6735,-5.5748,-5.5748,-5.5538,-5.5179,-5.5179,-5.5179,0.0,0.0,0.0,0.0,0.0,-5.1947,-5.1588,-5.1319,-5.0913,-5.0674,-5.1079,-5.096,-5.0614,-5.0734,-5.0495,-5.0046,-4.9464,-4.885,-4.8207,-4.7818,-4.7519,-4.7309,-4.7309,-4.7309,-4.7309,-4.7309,-4.71,-4.6651,-4.5873,-4.5274,0.0,-4.4377,-4.3738,-4.329,-4.329,-4.329,-4.329,-4.329,-4.329,-4.329,-4.329,-4.4496,-4.4766,-4.3409,-4.3559,0.0,0.0,0.0,-3.7045,-3.6507,-3.5459,0.0,0.0,0.0,0.0,0.0,0.0,0.0,0.0,-2.8876,-2.9445,0.0,0.0,0.0,0.0,0.0,0.0,0.0,0.0,0.0,0.0,0.0,0.0,0.0,0.0,0.0,0.0,-4.7475,-5.0823,-5.2336,-5.3683,-5.476,-5.5329,-5.6526,-5.7334,-5.7334,-5.7334,-5.7573,-5.8201,-5.8231,-5.7932,-5.7244,0.0,0.0,0.0,0.0,-5.7124,-5.7214,-5.8471,-5.877,-5.8112,-5.8112,-5.7423,-5.6218,-5.6218,-5.5807,-5.5179,-5.5179,-5.5179,-5.5179,-5.5179,-5.5179,-5.5179,-5.5119,-5.473,-5.4042,-5.2695,-5.2187,-5.2097,-5.1439,0.0,0.0,-5.1229,-5.1229,-5.1109,-5.0465,-5.0196,-5.0002,-4.9434,-4.885,-4.8267,-4.8207,-4.7788,-4.7399,-4.7309,-4.7309,-4.7309,-4.7309,-4.686,-4.6369,-4.6279,-4.5364,-4.4496,-4.4347,-4.3738,-4.329,-4.329,-4.329,-4.329,-4.329,-4.329,-4.329,-4.329,0.0,0.0,-4.3409,-4.3828,-4.3389,-4.1542,-3.9499,-3.7823,-3.6537,-3.5998,-3.5968,-3.6477,-3.5342,-3.4414,-3.3724,-3.3873,-3.4262,-3.4893,-3.2976,-3.2437,0.0,0.0,0.0,0.0,0.0,0.0,0.0,0.0,0.0,0.0,0.0,0.0,0.0,0.0,0.0,-4.68,-4.9404,-5.1858,-5.4281,-5.5718,-5.6585,-5.6705,-5.7902,-5.871,-5.871,-5.871,-5.877,-5.8919,-5.8919,-5.862,-5.7962,-5.7393,-5.6974,-5.6735,-5.6974,-5.7363,-5.7932,-5.871,-5.877,-5.8112,0.0,0.0,-5.6218,-5.6218,-5.5807,-5.5179,-5.5179,-5.5179,-5.5179,-5.5179,-5.5179,-5.5149,-5.461,-5.4311,-5.4042,-5.2695,-5.2187,-5.2097,-5.1439,-5.1229,-5.1229,-5.1229,-5.1229,-5.1199,-5.1079,-5.0301,0.0,-4.9329,-4.885,-4.8177,-4.7638,-4.7788,-4.7967,-4.7429,-4.7309,-4.7309,-4.7309,-4.7219,-4.695,-4.6369,-4.607,-4.5603,-4.4496,-4.3738,-4.329,-4.329,-4.329,-4.329,-4.329,-4.329,-4.329,-4.329,-4.4047,-4.4197,-4.3349,-4.3409,-4.291,-4.1474,-3.9499,-3.7823,-3.6537,-3.6836,-3.6866,-3.6507,-3.6271,-3.5759,-3.513,-3.6148,-3.6985,-3.7584,-3.6178,-3.6148,0.0,0.0,0.0,0.0,0.0,0.0,0.0,0.0,0.0,0.0,0.0,-4.0397,-4.2043,0.0,-4.6561,-4.8895,-5.1199,-5.3294,-5.497,-5.6585,-5.7603,-5.7603,-5.8501,-5.9099,-5.9099,-5.9099,-5.9099,-5.9099,-5.9099,-5.883,-5.8171,-5.7782,-5.7453,-5.7094,-5.7423,-5.7603,-5.7603,-5.8261,-5.8112,-5.7154,-5.7154,-5.6645,-5.5688,-5.5688,-5.5508,-5.5179,-5.5179,-5.5179,-5.5179,-5.5179,-5.5179,-5.5149,-5.482,-5.47,-5.4551,-5.3174,-5.2695,-5.2546,-5.1558,-5.1229,-5.1229,-5.1229,-5.1229,-5.1169,-5.0794,-5.0272,-4.9673,-4.9389,-4.909,-4.8686,-4.8386,-4.8297,-4.8207,-4.7878,-4.7549,-4.7309,-4.7309,-4.7309,-4.7219,-4.689,-4.6561,-4.607,-4.5424,-4.4456,-4.3678,-4.3349,-4.329,-4.329,-4.329,-4.329,-4.329,-4.329,-4.3888,-4.4047,-4.3349,-4.303,-4.2581,-4.1961,-4.0307,-3.911,-3.8482,-3.8422,-3.8422,-3.8452,-3.8123,-3.7793,-3.7464,-3.8422,-3.9409,-4.0404,-4.0068,-3.9918,0.0,0.0,0.0,0.0,0.0,0.0,0.0,0.0,-3.8003,-3.9978,-4.1743,-4.3429,-4.4825,-4.695,-4.8955,-5.0345,-5.2636,-5.4521,-5.5448,-5.6915,-5.7962,-5.8058,-5.871,-5.9099,-5.9099,-5.9099,-5.9099,-5.9099,-5.9099,-5.886,-5.8351,-5.8321,-5.8052,-5.7513,-5.8022,-5.7992,-5.7304,-5.7842,-5.7453,-5.6218,-5.6218,-5.5837,-5.5179,-5.5179,-5.5179,-5.5179,-5.5179,-5.5179,-5.5179,-5.5179,-5.5179,-5.5179,-5.5179,-5.5179,-5.5029,-5.3683,-5.3174,-5.2995,-5.1678,-5.1229,-5.1229,-5.1229,-5.1229,-5.1109,-5.0554,-5.0285,-5.0076,-4.9613,-4.9464,-4.9434,-4.9329,-4.8985,-4.8596,-4.8356,-4.7878,-4.7459,-4.7339,-4.7309,-4.7309,-4.7309,-4.686,-4.6429,-4.6309,-4.5382,-4.4436,-4.3589,-4.3379,-4.329,-4.329,-4.329,-4.329,-4.329,-4.3768,-4.3958,-4.3529,-4.303,-4.274,-4.259,-4.1444,-4.0726,-4.0606,-4.0098,-4.0098,-4.0756,-4.0277,-4.0038,-4.0151,-4.0846,-4.1773,-4.298,-4.3629,-4.3299,-3.3993,-3.5519,-3.8153,-3.9529,-4.0307,-4.0756,0.0,0.0,-4.1384,-4.3359,-4.4407,-4.5544,-4.7489,-4.8566,-4.9808,-5.1678,-5.3234,-5.485,-5.6615,-5.7064,-5.7423,-5.8052,-5.871,-5.9099,-5.9099,-5.9099,-5.9099,-5.9099,-5.9099,-5.9069,-5.9009,-5.9009,-5.8949,-5.889,-5.8949,-5.868,-5.8022,-5.8082,-5.7453,-5.6218,-5.6218,-5.5837,-5.5179,-5.5179,-5.5179,-5.5179,-5.5179,-5.5179,-5.5179,-5.5179,-5.5179,-5.5179,-5.5179,-5.5179,-5.5029,-5.3683,-5.3174,-5.2995,-5.1678,-5.1229,-5.1229,-5.1229,-5.1229,-5.1199,-5.1139,-5.0644,-5.0196,-5.0106,-5.0076,-5.0002,-4.9404,-4.9643,-4.9687,-4.8566,-4.8237,-4.8027,-4.7429,-4.7309,-4.7309,-4.7309,-4.7249,-4.701,-4.6369,-4.6202,-4.5622,-4.4407,-4.3678,-4.329,-4.329,-4.329,-4.329,-4.329,-4.3349,-4.3618,-4.4127,-4.4137,-4.3838,-4.323,-4.2551,-4.1931,-4.1294,-4.1205,-4.1512,-4.2171,-4.2111,-4.2312,-4.2871,-4.3569,-4.4257,-4.4975,-4.5663,-4.5574,-3.6746,-3.8212,-4.0546,-4.2252,-4.3479,-4.4347,-4.4736,-4.4825,-4.5155,-4.6381,-4.7758,-4.8985,-4.9853,-5.084,-5.1947,0.0,-5.4491,-5.5628,-5.6436,-5.7214,-5.7513,-5.7034,-5.7244,-5.7543,-5.7902,-5.7932,-5.7932,-5.7932,-5.8321,-5.8351,-5.7962,-5.8321,-5.8351,-5.7962,-5.7932,-5.7633,-5.7004,-5.6974,-5.6526,-5.5598,-5.5598,-5.5448,-5.5179,-5.5179,-5.5179,-5.5179,-5.5179,-5.5179,-5.5179,-5.5179,-5.5179,-5.5149,-5.476,-5.461,-5.4491,-5.3533,-5.3174,-5.2995,-5.1678,-5.1229,-5.1229,-5.1229,-5.1229,-5.1229,-5.1229,-5.102,-5.0764,-5.0764,-5.0764,-5.0704,-5.0481,-5.0301,-5.0046,-4.9553,-4.8835,-4.8207,-4.7938,-4.7578,-4.7309,-4.7309,-4.7309,-4.7219,-4.695,-4.6591,-4.61,-4.5574,-4.4586,-4.3738,-4.3349,-4.329,-4.329,-4.329,-4.329,-4.3708,-4.4796,-4.4197,-4.3917,-4.4436,-4.3509,-4.2791,-4.2521,-4.288,-4.321,-4.3479,-4.3868,-4.4197,-4.4466,-4.4766,-4.5244,-4.5903,-4.6202,-4.6381,-3.914,-4.0666,-4.2671,-4.4646,-4.6022,-4.704,-4.7698,-4.7698,-4.7818,-4.8656,-4.9942,-5.099,-5.1199,-5.2157,-5.3144,-5.3832,-5.5179,-5.6218,-5.6218,-5.7124,-5.7363,-5.6047,-5.5748,-5.5748,-5.5987,-5.6526,-5.6825,-5.6825,-5.7633,-5.7812,-5.7124,-5.7752,-5.7812,-5.7124,-5.7094,-5.6795,-5.6248,-5.6218,-5.5837,-5.5179,-5.5179,-5.5179,-5.5179,-5.5179,-5.5179,-5.5179,-5.5179,-5.5179,-5.5179,-5.5179,-5.5179,-5.5119,-5.4461,-5.4221,-5.4102,-5.3234,-5.2905,-5.2755,-5.1618,-5.1229,-5.1229,-5.1229,-5.1229,-5.1229,-5.1229,-5.1229,-5.1229,-5.1229,-5.1229,-5.1229,-5.1229,-5.0823,-5.0405,-5.0226,-4.9374,-4.8506,-4.8327,-4.7758,-4.7309,-4.7309,-4.7309,-4.7309,-4.7309,-4.692,-4.6488,-4.6309,-4.5442,-4.4556,-4.3678,-4.3409,-4.329,-4.329,-4.3469,-4.3947,-4.4945,-4.4137,-4.4018,-4.4975,-4.3958,-4.3379,-4.3559,-4.4047,-4.4496,-4.4855,-4.5334,-4.5663,-4.5843,-4.5843,-4.6112,-4.6591,-4.6591,-4.695,-4.0606,-4.2731,-4.4706,-4.6711,-4.7728,-4.8386,-4.912,-4.876,-4.8626,-4.9867,-5.0196,-5.0405,-5.1109,-5.1768,-5.2456,-5.3114,-5.488,-5.6218,-5.6218,-5.6735,-5.6645,-5.5359,-5.467,-5.4012,0.0,-5.5059,-5.6248,-5.6248,-5.7393,-5.7812,-5.7124,-5.7752,-5.7812,-5.7124,-5.7094,-5.6795,-5.6248,-5.6218,-5.5837,-5.5179,-5.5179,-5.5179,-5.5179,-5.5179,-5.5179,-5.5179,-5.5179,-5.5179,-5.5179,-5.5179,-5.5179,-5.5119,-5.4461,-5.4221,-5.4042,-5.2725,-5.2217,-5.2127,-5.1439,-5.1229,-5.1229,-5.1229,-5.1229,-5.1229,-5.1229,-5.1229,-5.1229,-5.1229,-5.1229,-5.1229,-5.1229,-5.1199,-5.102,-5.0345,-4.9733,-4.912,-4.8416,-4.7758,-4.7309,-4.7309,-4.7309,-4.7309,-4.7309,-4.7279,-4.707,-4.6369,-4.6249,-4.5741,-4.4466,-4.3678,-4.329,-4.329,-4.3858,-4.4317,-4.4347,-4.4317,-4.4317,-4.4347,-4.3678,-4.3589,-4.4257,-4.4317,-4.4915,-4.619,-4.6249,-4.6621,-4.7249,-4.7249,-4.7249,-4.7279,-4.7279,-4.7638,-4.1482,-4.3449,-4.5454,-4.7459,-4.8775,-4.9763,-5.0421,-5.0391,-5.0242,-5.0196,-5.0196,-5.0255,-5.0495,-5.1063,-5.1917,-5.2995,-5.4491,-5.5538,-5.5538,-5.6077,-5.5837,-5.4072,-5.3653,0.0,0.0,0.0,0.0,-5.485,-5.5688,-5.6077,-5.5837,-5.6466,-5.6526,-5.5867,-5.5837,-5.5718,-5.5538,-5.5538,-5.5418,-5.5179,-5.5179,-5.5179,-5.5179,-5.473,-5.4551,-5.4521,-5.4072,-5.3862,-5.3862,-5.3862,-5.3862,-5.3803,-5.3114,-5.2875,-5.2755,-5.1887,-5.1558,-5.1498,-5.1289,-5.1229,-5.1229,-5.1229,-5.1229,-5.1229,-5.1229,-5.1229,-5.1229,-5.1229,-5.1229,-5.1229,-5.1229,-5.1229,-5.1169,-5.093,-5.0062,-4.9239,-4.903,-4.8087,-4.7309,-4.7309,-4.7309,-4.7309,-4.7309,-4.7309,-4.707,-4.6369,-4.5933,-4.5484,-4.5035,-4.4766,-4.4466,-4.3977,-4.4197,-4.4317,-4.4317,-4.3858,-4.3798,-4.4287,-4.3648,-4.3589,-4.4287,-4.4736,-4.5394,-4.6249,-4.6741,-4.707,-4.7309,-4.7309,-4.7309,-4.7309,-4.7309,-4.7668,-4.292,-4.5035,-4.707,-4.8596,-4.9793,-5.0644,-5.1109,-5.0973,-5.0644,-5.0032,-4.9523,-4.9149,-4.9149,-4.9912,-5.087,-5.1947,-5.3862,-5.5119,-5.488,-5.5598,-5.5508,-5.3773,-5.3324,-5.2755,0.0,0.0,0.0,-5.3443,-5.4551,-5.5089,-5.485,-5.5688,-5.5867,-5.5209,-5.5179,-5.5179,-5.5179,-5.5179,-5.5179,-5.5179,-5.5179,-5.5179,-5.5179,-5.4521,-5.4221,-5.4162,-5.3473,-5.3174,-5.3174,-5.3174,-5.3174,-5.3114,-5.2456,-5.2187,-5.2127,-5.1468,-5.1229,-5.1229,-5.1229,-5.1229,-5.1229,-5.1229,-5.1229,-5.1229,-5.1229,-5.1229,-5.1229,-5.1229,-5.1229,-5.1229,-5.1229,-5.1229,-5.1229,-5.1229,-5.0212,-4.9299,-4.9299,-4.8237,-4.7309,-4.7309,-4.7309,-4.7309,-4.7309,-4.7309,-4.716,-4.6741,-4.6292,-4.5843,-4.5364,-4.5304,-4.5035,-4.4377,-4.4317,-4.4227,-4.3947,-4.3529,-4.3469,-4.3928,-4.3529,-4.3708,-4.4616,-4.5065,-4.5723,-4.6651,-4.71,-4.7429,-4.7668,-4.7668,-4.7788,-4.7997,-4.7997,-4.8356,-4.4915,-4.7339,-4.9464,-5.0076,-5.0704,-5.1199,-5.1169,-5.0614,-4.9927,-4.9299,-4.8057,-4.71,0.0,0.0,-4.9254,-4.9956,-5.2905,-5.485,-5.4281,-5.5299,-5.5658,0.0,0.0,0.0,0.0,0.0,0.0,-5.2187,0.0,-5.482,-5.4251,-5.5418,-5.5837,-5.5209,-5.5179,-5.5179,-5.5179,-5.5149,-5.5149,-5.5149,-5.5089,-5.5089,-5.5059,-5.4401,-5.4102,-5.4072,-5.3384,-5.3084,-5.3084,-5.3084,-5.3084,-5.3025,-5.2396,-5.2157,-5.2067,-5.1439,-5.1229,-5.1229,-5.1229,-5.1229,-5.1229,-5.1229,-5.1229,-5.1229,-5.1229,-5.1229,-5.1229,-5.1229,-5.1229,-5.1229,-5.1229,-5.1229,-5.1229,-5.1229,-5.0212,-4.9299,-4.9299,-4.8237,-4.7309,-4.7309,-4.7309,-4.7309,-4.7309,-4.7309,-4.7309,-4.7309,-4.7309,-4.683,-4.5574,-4.5394,-4.5155,-4.4496,-4.4407,-4.4137,-4.3439,-4.3379,-4.3379,-4.3379,-4.3379,-4.4018,-4.5304,-4.5334,-4.5963,-4.7279,-4.7309,-4.7638,-4.8297,-4.8297,-4.8626,-4.9299,-4.9299,-4.9613,-4.686,-4.8716,-5.0152,-5.0764,-5.1079,-5.1079,-5.0554,-4.9972,-4.9045,-4.7429,-4.5633,-4.4377,0.0,0.0,0.0,-4.8416,-5.1139,0.0,-5.4102,-5.491,0.0,-5.4311,0.0,-5.3683,-5.2995,-5.2785,0.0,0.0,-5.3414,-5.3832,-5.4192,-5.4999,-5.5359,-5.5209,-5.5179,-5.5179,-5.5179,-5.47,-5.4461,-5.4461,-5.3952,-5.3683,-5.3683,-5.3025,-5.2725,-5.2665,-5.2007,-5.1708,-5.1708,-5.1708,-5.1708,-5.1708,-5.1528,-5.1468,-5.1439,-5.1289,-5.1229,-5.1229,-5.1229,-5.1229,-5.1229,-5.1229,-5.1229,-5.1229,-5.1229,-5.1229,-5.1229,-5.1229,-5.1229,-5.1229,-5.1229,-5.1229,-5.1229,-5.1229,-5.0212,-4.9299,-4.9299,-4.8237,-4.7309,-4.7309,-4.7309,-4.7309,-4.7309,-4.7309,-4.7309,-4.7309,-4.7309,-4.7189,-4.683,-4.68,-4.6531,-4.5873,-4.5771,-4.5544,-4.4855,-4.4796,-4.4796,-4.4796,-4.4796,-4.5185,-4.6022,-4.6052,-4.6441,-4.7279,-4.7309,-4.7638,-4.8297,-4.8297,-4.8626,-4.9299,-4.9299,-4.9613,-4.8147,-4.9673,-5.0704,-5.1139,-5.099,-5.0554,-4.9972,-4.8626,-4.704,-4.5323,-4.297,-4.1294,-4.1526,-4.2402,-4.3808,0.0,0.0,0.0,-5.2755,-5.3713,-5.4281,0.0,-5.3952,0.0,-5.3653,-5.3354,-5.3174,0.0,-5.3473,-5.3803,-5.4192,-5.485,-5.5179,-5.5179,-5.5179,-5.5179,-5.5179,-5.4551,-5.4221,-5.4192,-5.3503,-5.3174,-5.3144,-5.2486,-5.2187,-5.2157,0.0,-5.1229,-5.1229,-5.1229,-5.1229,-5.1229,-5.1229,-5.1229,-5.1229,-5.1229,-5.1229,-5.1229,-5.1229,-5.1229,-5.1229,-5.1229,-5.1229,-5.1229,-5.1229,-5.1229,-5.1229,-5.1229,-5.1229,-5.1229,-5.1229,-5.1229,-5.1229,-5.1229,-5.0451,-4.9673,-4.9673,-4.8895,-4.8087,-4.7788,-4.7728,-4.7638,-4.7369,-4.7309,-4.7309,-4.7309,-4.7309,-4.7309,-4.7309,-4.7309,-4.704,-4.6339,-4.6279,-4.6052,-4.5364,-4.5304,-4.5304,-4.5304,-4.5574,-4.6052,-4.6741,-4.704,-4.7489,-4.8147,-4.8177,-4.8476,-4.9134,-4.9134,-4.9494,-5.0122,-5.0122,-5.0331,-4.9045,-5.0361,-5.1319,-5.1139,-5.0601,-4.9883,-4.8955,-4.6741,-4.4466,-4.2931,-4.0187,-3.8212,-3.8901,-4.0038,-4.1564,-4.3718,0.0,-4.9956,-5.084,-5.2157,-5.3264,-5.3862,-5.3563,-5.3563,-5.4162,-5.3743,-5.3443,-5.3443,-5.4012,-5.4311,-5.4221,-5.485,-5.5179,-5.5179,-5.5179,-5.5149,-5.5059,-5.4401,-5.4012,-5.3952,-5.3234,-5.2905,-5.2905,-5.2336,-5.2067,-5.2037,-5.1468,-5.1229,-5.1229,-5.1229,-5.1229,-5.1229,-5.1229,-5.1229,-5.1229,-5.1229,-5.1229,-5.1229,-5.1229,-5.1229,-5.1229,-5.1229,-5.1229,-5.1229,-5.1229,-5.1229,-5.1229,-5.1229,-5.1229,-5.1229,-5.1229,-5.1229,-5.1229,-5.1229,-5.0674,-5.0196,-5.0196,-4.9733,-4.912,-4.8416,-4.8297,-4.8087,-4.7429,-4.7309,-4.7309,-4.7309,-4.7309,-4.7309,-4.7309,-4.7309,-4.71,-4.6459,-4.6399,-4.6202,-4.5603,-4.5574,-4.5574,-4.5574,-4.6112,-4.6741,-4.7399,-4.7967,-4.864,-4.9299,-4.9299,-4.9583,-5.0196,-5.0196,-5.0524,-5.1229,-5.1229,-5.1229,-4.9853,-5.102,-5.1768,-5.0644,-4.9912,-4.8835,-4.6501,-4.4417,0.0,-3.9738,-3.7524,-3.6207,-3.6866,-3.7614,-3.911,-4.2231,-4.5125,-4.7608,-4.9344,-5.1199,-5.2426,0.0,-5.3414,0.0,0.0,0.0,0.0,0.0,0.0,-5.479,-5.4251,-5.485,-5.5179,-5.5179,-5.5179,-5.494,-5.4371,-5.3713,-5.3084,-5.2546,-5.1887,-5.1558,-5.1558,-5.1439,-5.1379,-5.1379,-5.1259,0.0,-5.1229,-5.1229,-5.1229,-5.1229,-5.1229,-5.1229,-5.1229,-5.1229,-5.1229,-5.1229,-5.1229,-5.1229,-5.1229,-5.1229,-5.1229,-5.1229,-5.1229,-5.1229,-5.1229,-5.1229,-5.1229,-5.1229,-5.1229,-5.1229,-5.1229,-5.1229,-5.0674,-5.0196,-5.0196,-4.9733,-4.912,-4.8416,-4.8297,-4.8087,-4.7429,-4.7309,-4.7309,-4.7309,-4.7309,-4.7309,-4.7309,-4.7309,-4.7249,-4.716,-4.713,-4.71,-4.695,-4.695,-4.695,-4.695,-4.707,-4.7429,-4.8087,-4.8237,-4.864,-4.9299,-4.9299,-4.9583,-5.0196,-5.0196,-5.0524,-5.1229,-5.1229,-5.1229,-5.0801,-5.1563,-5.1887,-5.0524,-4.9224,-4.7638,-4.5304,0.0,0.0,-3.7793,-3.5549,-3.4143,-3.4801,-3.5459,0.0,-3.9865,-4.2521,-4.5065,-4.7399,-4.9134,0.0,-5.1558,-5.2576,0.0,0.0,0.0,0.0,0.0,0.0,-5.5059,-5.473,-5.5029,-5.5179,-5.5179,-5.485,-5.4521,-5.4221,-5.3174,-5.2516,-5.2187,-5.1528,-5.1229,-5.1229,-5.1229,-5.1229,-5.1229,-5.1229,0.0,-5.1229,-5.1229,-5.1229,-5.1229,-5.1229,-5.1229,-5.1229,-5.1229,-5.1229,-5.1229,-5.1229,-5.1229,-5.1229,-5.1229,-5.1229,-5.1229,-5.1229,-5.1229,-5.1229,-5.1229,-5.1229,-5.1229,-5.1229,-5.1229,-5.1229,-5.1229,-5.0913,-5.0704,-5.0704,-5.0511,-5.0092,-4.9434,-4.9314,-4.9105,-4.8446,-4.8327,-4.8207,-4.7878,-4.7818,-4.7698,-4.7339,-4.7309,-4.7309,-4.7309,-4.7309,-4.7309,-4.7309,-4.7309,-4.7309,-4.7309,-4.7638,-4.8117,-4.882,-4.9134,-4.9613,-5.0272,-5.0272,-5.0451,-5.0704,-5.0704,-5.0704,-5.0674,-5.105,-5.0973,-5.1834,-5.2171,-5.2037,-5.0421,-4.8446,-4.6232,-4.3808,-4.0307,-3.7135,-3.5729,-3.3544,-3.2078,-3.2736,-3.3275,-3.4532,0.0,-3.9805,-4.2321,-4.5095,-4.686,-4.8536,0.0,0.0,0.0,0.0,0.0,0.0,0.0,0.0,0.0,-5.5179,-5.5179,-5.5119,-5.497,-5.4491,-5.4072,-5.3773,-5.2725,-5.2127,-5.1977,-5.1468,-5.1229,-5.1229,-5.1229,-5.1229,-5.1229,-5.1229,0.0,0.0,-5.1229,-5.1229,-5.1229,-5.1229,-5.1229,-5.1229,-5.1229,-5.1229,-5.1229,-5.1229,-5.1229,-5.1229,-5.1229,-5.1229,-5.1229,-5.1229,-5.1229,-5.1229,-5.1229,-5.1229,-5.1229,-5.1229,-5.1229,-5.1229,-5.1229,-5.1229,-5.1229,-5.1229,-5.1229,-5.102,-5.0315,-5.0196,-4.9986,-4.9419,-4.9299,-4.909,-4.8386,-4.8297,-4.8057,-4.7399,-4.7309,-4.7309,-4.7309,-4.7309,-4.7309,-4.7309,-4.7309,-4.7309,-4.7309,-4.7908,-4.8566,-4.9269,-4.9883,-5.0495,-5.1199,-5.1229,-5.1229,-5.1229,-5.1229,-5.096,-5.0405,-5.0913,-5.093,-5.3055,-5.3149,-5.2486,-5.0018,-4.7399,-4.4496,-4.0726,0.0,-3.4292,-3.2348,-3.0851,-3.0043,-3.0672,-3.0821,-3.1958,-3.522,-3.6956,-3.899,-4.2321,-4.4915,-4.701,-4.8386,0.0,0.0,0.0,0.0,0.0,0.0,0.0,0.0,-5.5179,-5.5179,-5.491,-5.4311,-5.4251,-5.3623,-5.2396,-5.2247,-5.1887,-5.1319,-5.1259,-5.1229,-5.1229,-5.1229,-5.1229,-5.1229,-5.1229,0.0,0.0,-5.1229,-5.1229,-5.1229,-5.1229,-5.1229,-5.1229,-5.1229,-5.1229,-5.1229,-5.1229,-5.1229,-5.1229,-5.1229,-5.1229,-5.1229,-5.1229,-5.1229,-5.1229,-5.1229,-5.1229,-5.1229,-5.1229,-5.1229,-5.1229,-5.1229,-5.1229,-5.1229,-5.1229,-5.1229,-5.102,-5.0315,-5.0196,-4.9986,-4.9419,-4.9299,-4.909,-4.8386,-4.8297,-4.8057,-4.7399,-4.7309,-4.7309,-4.7309,-4.7309,-4.7309,-4.7309,-4.7309,-4.7309,-4.7309,-4.7908,-4.8566,-4.9269,-4.9883,-5.0495,-5.1199,-5.1229,-5.1229,-5.1229,-5.1229,-5.1199,-5.1139,-5.1199,-5.1199,-5.1533,-5.2122,-5.1947,-4.9344,-4.6681,-4.3778,-4.018,-3.6537,-3.3425,-3.1839,-3.0492,-2.9654,-2.9894,-3.0253,-3.133,-3.3873,-3.54,-3.7404,-4.0726,-4.2761,-4.4736,0.0,0.0,0.0,0.0,0.0,0.0,0.0,0.0,0.0,-5.5179,-5.5179,-5.488,-5.4221,-5.3803,-5.3144,-5.2217,-5.1798,-5.1468,-5.1229,-5.1229,-5.1229,-5.1229,-5.1229,-5.1229,-5.1229,-5.1229,0.0,0.0,-5.1229,-5.1229,-5.1229,-5.1229,-5.1229,-5.1229,-5.1229,-5.1229,-5.1229,-5.1229,-5.1229,-5.1229,-5.1229,-5.1229,-5.1229,-5.1229,-5.1229,-5.1229,-5.1229,-5.1229,-5.1229,-5.1229,-5.1229,-5.1229,-5.1229,-5.1229,-5.1229,-5.1229,-5.1229,-5.1139,-5.0823,-5.0794,-5.075,-5.0481,-5.0451,-5.0212,-4.9553,-4.9464,-4.9224,-4.8566,-4.8476,-4.8476,-4.8476,-4.7788,-4.7309,-4.7309,-4.7309,-4.7489,-4.7878,-4.8147,-4.8745,-4.9793,-5.0046,-5.0495,-5.1199,-5.1229,-5.1229,-5.1229,-5.1229,-5.102,-5.0584,-5.0973,-5.1229,-5.0202,-5.1136,-5.1289,-4.8656,-4.5992,-4.308,-3.9619,-3.5759,-3.2527,-3.1212,-2.9894,-2.9082,-2.9292,-2.9654,-3.0582,-3.2587,-3.4023,-3.5938,-3.8841,-4.0726,-4.2611,0.0,0.0,0.0,0.0,0.0,0.0,0.0,0.0,0.0,-5.491,-5.491,-5.461,-5.3922,-5.3234,-5.2576,-5.1917,-5.1439,-5.1229,-5.1229,-5.1229,-5.1229,-5.1229,-5.1229,-5.1229,-5.1229,-5.1229,0.0,0.0,-5.1229,-5.1229,-5.1229,-5.1229,-5.1229,-5.1229,-5.1229,-5.1229,-5.1229,-5.1229,-5.1229,-5.1229,-5.1229,-5.1229,-5.1229,-5.1229,-5.1229,-5.1229,-5.1229,-5.1229,-5.1229,-5.1229,-5.1229,-5.1229,-5.1229,-5.1229,-5.1229,-5.1229,-5.1229,-5.1229,-5.1229,-5.1229,-5.1229,-5.1229,-5.1229,-5.0943,-5.0285,-5.0196,-5.0002,-4.9389,-4.9299,-4.9299,-4.9299,-4.8446,-4.7818,-4.7608,-4.7608,-4.7698,-4.7967,-4.8356,-4.8985,-4.9912,-5.0285,-5.0704,-5.1199,-5.1229,-5.1229,-5.1229,-5.1229,-5.0943,-5.0495,-5.099,-5.1319,-4.9706,-5.0659,-5.0601,-4.7967,-4.5304,-4.2273,-3.8332,-3.4351,-3.1152,-2.9864,-2.8543,-2.7824,-2.8487,-2.8607,-2.9265,-3.1212,-3.2647,-3.4233,-3.6237,-3.8781,0.0,0.0,0.0,0.0,0.0,0.0,0.0,0.0,0.0,0.0,-5.4251,-5.4221,-5.3892,-5.3204,-5.2546,-5.1887,-5.1229,-5.1229,-5.1229,-5.1229,-5.1229,-5.1229,-5.1229,-5.1229,-5.1229,0.0,0.0,0.0,0.0,-5.1229,-5.1229,-5.1229,-5.1229,-5.1229,-5.1229,-5.1229,-5.1229,-5.1229,-5.1229,-5.1229,-5.1229,-5.1229,-5.1229,-5.1229,-5.1229,-5.1229,-5.1229,-5.1229,-5.1229,-5.1229,-5.1229,-5.1229,-5.1229,-5.1229,-5.1229,-5.1229,-5.1229,-5.1229,-5.1229,-5.1229,-5.1229,-5.1229,-5.1229,-5.1229,-5.0943,-5.0285,-5.0196,-5.0002,-4.9389,-4.9299,-4.9299,-4.9299,-4.9299,-4.903,-4.8327,-4.8267,-4.7997,-4.7369,-4.858,-4.9299,-4.9329,-5.0511,-5.1199,-5.1229,-5.1229,-5.1229,-5.1229,-5.1229,-5.1229,-5.1199,-5.1229,-5.1558,-4.6019,-4.6942,-4.7033,-4.4669,-4.2359,-3.9822,-3.6806,-3.3365,-3.0582,-2.9771,-2.8543,-2.7675,-2.7884,-2.8663,-2.9624,-3.0672,-3.1958,-3.3694,0.0,0.0,0.0,0.0,0.0,0.0,0.0,0.0,0.0,0.0,0.0,0.0,-5.4221,-5.3324,-5.2725,-5.2516,-5.2306,-5.1887,-5.1229,-5.1229,-5.1229,-5.1229,-5.1229,-5.1229,-5.1229,-5.1229,-5.1229,0.0,0.0,0.0,0.0,-5.1229,-5.1229,-5.1229,-5.1229,-5.1229,-5.1229,-5.1229,-5.1229,-5.1229,-5.1229,-5.1229,-5.1229,-5.1229,-5.1229,-5.1229,-5.1229,-5.1229,-5.1229,-5.1229,-5.1229,-5.1229,-5.1229,-5.1229,-5.1229,-5.1229,-5.1229,-5.1229,-5.1229,-5.1229,-5.1229,-5.1229,-5.1229,-5.1229,-5.1229,-5.1229,-5.1139,-5.093,-5.0853,-5.084,-5.0631,-5.0601,-5.0601,-5.0601,-5.0601,-4.9972,-4.8416,-4.8297,-4.8207,-4.7997,-4.8356,-4.8985,-4.9883,-5.0285,-5.0704,-5.1199,-5.1229,-5.1229,-5.1229,-5.1229,-5.1439,-5.1917,-5.2845,-5.3384,-4.2455,-4.3464,-4.3739,-4.1782,-3.9956,-3.8033,-3.5669,-3.2736,-3.0342,-2.9741,-2.8543,-2.7675,-2.7944,-2.8663,-2.9505,-3.0372,-3.1391,-3.2976,0.0,0.0,0.0,0.0,0.0,0.0,0.0,0.0,0.0,0.0,0.0,0.0,-5.3473,-5.2665,-5.2097,-5.1828,-5.1828,-5.1618,-5.1229,-5.1229,-5.1229,-5.1229,-5.1229,-5.1229,-5.1229,-5.1229,-5.1229,0.0,0.0,0.0,0.0,-5.1229,-5.1229,-5.1229,-5.1229,-5.1229,-5.1229,-5.1229,-5.1229,-5.1229,-5.1229,-5.1229,-5.1229,-5.1229,-5.1229,-5.1229,-5.1229,-5.1229,-5.1229,-5.1229,-5.1229,-5.1229,-5.1229,-5.1229,-5.1229,-5.1229,-5.1229,-5.1229,-5.1229,-5.1229,-5.1229,-5.1229,-5.1229,-5.1289,-5.1558,-5.1588,-5.1588,-5.1588,-5.1588,-5.1498,-5.1259,-5.1229,-5.1229,-5.1229,-5.1229,-5.0631,-4.9134,-4.9015,-4.8925,-4.8686,-4.8895,-4.9374,-5.0166,-5.0435,-5.0764,-5.1199,-5.1229,-5.1229,-5.1229,-5.1468,-5.1798,-5.2247,-5.3593,-5.4221,0.0,-4.0257,-4.072,-3.9219,-3.7956,-3.6626,-3.4743,-3.2287,0.0,-2.9651,-2.8513,-2.7794,-2.8487,-2.8637,-2.9086,-3.0313,-3.1092,-3.2288,0.0,-3.7045,0.0,0.0,0.0,0.0,0.0,0.0,0.0,0.0,0.0,0.0,-5.2247,-5.2157,-5.1858,-5.1229,-5.1229,-5.1229,-5.1229,-5.1229,-5.1229,-5.1229,-5.1229,-5.1229,-5.1229,-5.1229,-5.1229,0.0,0.0,0.0,0.0,-5.1229,-5.1229,-5.1229,-5.1229,-5.1229,-5.1229,-5.1229,-5.1229,-5.1229,-5.1229,-5.1229,-5.1229,-5.1229,-5.1229,-5.1229,-5.1229,-5.1229,-5.1229,-5.1229,-5.1229,-5.1229,-5.1229,-5.1229,-5.1229,-5.1229,-5.1229,-5.1229,-5.1229,-5.1229,-5.1229,-5.1229,-5.1229,-5.1409,-5.2037,-5.2157,-5.2187,-5.2187,-5.2187,-5.1977,-5.1379,-5.1259,-5.1229,-5.1229,-5.1229,-5.0913,-5.0315,-5.0226,-4.9942,-4.9359,-4.9853,-5.0136,-5.0196,-5.0794,-5.1169,-5.1229,-5.1229,-5.1229,-5.1289,-5.1947,-5.2306,-5.2366,-5.3683,-5.4281,-3.5053,0.0,-3.7748,-3.6569,-3.5334,-3.4023,0.0,-3.0971,-2.9624,-2.8966,-2.8184,-2.7794,-2.8487,-2.9026,-2.9594,-3.0372,-3.1509,-3.3155,-3.5669,0.0,0.0,-4.6322,0.0,0.0,0.0,0.0,0.0,0.0,0.0,-5.2366,-5.2217,-5.1708,-5.1379,-5.1229,-5.1229,-5.1229,-5.1229,-5.1229,-5.1229,-5.1229,-5.1229,-5.1229,-5.1229,-5.1229,-5.1229,0.0,0.0,-5.1229,-5.1229,-5.1229,-5.1229,-5.1229,-5.1229,-5.1229,-5.1229,-5.1229,-5.1229,-5.1229,-5.1229,-5.1229,-5.1229,-5.1229,-5.1229,-5.1229,-5.1229,-5.1229,-5.1229,-5.1229,-5.1229,-5.1229,-5.1229,-5.1229,-5.1229,-5.1229,-5.1229,-5.1229,-5.1229,-5.1229,-5.1229,-5.1229,-5.1229,-5.1259,-5.1439,-5.1858,-5.2187,-5.2187,-5.2187,-5.2127,-5.2007,-5.1528,-5.1229,-5.1229,-5.1229,-5.1169,-5.099,-5.0495,-4.9942,-4.9359,-4.9449,-4.9733,-5.0166,-5.0345,-5.0674,-5.1199,-5.1229,-5.1468,-5.1977,-5.2636,-5.3234,-5.3773,-5.4581,-5.497,-3.3715,-3.46,-3.5222,-3.4423,-3.339,-3.2317,-3.1271,-3.0073,-2.9026,-2.8667,-2.8094,-2.7794,-2.8487,-2.9146,-2.9894,-3.0821,-3.2078,0.0,0.0,0.0,0.0,0.0,0.0,0.0,0.0,0.0,0.0,0.0,0.0,-5.1738,-5.1738,-5.1409,-5.1229,-5.1229,-5.1229,-5.1229,-5.1229,-5.1229,-5.1229,-5.1229,-5.1229,-5.1229,-5.1229,-5.1229,-5.1229,0.0,0.0,-5.1229,-5.1229,-5.1229,-5.1229,-5.1229,-5.1229,-5.1229,-5.1229,-5.1229,-5.1229,-5.1229,-5.1229,-5.1229,-5.1229,-5.1229,-5.1229,-5.1229,-5.1229,-5.1229,-5.1229,-5.1229,-5.1229,-5.1229,-5.1229,-5.1229,-5.1229,-5.1229,-5.1229,-5.1229,-5.1229,-5.1229,-5.1229,-5.1229,-5.1229,-5.1319,-5.1618,-5.2217,-5.2665,-5.2665,-5.2905,-5.2905,-5.2276,-5.1887,-5.1558,-5.1259,-5.1229,-5.1229,-5.1229,-5.09,-5.0541,-5.0182,-5.0152,-5.0331,-5.0614,-5.0644,-5.0794,-5.1199,-5.1229,-5.1379,-5.1738,-5.2396,-5.3084,-5.3743,-5.4431,-5.491,-3.3516,-3.3543,-3.3371,-3.302,-3.2285,-3.1481,-3.0821,-2.9744,-2.8876,-2.8757,-2.8304,-2.8154,0.0,-2.9594,0.0,0.0,0.0,0.0,-4.1145,-4.4586,0.0,0.0,0.0,0.0,0.0,0.0,0.0,0.0,0.0,-5.1229,-5.1229,-5.1229,-5.1229,-5.1229,-5.1229,-5.1229,-5.1229,-5.1229,-5.1229,-5.1229,-5.1229,-5.1229,-5.1229,-5.1229,-5.1229,-5.1229,0.0,0.0,-5.1229,-5.1229,-5.1229,-5.1229,-5.1229,-5.1229,-5.1229,-5.1229,-5.1229,-5.1229,-5.1229,-5.1229,-5.1229,-5.1229,-5.1229,-5.1229,-5.1229,-5.1229,-5.1229,-5.1229,-5.1229,-5.1229,-5.1229,-5.1229,-5.1229,-5.1229,-5.1229,-5.1229,-5.1229,-5.1229,-5.1229,-5.1229,-5.1229,-5.1439,-5.2097,-5.2755,-5.3204,-5.3324,-5.3832,-5.3773,-5.2516,-5.2247,-5.1947,-5.1289,-5.1229,-5.1229,-5.1229,-5.1229,-5.1229,-5.1229,-5.1229,-5.1229,-5.1229,-5.1229,-5.1229,-5.1229,-5.1229,-5.1259,-5.1379,-5.1917,-5.2546,-5.3204,-5.3892,-5.4491,-3.2619,-3.308,-3.3361,-3.3591,-3.2989,-3.2168,-3.1511,-3.0733,-3.0073,0.0,0.0,0.0,0.0,-3.16,-3.2677,0.0,0.0,-4.1025,0.0,0.0,0.0,0.0,0.0,0.0,0.0,0.0,0.0,0.0,0.0,-5.1229,-5.1229,-5.1229,-5.1229,-5.1229,-5.1229,-5.1229,-5.1229,-5.1229,-5.1229,-5.1229,-5.1229,-5.1229,-5.1229,-5.1229,-5.1229,-5.1229,0.0,-5.1229,-5.1229,-5.1229,-5.1229,-5.1229,-5.1229,-5.1229,-5.1229,-5.1229,-5.1229,-5.1229,-5.1229,-5.1229,-5.1229,-5.1229,-5.1229,-5.1229,-5.1229,-5.1229,-5.1229,-5.1229,-5.1229,-5.1229,-5.1229,-5.1229,-5.1229,-5.1229,-5.1229,-5.1229,-5.1229,-5.1229,-5.1229,-5.1229,-5.1229,-5.1439,-5.2097,-5.2755,-5.3384,-5.3952,-5.4132,-5.3922,-5.3144,-5.2546,-5.1947,-5.1289,-5.1229,-5.1229,-5.1229,-5.1229,-5.1229,-5.1229,-5.1229,-5.1229,-5.1229,-5.1229,-5.1229,-5.1229,-5.1229,-5.1498,-5.2067,-5.2157,-5.2546,-5.3204,-5.3892,-5.4251,-3.2162,-3.2597,-3.3182,-3.3873,-3.3533,-3.2856,-3.2168,-3.1511,-3.0943,0.0,0.0,0.0,0.0,0.0,-3.513,-3.8182,0.0,-4.3539,-4.5155,0.0,0.0,0.0,0.0,0.0,0.0,0.0,0.0,0.0,0.0,0.0,-5.1229,-5.1229,-5.1229,-5.1229,-5.1229,-5.1229,-5.1229,-5.1229,-5.1229,-5.1229,-5.1229,-5.1229,-5.1229,-5.1229,-5.1229,-5.1229,0.0,-5.1229,-5.1229,-5.1229,-5.1229,-5.1229,-5.1229,-5.1229,-5.1229,-5.1229,-5.1229,-5.1229,-5.1229,-5.1229,-5.1229,-5.1229,-5.1229,-5.1229,-5.1229,-5.1229,-5.1229,-5.1229,-5.1229,-5.1229,-5.1229,-5.1229,-5.1229,-5.1229,-5.1229,-5.1229,-5.1229,-5.1229,-5.1229,-5.1229,-5.1498,-5.1858,-5.2157,-5.3054,-5.3832,-5.4162,-5.4521,-5.4371,-5.3324,-5.2905,-5.2336,-5.1319,-5.1229,-5.1229,-5.1229,-5.1229,-5.1229,-5.1229,-5.1229,-5.1229,-5.1229,-5.1229,-5.1229,-5.1229,-5.1229,-5.1379,-5.1678,-5.1678,-5.2007,-5.2665,-5.2965,-5.3503,-3.1846,-3.2108,-3.2668,-3.3789,-3.3856,-3.3516,-3.3306,-3.2826,-3.2437,0.0,0.0,0.0,0.0,-3.5549,0.0,-4.1123,-4.3269,-4.5065,-4.6561,-4.8207,0.0,0.0,0.0,0.0,0.0,0.0,0.0,0.0,0.0,0.0,-5.1229,-5.1229,-5.1229,-5.1229,-5.1229,-5.1229,-5.1229,-5.1229,-5.1229,-5.1229,-5.1229,-5.1229,-5.1229,-5.1229,-5.1229,-5.1229,-5.1229,-5.1229,-5.1229,-5.1229,-5.1229,-5.1229,-5.1229,-5.1229,-5.1229,-5.1229,-5.1229,-5.1229,-5.1229,-5.1229,-5.1229,-5.1229,-5.1229,-5.1229,-5.1229,-5.1229,-5.1229,-5.1229,-5.1229,-5.1229,-5.1229,-5.1229,-5.1229,-5.1229,-5.1229,-5.1229,-5.1229,-5.1229,-5.1229,-5.1229,-5.1618,-5.2067,-5.2366,-5.3294,-5.4072,-5.4401,-5.488,-5.476,-5.3563,-5.3294,-5.2725,-5.1558,-5.1319,-5.1229,-5.1229,-5.1229,-5.1229,-5.1229,-5.1229,-5.1229,-5.1229,-5.1229,-5.1229,-5.1229,-5.1229,-5.1229,-5.1229,-5.1229,-5.1468,-5.1977,-5.2127,-5.2845,-3.1775,-3.1571,-3.1629,-3.3301,-3.382,-3.4152,-3.5237,-3.5349,0.0,-3.522,0.0,0.0,0.0,-3.8332,-4.0546,-4.2081,-4.3928,-4.5903,-4.7878,0.0,0.0,0.0,0.0,0.0,0.0,0.0,0.0,0.0,0.0,0.0,-5.1229,-5.1229,-5.1229,-5.1229,-5.1229,-5.1229,-5.1229,-5.1229,-5.1229,-5.1229,-5.1229,-5.1229,-5.1229,-5.1229,-5.1229,-5.1229,-5.1229,-5.1229,-5.1229,-5.1229,-5.1229,-5.1229,-5.1229,-5.1229,-5.1229,-5.1229,-5.1229,-5.1229,-5.1229,-5.1229,-5.1229,-5.1229,-5.1229,-5.1229,-5.1229,-5.1229,-5.1229,-5.1229,-5.1229,-5.1229,-5.1229,-5.1229,-5.1229,-5.1229,-5.1229,-5.1229,-5.1229,-5.1229,-5.1229,-5.1229,-5.1259,-5.1678,-5.2905,-5.3204,-5.3683,-5.494,-5.5149,-5.494,-5.4221,-5.3563,-5.2905,-5.2187,-5.1588,-5.1229,-5.1229,-5.1229,-5.1229,-5.1229,-5.1229,-5.1229,-5.1229,-5.1229,-5.1229,-5.1229,-5.1229,-5.1229,-5.1229,-5.1229,-5.1229,-5.1319,-5.1917,-5.2576,-3.2101,-3.1741,-3.177,-3.3016,-3.3625,0.0,0.0,-3.6953,-3.7524,-3.8392,-3.8751,0.0,0.0,0.0,-4.2081,-4.3359,-4.5244,-4.695,-4.8117,0.0,0.0,0.0,0.0,0.0,0.0,0.0,0.0,0.0,0.0,0.0,-5.0002,-5.0002,-5.0002,-5.0002,-5.0002,-5.0002,-5.0002,-5.0002,-5.0002,-5.0002,-5.084,-5.1229,-5.1229,-5.1229,-5.1229,-5.1229,-5.1229,-5.1229,-5.1229,-5.1229,-5.1229,-5.1229,-5.1229,-5.1229,-5.1229,-5.1229,-5.1229,-5.1229,-5.1229,-5.1229,-5.1229,-5.1229,-5.1229,-5.1229,-5.1229,-5.1229,-5.1229,-5.1229,-5.1229,-5.1229,-5.1229,-5.1229,-5.1229,-5.1229,-5.1229,-5.1229,-5.1229,-5.1229,-5.1229,-5.1229,-5.1558,-5.1977,-5.2486,-5.2905,-5.3503,-5.4431,-5.4581,-5.4491,-5.4251,-5.3593,-5.2935,-5.2276,-5.1618,-5.1229,-5.1229,-5.1229,-5.1229,-5.1229,-5.1229,-5.1229,-5.1229,-5.1229,-5.1229,-5.1229,-5.1229,-5.1229,-5.1229,-5.1229,-5.1229,-5.1229,-5.1887,-5.2546,-3.2677,-3.2026,-3.1886,-3.3285,0.0,0.0,-3.7369,-3.8512,-3.9409,-4.0726,-4.1025,-4.0876,-4.0487,0.0,0.0,0.0,-4.5514,0.0,0.0,0.0,0.0,0.0,0.0,0.0,0.0,0.0,0.0,0.0,0.0,0.0,0.0,-4.9299,-4.9299,-4.9299,-4.9299,-4.9299,-4.9299,-4.9299,-4.9299,-4.9329,-5.0182,-5.0601,-5.0601,-5.0601,-5.0601,-5.0601,-5.081,-5.0853,-5.0883,-5.1139,-5.1229,-5.1229,-5.1229,-5.1229,-5.1229,-5.1229,-5.1229,-5.1229,-5.1229,-5.1229,-5.1229,-5.1229,-5.1229,-5.1229,-5.1229,-5.1229,-5.1229,-5.1229,-5.1229,-5.1229,-5.1229,-5.1229,-5.1229,-5.1229,-5.1229,-5.1229,-5.1229,-5.1229,-5.1229,-5.1229,-5.1738,-5.2276,-5.2486,-5.3054,-5.3653,-5.4132,-5.4221,-5.4221,-5.4221,-5.3414,-5.2606,-5.1947,-5.1498,-5.1229,-5.1229,-5.1229,-5.1229,-5.1229,-5.1229,-5.1229,-5.1229,-5.1229,-5.1229,-5.1229,-5.1229,-5.1229,-5.1229,-5.1229,-5.1319,-5.1528,-5.2007,-5.2665,-3.3423,-3.2341,-3.1813,-3.42,0.0,0.0,-3.8931,-4.0152,-4.0816,-4.2171,-4.244,-4.2021,-4.0666,0.0,0.0,0.0,0.0,0.0,0.0,0.0,0.0,0.0,0.0,0.0,0.0,0.0,0.0,0.0,0.0,0.0,0.0,-4.9299,-4.9299,-4.9299,-4.9299,-4.9299,-4.9299,-4.9299,-4.9299,-4.9299,-4.9299,-4.9299,-4.9299,-4.9299,-4.9299,-4.9329,-4.9942,-5.0196,-5.0255,-5.0913,-5.1229,-5.1229,-5.1229,-5.1229,-5.1229,-5.1229,-5.1229,-5.1229,-5.1229,-5.1229,-5.1229,-5.1229,-5.1229,-5.1229,-5.1229,-5.1229,-5.1229,-5.1229,-5.1229,-5.1229,-5.1229,-5.1229,-5.1229,-5.1229,-5.1229,-5.1229,-5.1229,-5.1229,-5.1229,-5.1229,-5.1738,-5.2396,-5.3054,-5.3743,-5.4192,-5.4192,-5.4192,-5.4192,-5.4192,-5.3025,-5.1947,-5.1289,-5.1229,-5.1229,-5.1229,-5.1229,-5.1229,-5.1229,-5.1229,-5.1229,-5.1229,-5.1229,-5.1229,-5.1229,-5.1229,-5.1229,-5.1229,-5.1229,-5.1558,-5.2187,-5.2217,-5.2935,-3.3423,-3.3085,0.0,-3.4456,0.0,0.0,0.0,-4.1182,0.0,0.0,-4.4706,-4.3479,-4.2572,0.0,0.0,0.0,0.0,0.0,0.0,0.0,0.0,0.0,0.0,0.0,0.0,0.0,0.0,0.0,0.0,0.0,0.0,-4.7878,-4.7878,-4.7878,-4.7878,-4.7878,-4.7878,-4.7878,-4.7878,-4.7878,-4.7878,-4.8386,-4.9299,-4.9299,-4.9299,-4.9329,-4.9942,-5.0196,-5.0255,-5.0913,-5.1229,-5.1229,-5.1229,-5.1229,-5.1229,-5.1229,-5.1229,-5.1229,-5.1229,-5.1229,-5.1229,-5.1229,-5.1229,-5.1229,-5.1229,-5.1229,-5.1229,-5.1229,-5.1229,-5.1229,-5.1229,-5.1229,-5.1229,-5.1229,-5.1229,-5.1229,-5.1229,-5.1229,-5.1229,-5.1229,-5.1738,-5.2247,-5.2456,-5.3054,-5.3503,-5.3503,-5.3503,-5.3324,-5.2845,-5.2456,-5.1947,-5.1289,-5.1229,-5.1229,-5.1229,-5.1229,-5.1229,-5.1229,-5.1229,-5.1229,-5.1229,-5.1229,-5.1229,-5.1229,-5.1229,-5.1229,-5.1229,-5.1229,-5.1558,-5.2217,-5.2665,-5.3354,-3.3694,-3.3829,0.0,-3.5726,-3.6691,-3.7991,-4.0931,0.0,0.0,0.0,0.0,-4.4347,-4.315,-4.3389,0.0,0.0,0.0,0.0,0.0,0.0,0.0,0.0,0.0,0.0,0.0,0.0,0.0,0.0,0.0,0.0,0.0,-4.7309,-4.7309,-4.7309,-4.7309,-4.7309,-4.7309,-4.7309,-4.7309,-4.7309,-4.7309,-4.7728,-4.8476,-4.8476,-4.8626,-4.8925,-4.9853,-5.0345,-5.0614,-5.1003,-5.1229,-5.1229,-5.1229,-5.1229,-5.1229,-5.1229,-5.1229,-5.1229,-5.1229,-5.1229,-5.1229,-5.1229,-5.1229,-5.1229,-5.1229,-5.1229,-5.1229,-5.1229,-5.1229,-5.1229,-5.1229,-5.1229,-5.1229,-5.1229,-5.1229,-5.1229,-5.1229,-5.1229,-5.1229,-5.1229,-5.1977,-5.2606,-5.2606,-5.3354,-5.3892,-5.3623,-5.3593,-5.3354,-5.2665,-5.2606,-5.2336,-5.1678,-5.1379,-5.1229,-5.1229,-5.1229,-5.1229,-5.1229,-5.1229,-5.1229,-5.1229,-5.1229,-5.1229,-5.1229,-5.1229,-5.1229,-5.1229,-5.1229,-5.1678,-5.2606,-5.3264,-5.4102,-3.3998,-3.4506,-3.515,-3.7517,-3.8476,0.0,-4.3434,-4.4766,-4.5244,-4.5364,0.0,-4.4646,-4.292,0.0,0.0,0.0,0.0,0.0,0.0,0.0,0.0,0.0,0.0,0.0,0.0,0.0,0.0,0.0,0.0,0.0,0.0,-4.7309,-4.7339,-4.7399,-4.7399,-4.7429,-4.7489,-4.7489,-4.7459,-4.7399,-4.7399,-4.7369,-4.7309,-4.7309,-4.7698,-4.8446,-4.9657,-5.0554,-5.1229,-5.1229,-5.1229,-5.1229,-5.1229,-5.1229,-5.1229,-5.1229,-5.1229,-5.1229,-5.1229,-5.1229,-5.1229,-5.1229,-5.1229,-5.1229,-5.1229,-5.1229,-5.1229,-5.1229,-5.1229,-5.1229,-5.1229,-5.1229,-5.1229,-5.1229,-5.1229,-5.1229,-5.1229,-5.1229,-5.1229,-5.1229,-5.2276,-5.3174,-5.3174,-5.4311,-5.497,-5.4311,-5.4162,-5.3892,-5.3264,-5.3144,-5.2875,-5.2276,-5.1618,-5.1229,-5.1229,-5.1229,-5.1229,-5.1229,-5.1229,-5.1229,-5.1229,-5.1229,-5.1229,-5.1229,-5.1229,-5.1259,-5.1319,-5.1319,-5.1977,-5.3294,-5.3982,-5.497,-3.3254,-3.4506,0.0,0.0,-3.967,-4.1709,-4.3807,-4.4436,-4.4825,-4.5873,-4.5274,-4.4407,0.0,0.0,0.0,0.0,0.0,0.0,0.0,0.0,0.0,0.0,0.0,0.0,0.0,0.0,0.0,0.0,0.0,0.0,-4.7309,-4.7309,-4.7549,-4.8057,-4.8087,-4.8327,-4.888,-4.888,-4.864,-4.8087,-4.8087,-4.7818,-4.7309,-4.7309,-4.7938,-4.9149,-4.9883,-5.0554,-5.1229,-5.1229,-5.1229,-5.1229,-5.1229,-5.1229,-5.1229,-5.1229,-5.1229,-5.1229,-5.1229,-5.1229,-5.1229,-5.1229,-5.1229,-5.1229,-5.1229,-5.1229,-5.1229,-5.1229,-5.1229,-5.1229,-5.1229,-5.1229,-5.1229,-5.1229,-5.1229,-5.1229,-5.1229,-5.1229,-5.1229,-5.1229,-5.2276,-5.3174,-5.3174,-5.4311,-5.497,-5.4311,-5.3743,-5.3354,-5.3204,-5.2725,-5.2366,-5.2217,-5.1618,-5.1229,-5.1229,-5.1229,-5.1229,-5.1229,-5.1229,-5.1229,-5.1229,-5.1229,-5.1229,-5.1229,-5.1229,-5.1468,-5.1977,-5.1977,-5.2665,-5.4012,-5.467,-5.5287,-3.322,0.0,0.0,-3.963,0.0,-4.3123,-4.3687,-4.3798,-4.4007,-4.4695,-4.4586,0.0,0.0,0.0,0.0,0.0,0.0,0.0,0.0,0.0,0.0,0.0,0.0,0.0,0.0,0.0,0.0,0.0,0.0,-4.7309,-4.7309,-4.7608,-4.7938,-4.8267,-4.8596,-4.897,-4.9299,-4.9,-4.8626,-4.8297,-4.7967,-4.7638,-4.7309,-4.7638,-4.8147,-4.888,-4.9823,-5.0242,-5.0301,-5.0631,-5.0704,-5.0704,-5.0704,-5.093,-5.1229,-5.1229,-5.1229,-5.1229,-5.1229,-5.1229,-5.1229,-5.1229,-5.1229,-5.1229,-5.1229,-5.1229,-5.1229,-5.1229,-5.1229,-5.1229,-5.1229,-5.1229,-5.1229,-5.1229,-5.1229,-5.1229,-5.1229,-5.1229,-5.1229,-5.1229,-5.2276,-5.3174,-5.3174,-5.4311,-5.5089,-5.473,-5.4371,-5.4132,-5.4132,-5.3264,-5.2665,-5.2665,-5.1798,-5.1229,-5.1229,-5.1229,-5.1229,-5.1229,-5.1229,-5.1229,-5.1229,-5.1229,-5.1229,-5.1229,-5.1229,-5.1528,-5.2187,-5.2187,-5.2905,-5.4221,-5.488,-5.5483,-3.3132,0.0,-3.801,-4.1757,-4.3273,0.0,-4.3386,-4.329,-4.329,-4.329,0.0,0.0,0.0,0.0,0.0,0.0,0.0,0.0,0.0,0.0,0.0,0.0,0.0,0.0,0.0,0.0,0.0,0.0,0.0,-4.7369,-4.7459,-4.7997,-4.8386,-4.8626,-4.9164,-4.9494,-4.9659,-4.8955,-4.8566,-4.8446,-4.7668,-4.7309,-4.7339,-4.7997,-4.8356,-4.8536,-4.9687,-5.0002,-4.9689,-5.0182,-5.0375,-5.0375,-5.0375,-5.0704,-5.1229,-5.1229,-5.1229,-5.1229,-5.1229,-5.1229,-5.1229,-5.1229,-5.1229,-5.1229,-5.1229,-5.1229,-5.1229,-5.1229,-5.1229,-5.1229,-5.1229,-5.1229,-5.1259,-5.1379,-5.1379,-5.1349,-5.1229,-5.1229,-5.1229,-5.1229,-5.2276,-5.3264,-5.3503,-5.4461,-5.5179,-5.5179,-5.5179,-5.5179,-5.5179,-5.4012,-5.3174,-5.3174,-5.2007,-5.1229,-5.1229,-5.1229,-5.1229,-5.1229,-5.1229,-5.1229,-5.1229,-5.1229,-5.1229,-5.1229,-5.1229,-5.1588,-5.2366,-5.2366,-5.3054,-5.4401,-5.5059,-5.5619,0.0,0.0,-3.8882,0.0,-4.2576,-4.2818,0.0,0.0,-4.329,0.0,0.0,0.0,0.0,0.0,0.0,0.0,0.0,0.0,0.0,0.0,0.0,0.0,0.0,0.0,0.0,0.0,0.0,0.0,-4.698,-4.7549,-4.8117,-4.8237,-4.8805,-4.9897,-5.0016,-5.0391,-5.096,-5.0255,-4.9703,-4.9179,-4.7908,-4.7309,-4.7339,-4.7997,-4.864,-4.9209,-4.9912,-5.0465,-5.096,-5.105,-5.1079,-5.1079,-5.1079,-5.1139,-5.1229,-5.1229,-5.1229,-5.1229,-5.1229,-5.1229,-5.1229,-5.1229,-5.1229,-5.1229,-5.1229,-5.1229,-5.1229,-5.1229,-5.1229,-5.1229,-5.1229,-5.1229,-5.1379,-5.1947,-5.2067,-5.1917,-5.1349,-5.1229,-5.1229,-5.1229,-5.2276,-5.3563,-5.473,-5.5059,-5.5179,-5.5179,-5.5179,-5.5179,-5.5179,-5.4012,-5.3174,-5.3174,-5.2007,-5.1229,-5.1229,-5.1229,-5.1229,-5.1229,-5.1229,-5.1229,-5.1229,-5.1229,-5.1229,-5.1229,-5.1229,-5.1828,-5.3054,-5.3054,-5.3743,-5.5089,-5.5718,-5.5723,-3.2419,-3.6084,-3.9221,0.0,-4.1921,-4.2365,-4.2256,0.0,0.0,0.0,0.0,0.0,0.0,0.0,0.0,0.0,0.0,0.0,0.0,0.0,0.0,0.0,0.0,0.0,0.0,0.0,0.0,0.0,-4.692,-4.7429,-4.7728,-4.8087,-4.8566,-4.9134,-4.9494,-4.9823,-5.0122,-4.9464,-4.8805,-4.8147,-4.7578,-4.7309,-4.7339,-4.7997,-4.8446,-4.8775,-4.9747,-5.0182,-5.0152,-5.0511,-5.0614,-5.0614,-5.0614,-5.0853,-5.1229,-5.1229,-5.1229,-5.1229,-5.1229,-5.1229,-5.1229,-5.1229,-5.1229,-5.1229,-5.1229,-5.1229,-5.1229,-5.1229,-5.1229,-5.1319,-5.1678,-5.1768,-5.1947,-5.2606,-5.2755,-5.2665,-5.2366,-5.2306,-5.2426,-5.2815,-5.3354,-5.4072,-5.5029,-5.5179,-5.5179,-5.5179,-5.5179,-5.5179,-5.5179,-5.4012,-5.3174,-5.3174,-5.2007,-5.1379,-5.1738,-5.1768,-5.1917,-5.2306,-5.2306,-5.2306,-5.2306,-5.2306,-5.2306,-5.2306,-5.1588,-5.1858,-5.3174,-5.3174,-5.3862,-5.5209,-5.5478,-5.5293,0.0,0.0,-3.7939,-3.9556,-4.0636,-4.1254,0.0,0.0,0.0,0.0,0.0,0.0,0.0,0.0,0.0,0.0,0.0,0.0,0.0,0.0,0.0,0.0,0.0,0.0,0.0,0.0,0.0,0.0,-4.6411,-4.686,-4.704,-4.7519,-4.7878,-4.8027,-4.8686,-4.906,-4.906,-4.8686,-4.8207,-4.7549,-4.7549,-4.7549,-4.7578,-4.8237,-4.8536,-4.8596,-4.9733,-5.0062,-4.9793,-5.0301,-5.0435,-5.0435,-5.0435,-5.0734,-5.1229,-5.1229,-5.1229,-5.1229,-5.1229,-5.1229,-5.1229,-5.1229,-5.1229,-5.1229,-5.1229,-5.1229,-5.1259,-5.1409,-5.1468,-5.1618,-5.2276,-5.2456,-5.2606,-5.3294,-5.3443,-5.3384,-5.3204,-5.3174,-5.3384,-5.4072,-5.4221,-5.4431,-5.5089,-5.5179,-5.5179,-5.5179,-5.5179,-5.5179,-5.5179,-5.4012,-5.3174,-5.3174,-5.2157,-5.1678,-5.2157,-5.2516,-5.2845,-5.3144,-5.3354,-5.3354,-5.3204,-5.3174,-5.3174,-5.3174,-5.2217,-5.2229,-5.3345,-5.3267,-5.3764,-5.4875,-5.4824,-5.4391,0.0,-3.2031,0.0,-3.7188,-3.82,0.0,0.0,0.0,0.0,0.0,0.0,0.0,0.0,0.0,0.0,0.0,0.0,0.0,0.0,0.0,0.0,0.0,0.0,0.0,0.0,0.0,0.0,0.0,-4.5035,-4.5693,-4.6352,-4.6369,-4.6711,-4.7339,-4.7997,-4.8327,-4.8327,-4.897,-4.894,-4.8237,-4.8237,-4.8237,-4.8267,-4.897,-4.9269,-4.9299,-4.9942,-5.0524,-5.1109,-5.1169,-5.1169,-5.1169,-5.1169,-5.1199,-5.1229,-5.1229,-5.1229,-5.1229,-5.1229,-5.1229,-5.1229,-5.1229,-5.1229,-5.1229,-5.1229,-5.1229,-5.1349,-5.1977,-5.2157,-5.2306,-5.2965,-5.3144,-5.3294,-5.3982,-5.4162,-5.3982,-5.3324,-5.3174,-5.3384,-5.4072,-5.4221,-5.4431,-5.5089,-5.5179,-5.5179,-5.5179,-5.5179,-5.5179,-5.5179,-5.4012,-5.3174,-5.3174,-5.2576,-5.2157,-5.2187,-5.3384,-5.3832,-5.3204,-5.3803,-5.3862,-5.3204,-5.3174,-5.3174,-5.3174,-5.3114,-5.3316,-5.3783,-5.3453,-5.3553,-5.3971,-5.371,-5.2972,0.0,0.0,0.0,-3.3723,-3.509,-3.6229,0.0,0.0,0.0,0.0,0.0,0.0,0.0,0.0,0.0,0.0,0.0,0.0,0.0,0.0,0.0,0.0,0.0,0.0,0.0,0.0,0.0,0.0,0.0,-4.5394,-4.5663,-4.5663,-4.5783,-4.5992,-4.6681,-4.7219,-4.7638,-4.7908,-4.7908,-4.7668,-4.7668,-4.7668,-4.7668,-4.8327,-4.891,-4.9329,-4.9942,-5.0554,-5.1229,-5.1229,-5.1229,-5.1169,-5.0704,-5.0794,-5.1169,-5.0704,-5.0794,-5.1229,-5.1229,-5.1229,-5.1229,-5.1229,-5.1229,-5.1229,-5.1229,-5.1498,-5.1887,-5.2127,-5.2516,-5.2995,-5.3653,-5.3832,-5.4012,-5.467,-5.485,-5.476,-5.4521,-5.4461,-5.4551,-5.479,-5.485,-5.491,-5.5149,-5.5179,-5.5179,-5.5179,-5.5179,-5.5179,-5.5179,-5.4401,-5.3832,-5.3832,-5.3234,-5.3025,-5.3443,-5.3922,-5.4281,-5.4461,-5.47,-5.473,-5.4491,-5.4461,-5.4411,-5.4241,-5.403,-5.379,-5.3512,-5.2793,-5.2567,-5.2697,-5.2026,-5.1292,-2.6475,0.0,0.0,0.0,0.0,0.0,0.0,0.0,0.0,0.0,0.0,0.0,0.0,0.0,0.0,0.0,0.0,0.0,0.0,0.0,0.0,0.0,0.0,0.0,0.0,0.0,0.0,0.0,0.0,0.0,-4.4646,-4.4646,-4.4825,-4.5274,-4.5753,-4.6411,-4.7309,-4.7519,-4.7638,-4.7638,-4.7638,-4.7638,-4.7638,-4.8087,-4.8506,-4.8985,-4.9853,-5.0554,-5.1229,-5.1229,-5.1229,-5.1139,-5.0435,-5.0584,-5.1139,-5.0435,-5.0614,-5.1229,-5.1229,-5.1229,-5.1229,-5.1229,-5.1229,-5.1229,-5.1229,-5.1678,-5.2247,-5.2456,-5.3025,-5.3683,-5.4371,-5.4551,-5.464,-5.5089,-5.5179,-5.5179,-5.5179,-5.5179,-5.5179,-5.5179,-5.5179,-5.5179,-5.5179,-5.5179,-5.5179,-5.5179,-5.5179,-5.5179,-5.5179,-5.461,-5.4221,-5.4221,-5.3803,-5.3713,-5.4162,-5.461,-5.497,-5.5179,-5.5598,-5.5748,-5.5538,-5.5718,-5.5684,-5.5271,-5.456,-5.3739,-5.2914,-5.2157,-5.1658,-5.1401,-5.0546,-4.9818,0.0,0.0,0.0,0.0,0.0,0.0,0.0,0.0,0.0,0.0,0.0,0.0,0.0,0.0,0.0,0.0,0.0,0.0,0.0,0.0,0.0,0.0,0.0,0.0,0.0,0.0,0.0,0.0,-4.329,-4.329,-4.329,-4.329,-4.3888,-4.5244,-4.5304,-4.5933,-4.7309,-4.7938,-4.8267,-4.8267,-4.8267,-4.8267,-4.8267,-4.8267,-4.8267,-4.8356,-4.9643,-5.0524,-5.1199,-5.1199,-5.1229,-5.1139,-5.0435,-5.0584,-5.1139,-5.0405,-5.0584,-5.1229,-5.1229,-5.1229,-5.1229,-5.1229,-5.1229,-5.1229,-5.1229,-5.1678,-5.2366,-5.2995,-5.3683,-5.4371,-5.5029,-5.5179,-5.5179,-5.5179,-5.5179,-5.5179,-5.5179,-5.5179,-5.5179,-5.5179,-5.5179,-5.5179,-5.5179,-5.5179,-5.5179,-5.5179,-5.5179,-5.5179,-5.5179,-5.464,-5.4251,-5.4251,-5.4251,-5.4251,-5.4251,-5.5418,-5.5867,-5.5239,-5.6376,-5.6795,-5.6248,-5.6765,-5.6832,-5.622,-5.4662,-5.3317,-5.2156,-5.1544,-5.0795,-4.9899,-4.9301,-4.8553,-2.4057,0.0,0.0,0.0,0.0,0.0,0.0,0.0,0.0,0.0,0.0,0.0,0.0,0.0,0.0,0.0,0.0,0.0,0.0,0.0,0.0,0.0,0.0,0.0,0.0,0.0,0.0,0.0,-4.329,-4.329,-4.329,-4.329,-4.3888,-4.5244,-4.5304,-4.5933,-4.7309,-4.7489,-4.7578,-4.7578,-4.7578,-4.7578,-4.7578,-4.7578,-4.7848,-4.8297,-4.8656,-4.9464,-5.0495,-5.102,-5.1229,-5.1109,-4.9972,-5.0212,-5.1079,-4.9942,-5.0242,-5.1229,-5.1229,-5.1229,-5.1229,-5.1229,-5.1229,-5.1229,-5.1229,-5.2007,-5.2935,-5.3144,-5.4012,-5.497,-5.5149,-5.5179,-5.5179,-5.5179,-5.5179,-5.5179,-5.5179,-5.5179,-5.5179,-5.5179,-5.5179,-5.5179,-5.5179,-5.5179,-5.5179,-5.5179,-5.5179,-5.5179,-5.5179,-5.5029,-5.491,-5.491,-5.491,-5.491,-5.491,-5.5239,-5.5388,-5.5209,-5.5957,-5.6346,-5.6248,-5.6765,-5.6727,-5.5928,-5.4581,-5.3051,-5.1252,-4.9916,-4.8961,-4.8321,-4.7468,-4.7163,-2.4094,0.0,0.0,0.0,0.0,0.0,0.0,-2.922,0.0,0.0,0.0,0.0,0.0,0.0,0.0,0.0,0.0,0.0,0.0,0.0,0.0,0.0,0.0,0.0,0.0,-4.314,-4.329,-4.329,-4.329,-4.329,-4.329,-4.329,-4.3888,-4.5244,-4.5304,-4.5933,-4.7309,-4.7309,-4.7309,-4.7309,-4.7309,-4.7309,-4.7309,-4.7309,-4.7519,-4.7908,-4.8177,-4.8716,-4.9494,-5.0375,-5.0913,-5.1079,-4.9793,-5.0062,-5.105,-4.9763,-5.0092,-5.1229,-5.1229,-5.1229,-5.1229,-5.1229,-5.1229,-5.1229,-5.1229,-5.2127,-5.3174,-5.3174,-5.4162,-5.5179,-5.5179,-5.5179,-5.5179,-5.5179,-5.5179,-5.5179,-5.5179,-5.5179,-5.5179,-5.5179,-5.5179,-5.5179,-5.5179,-5.5179,-5.5179,-5.5179,-5.5179,-5.5179,-5.5179,-5.5179,-5.5179,-5.5179,-5.5448,-5.5478,-5.5209,-5.5448,-5.5478,-5.5209,-5.6047,-5.6555,-5.6555,-5.7453,-5.7452,-5.6475,-5.4657,-5.2386,-4.968,-4.8865,-4.8003,-4.7112,-4.6768,-4.6828,-2.4747,-2.4792,0.0,0.0,0.0,0.0,-2.5681,-2.7182,-2.8914,0.0,0.0,0.0,0.0,0.0,0.0,0.0,0.0,0.0,0.0,0.0,0.0,0.0,0.0,0.0,-4.2381,-4.288,-4.323,-4.329,-4.329,-4.329,-4.329,-4.329,-4.3888,-4.5244,-4.5304,-4.5933,-4.7309,-4.7249,-4.7249,-4.7309,-4.7219,-4.7249,-4.7309,-4.7309,-4.7309,-4.7339,-4.7908,-4.8207,-4.8386,-4.9613,-5.0465,-5.099,-4.9763,-5.0062,-5.105,-4.9763,-5.0092,-5.1229,-5.1229,-5.1229,-5.1229,-5.1229,-5.1229,-5.1229,-5.1229,-5.2127,-5.3204,-5.3354,-5.4281,-5.5179,-5.5179,-5.5179,-5.5179,-5.5179,-5.5179,-5.5179,-5.5179,-5.5179,-5.5179,-5.5179,-5.5179,-5.5179,-5.5179,-5.5179,-5.5179,-5.5179,-5.5179,-5.5179,-5.5179,-5.5179,-5.5179,-5.5128,-5.5667,-5.5756,-5.5138,-5.5667,-5.5756,-5.5188,-5.6316,-5.7004,-5.7004,-5.8201,-5.8317,-5.71,-5.4483,-5.1362,-4.7832,-4.8237,-4.7777,-4.6502,-4.7004,-4.7193,-2.5405,-2.5405,-2.5309,-2.4815,0.0,0.0,-2.4176,-2.5205,-2.6477,0.0,0.0,0.0,0.0,0.0,0.0,0.0,0.0,0.0,0.0,0.0,0.0,0.0,0.0,0.0,-4.2351,-4.253,-4.2761,-4.326,-4.329,-4.329,-4.329,-4.329,-4.3888,-4.5244,-4.5304,-4.5933,-4.7309,-4.677,-4.677,-4.7309,-4.677,-4.68,-4.7309,-4.7309,-4.7309,-4.7309,-4.7429,-4.7788,-4.8356,-4.9134,-4.9853,-5.0315,-4.9583,-5.0062,-5.105,-4.9763,-5.0092,-5.1229,-5.1229,-5.1229,-5.1229,-5.1229,-5.1229,-5.1229,-5.1229,-5.2127,-5.3414,-5.4491,-5.4999,-5.5179,-5.5179,-5.5179,-5.5179,-5.5179,-5.5179,-5.5179,-5.5179,-5.5179,-5.5179,-5.5179,-5.5179,-5.5179,-5.5179,-5.5179,-5.5179,-5.5179,-5.5179,-5.5179,-5.5179,-5.5179,-5.5128,-5.4905,-5.476,-5.4606,-5.4487,-5.4576,-5.4708,-5.4854,-5.5825,-5.6346,-5.6346,-5.7064,-5.6954,-5.5765,-5.2398,-4.9568,-4.728,-4.7767,-4.7867,-4.7606,-4.7707,-4.8008,-2.7111,-2.6841,-2.6422,-2.5764,0.0,0.0,0.0,0.0,0.0,0.0,0.0,0.0,0.0,0.0,0.0,0.0,0.0,0.0,0.0,0.0,0.0,0.0,0.0,0.0,-4.1354,-4.1722,-4.2013,-4.2342,-4.2372,-4.2491,-4.2821,-4.2851,-4.3449,-4.4766,-4.5125,-4.5603,-4.6292,-4.6322,-4.6501,-4.68,-4.6429,-4.6681,-4.7309,-4.7309,-4.7309,-4.7309,-4.7309,-4.7489,-4.7848,-4.8506,-4.8985,-4.9254,-4.9299,-4.9853,-5.0554,-4.9643,-5.0092,-5.1229,-5.1229,-5.1229,-5.1229,-5.1229,-5.1229,-5.1229,-5.1229,-5.2127,-5.3384,-5.4431,-5.494,-5.5179,-5.5179,-5.5179,-5.5179,-5.5179,-5.5179,-5.5179,-5.5179,-5.5179,-5.5179,-5.5179,-5.5179,-5.5179,-5.5179,-5.5179,-5.5179,-5.5179,-5.5179,-5.5179,-5.5179,-5.5179,-5.5027,-5.459,-5.4309,-5.3972,-5.3681,-5.4235,-5.4533,-5.434,-5.5768,-5.6496,-5.6248,-5.6765,-5.6084,-5.4005,-5.1595,-4.9427,-4.7531,-4.7782,-4.7631,-4.7129,-4.7657,-4.8058,0.0,0.0,0.0,0.0,0.0,-2.4575,0.0,0.0,0.0,0.0,0.0,0.0,0.0,0.0,0.0,0.0,0.0,0.0,0.0,0.0,0.0,0.0,0.0,0.0,-4.0187,-4.0816,-4.1205,-4.1205,-4.1205,-4.1572,-4.2351,-4.241,-4.301,-4.4257,-4.4825,-4.5155,-4.5304,-4.5723,-4.601,-4.6279,-4.6202,-4.6531,-4.7309,-4.7309,-4.7309,-4.7309,-4.7309,-4.7309,-4.7369,-4.8027,-4.8207,-4.8147,-4.888,-4.9553,-5.0106,-4.9494,-5.0092,-5.1229,-5.1229,-5.1229,-5.1229,-5.1229,-5.1229,-5.1229,-5.1379,-5.2157,-5.3144,-5.3982,-5.4581,-5.5029,-5.5149,-5.5179,-5.5179,-5.5179,-5.5179,-5.5179,-5.5179,-5.5179,-5.5179,-5.5179,-5.5179,-5.5179,-5.5179,-5.5179,-5.5179,-5.5158,-5.5078,-5.5027,-5.4976,-5.4926,-5.459,-5.3993,-5.3584,-5.3188,-5.273,-5.3697,-5.4248,-5.3873,-5.5671,-5.6496,-5.5966,-5.6073,-5.4869,-5.2063,-5.0874,-4.9385,-4.7606,-4.7606,-4.7255,-4.6627,-4.7506,-4.7958,0.0,0.0,0.0,0.0,-2.6033,0.0,0.0,0.0,0.0,0.0,0.0,0.0,0.0,0.0,0.0,0.0,0.0,0.0,0.0,0.0,0.0,0.0,0.0,0.0,0.0,-4.0127,-4.0516,-4.0516,-4.0516,-4.1055,-4.2321,-4.241,-4.301,-4.4257,-4.4377,-4.4706,-4.5274,-4.4796,-4.5125,-4.6279,-4.5693,-4.6082,-4.7309,-4.7309,-4.7309,-4.7309,-4.7309,-4.7309,-4.7369,-4.8027,-4.7938,-4.7489,-4.8147,-4.9164,-5.0106,-4.9494,-5.0092,-5.1229,-5.1229,-5.1229,-5.1229,-5.1229,-5.1229,-5.1319,-5.1917,-5.2187,-5.2576,-5.3862,-5.4251,-5.4461,-5.5029,-5.5179,-5.5179,-5.5179,-5.5179,-5.5179,-5.5179,-5.5179,-5.5179,-5.5179,-5.5179,-5.5179,-5.5179,-5.5179,-5.5128,-5.4905,-5.459,-5.4304,-5.4075,-5.3815,-5.3395,-5.2516,-5.195,-5.1568,-5.1512,-5.2087,-5.2734,-5.3471,-5.4738,-5.5287,-5.4943,-5.354,-5.1982,-5.0204,-4.9001,-4.7766,-4.6502,-4.6502,-4.6928,-4.7732,-4.7857,-4.8184,0.0,0.0,0.0,0.0,0.0,0.0,-2.3909,0.0,-2.4186,0.0,0.0,0.0,0.0,0.0,0.0,0.0,0.0,0.0,0.0,0.0,0.0,0.0,0.0,0.0,0.0,0.0,0.0,0.0,-3.8123,-3.902,-4.1115,-4.1632,-4.2402,-4.3678,-4.4107,-4.4257,-4.4167,-4.4257,-4.4796,-4.5723,-4.5424,-4.5992,-4.7309,-4.7309,-4.7309,-4.7309,-4.7309,-4.7309,-4.7339,-4.7608,-4.7549,-4.7339,-4.7608,-4.8506,-4.9643,-4.9419,-5.0092,-5.1229,-5.1229,-5.1229,-5.1229,-5.1229,-5.1229,-5.1259,-5.1558,-5.1887,-5.2396,-5.3354,-5.3892,-5.4371,-5.5029,-5.5179,-5.5179,-5.5179,-5.5179,-5.5179,-5.5179,-5.5179,-5.5179,-5.5179,-5.5179,-5.5128,-5.5006,-5.5108,-5.5027,-5.459,-5.3964,-5.3361,-5.2939,-5.2269,-5.162,-5.0934,-5.0126,-4.9816,-5.0237,-5.1266,-5.2204,-5.2943,-5.4045,-5.4406,-5.3756,-5.2434,-5.0879,-4.9106,-4.8294,-4.7349,-4.6301,-4.6301,-4.6527,-4.6979,-4.7305,-4.7757,-3.178,0.0,0.0,0.0,0.0,0.0,0.0,0.0,0.0,0.0,0.0,0.0,0.0,0.0,0.0,0.0,0.0,0.0,0.0,0.0,0.0,0.0,0.0,0.0,0.0,0.0,0.0,0.0,0.0,-3.7375,-3.9978,-4.0756,-4.1713,-4.303,-4.3718,-4.3768,-4.329,-4.3768,-4.4466,-4.5304,-4.5304,-4.5992,-4.7309,-4.7309,-4.7309,-4.7309,-4.7309,-4.7309,-4.7309,-4.7309,-4.7309,-4.7309,-4.7309,-4.8117,-4.9299,-4.9299,-5.0092,-5.1229,-5.1229,-5.1229,-5.1229,-5.1229,-5.1349,-5.1498,-5.1498,-5.1947,-5.2606,-5.3264,-5.3832,-5.4371,-5.5029,-5.5179,-5.5179,-5.5179,-5.5179,-5.5179,-5.5179,-5.5179,-5.5179,-5.5179,-5.5179,-5.5078,-5.4722,-5.4824,-5.4743,-5.4149,-5.3337,-5.2619,-5.2054,-5.1264,-5.049,-4.9872,-4.9076,-4.8731,-4.9244,-5.0479,-5.1766,-5.3025,-5.3785,-5.3808,-5.3045,-5.1811,-5.0322,-4.8558,-4.7886,-4.7172,-4.6301,-4.6301,-4.6301,-4.6326,-4.6728,-4.728,0.0,0.0,0.0,-2.7914,0.0,0.0,0.0,0.0,-2.4784,0.0,0.0,0.0,0.0,0.0,0.0,0.0,0.0,0.0,0.0,0.0,0.0,0.0,0.0,0.0,0.0,0.0,0.0,0.0,-3.5549,0.0,-3.9284,-4.0068,-4.1025,-4.2381,-4.303,-4.3319,-4.329,-4.3319,-4.3977,-4.5304,-4.5304,-4.5992,-4.7309,-4.7309,-4.7309,-4.7309,-4.7309,-4.7309,-4.7309,-4.7309,-4.7309,-4.7309,-4.7309,-4.8117,-4.9299,-4.9299,-5.0092,-5.1229,-5.1229,-5.1229,-5.1229,-5.1229,-5.1648,-5.2157,-5.2157,-5.2636,-5.3294,-5.3982,-5.4192,-5.4371,-5.5029,-5.5179,-5.5179,-5.5179,-5.5179,-5.5179,-5.5179,-5.5179,-5.5179,-5.5179,-5.5179,-5.5027,-5.4406,-5.4304,-5.4149,-5.3605,-5.2783,-5.2139,-5.1841,-5.1293,-5.0572,-4.967,-4.9014,-4.8611,-4.8721,-4.9472,-5.1182,-5.4068,-5.4045,-5.3629,-5.302,-5.1649,-5.0208,-4.8642,-4.7652,-4.6934,-4.6301,-4.6301,-4.6301,-4.6301,-4.6326,-4.6903,0.0,0.0,-3.0614,-2.9744,0.0,0.0,0.0,0.0,0.0,0.0,0.0,0.0,0.0,0.0,0.0,0.0,0.0,0.0,0.0,0.0,0.0,0.0,0.0,0.0,0.0,0.0,0.0,0.0,-3.3933,0.0,-3.7943,-3.914,-4.0546,-4.2351,-4.262,-4.291,-4.329,-4.329,-4.3947,-4.5304,-4.5304,-4.5992,-4.7309,-4.7309,-4.7309,-4.7309,-4.7309,-4.7309,-4.7309,-4.7309,-4.7309,-4.7309,-4.7309,-4.8117,-4.9299,-4.9299,-5.0092,-5.1229,-5.1229,-5.1229,-5.1289,-5.1738,-5.2007,-5.2276,-5.2725,-5.2995,-5.3324,-5.4012,-5.4221,-5.4321,-5.4827,-5.4773,-5.459,-5.459,-5.459,-5.4641,-5.4875,-5.5078,-5.5179,-5.5179,-5.5179,-5.4976,-5.4178,-5.3361,-5.2832,-5.2677,-5.1837,-5.1209,-5.1155,-5.0906,-5.0518,-4.9899,-4.9019,-4.8558,-4.8611,-4.9616,-5.1155,-5.3308,-5.3337,-5.3232,-5.2992,-5.1839,-5.0349,-4.8558,-4.7886,-4.7291,-4.6853,-4.6853,-4.7029,-4.738,-4.738,-4.7556,-3.4143,-3.3245,0.0,-3.1689,-3.0582,0.0,-2.7949,0.0,0.0,0.0,0.0,0.0,0.0,0.0,0.0,0.0,0.0,0.0,0.0,0.0,0.0,0.0,0.0,0.0,0.0,0.0,-3.178,-3.2437,-3.2916,0.0,0.0,-3.7973,-3.9619,-4.1632,-4.2141,-4.2671,-4.329,-4.329,-4.3947,-4.5304,-4.5304,-4.5992,-4.7309,-4.7309,-4.7309,-4.7309,-4.7309,-4.7309,-4.7309,-4.7309,-4.7429,-4.7668,-4.7668,-4.8446,-4.9583,-4.9389,-5.0092,-5.1229,-5.1229,-5.1229,-5.1319,-5.1977,-5.2366,-5.2665,-5.3354,-5.3713,-5.3982,-5.4431,-5.4551,-5.454,-5.4603,-5.42,-5.386,-5.3808,-5.386,-5.3964,-5.4414,-5.4875,-5.5179,-5.5179,-5.5179,-5.4875,-5.3919,-5.2537,-5.1701,-5.203,-5.1292,-5.0823,-5.11,-5.1292,-5.1099,-5.0489,-4.9448,-4.8647,-4.8294,-4.9388,-5.0823,-5.2591,-5.2886,-5.3126,-5.3308,-5.2218,-5.0768,-4.8877,-4.8387,-4.7838,-4.7068,-4.733,-4.7581,-4.7908,-4.8109,-4.8209]},{"header":{"parameterUnit":"m.s-1","parameterCategory":1,"la1":30.6,"la2":29.2853,"lo1":-89.7004,"lo2":-87.6739,"dy":0.0162,"dx":0.0183,"nx":112,"ny":82,"refTime":"2026-03-28T00:00:00:Z","depth":0,"parameterNumber":3,"parameterNumberName":"V-component_of_WINDS"},"data":[0.0,0.0,0.0,0.0,0.0,0.0,0.0,0.0,0.0,0.0,0.0,0.0,0.0,0.0,0.0,0.0,0.0,0.0,0.0,0.0,0.0,0.0,0.0,0.0,0.0,0.0,0.0,0.0,0.0,0.0,0.0,0.0,0.0,0.0,0.0,0.0,0.0,0.0,0.0,0.0,0.0,0.0,0.0,0.0,0.0,0.0,0.0,0.0,0.0,0.0,0.0,0.0,0.0,0.0,0.0,0.0,0.0,0.0,0.0,0.0,0.0,0.0,0.0,0.0,0.0,0.0,0.0,0.0,0.0,0.0,0.0,0.0,0.0,0.0,0.0,0.0,0.0,0.0,0.0,0.0,0.0,0.0,0.0,0.0,0.0,0.0,0.0,0.0,0.0,0.0,0.0,2.7305,3.0781,3.2539,3.1699,3.041,2.8594,2.6044,0.0,0.0,0.0,0.0,0.0,0.0,0.0,0.0,0.0,0.0,0.0,0.0,0.0,0.0,0.0,0.0,0.0,0.0,0.0,0.0,0.0,0.0,0.0,0.0,0.0,0.0,0.0,0.0,0.0,0.0,0.0,0.0,0.0,0.0,0.0,0.0,0.0,0.0,0.0,0.0,0.0,0.0,0.0,0.0,0.0,0.0,0.0,0.0,0.0,0.0,0.0,0.0,0.0,0.0,0.0,0.0,0.0,0.0,0.0,0.0,0.0,0.0,0.0,0.0,0.0,0.0,0.0,0.0,0.0,0.0,0.0,0.0,0.0,0.0,0.0,0.0,0.0,0.0,0.0,0.0,0.0,0.0,0.0,0.0,0.0,0.0,0.0,0.0,0.0,0.0,0.0,0.0,0.0,0.0,0.0,0.0,0.0,0.0,0.0,0.0,0.0,0.0,0.0,0.0,2.5391,2.9824,3.2109,3.2988,3.2148,3.0859,2.916,2.6953,0.0,0.0,0.0,0.0,0.0,0.0,0.0,0.0,0.0,0.0,0.0,0.0,0.0,0.0,0.0,0.0,0.0,0.0,0.0,0.0,0.0,0.0,0.0,0.0,0.0,0.0,0.0,0.0,0.0,0.0,0.0,0.0,0.0,0.0,0.0,0.0,0.0,0.0,0.0,0.0,0.0,0.0,0.0,0.0,0.0,0.0,0.0,0.0,0.0,0.0,0.0,0.0,0.0,0.0,0.0,0.0,0.0,0.0,0.0,0.0,0.0,0.0,0.0,0.0,0.0,0.0,0.0,0.0,0.0,0.0,0.0,0.0,0.0,0.0,0.0,0.0,0.0,0.0,0.0,0.0,0.0,0.0,0.0,0.0,0.0,0.0,0.0,0.0,0.0,0.0,0.0,0.0,0.0,0.0,0.0,0.0,0.0,0.0,0.0,0.0,0.0,0.0,0.0,2.4844,2.7773,3.0898,3.2344,3.2734,3.1894,3.0391,2.8594,2.6415,2.3301,0.0,0.0,0.0,0.0,0.0,0.0,0.0,0.0,0.0,0.0,0.0,0.0,0.0,0.0,0.0,0.0,0.0,0.0,0.0,0.0,0.0,0.0,0.0,0.0,0.0,0.0,0.0,0.0,0.0,0.0,0.0,0.0,0.0,0.0,0.0,0.0,0.0,0.0,0.0,0.0,0.0,0.0,0.0,0.0,0.0,0.0,0.0,0.0,0.0,0.0,0.0,0.0,0.0,0.0,0.0,0.0,0.0,0.0,0.0,0.0,0.0,0.0,0.0,0.0,0.0,0.0,0.0,0.0,0.0,0.0,0.0,0.0,0.0,0.0,0.0,0.0,0.0,0.0,0.0,0.0,0.0,0.0,0.0,0.0,0.0,0.0,0.0,0.0,0.0,0.0,0.0,0.0,0.0,0.0,0.0,0.0,0.0,0.0,0.0,0.0,0.0,0.0,2.75,2.9824,3.1348,3.2383,3.2519,3.1465,2.9687,2.7715,2.5518,2.2457,0.0,0.0,0.0,0.0,0.0,0.0,0.0,0.0,0.0,0.0,0.0,0.0,0.0,0.0,0.0,0.0,0.0,0.0,0.0,0.0,0.0,0.0,0.0,0.0,0.0,0.0,0.0,0.0,0.0,0.0,0.0,0.0,0.0,0.0,0.0,0.0,0.0,0.0,0.0,0.0,0.0,0.0,0.0,0.0,0.0,0.0,0.0,0.0,0.0,0.0,0.0,0.0,0.0,0.0,0.0,0.0,0.0,0.0,0.0,0.0,0.0,0.0,0.0,0.0,0.0,0.0,0.0,0.0,0.0,0.0,0.0,0.0,0.0,0.0,0.0,0.0,0.0,0.0,0.0,0.0,0.0,0.0,0.0,0.0,0.0,0.0,0.0,0.0,0.0,0.0,0.0,0.0,0.0,0.0,0.0,0.0,0.0,0.0,0.0,0.0,0.0,0.0,2.8047,3.0488,3.1426,3.2637,3.2715,3.1074,2.8984,2.6816,2.4648,2.1309,0.0,0.0,0.0,0.0,0.0,0.0,0.0,0.0,0.0,0.0,0.0,0.0,0.0,0.0,0.0,0.0,0.0,0.0,0.0,0.0,0.0,0.0,0.0,0.0,0.0,0.0,0.0,0.0,0.0,0.0,0.0,0.0,0.0,0.0,0.0,0.0,0.0,0.0,0.0,0.0,0.0,0.0,0.0,0.0,0.0,0.0,0.0,0.0,0.0,0.0,0.0,0.0,0.0,0.0,0.0,0.0,0.0,0.0,0.0,0.0,0.0,0.0,0.0,0.0,0.0,0.0,0.0,0.0,0.0,0.0,0.0,0.0,0.0,0.0,0.0,0.0,0.0,0.0,0.0,0.0,0.0,0.0,0.0,0.0,0.0,0.0,0.0,0.0,0.0,0.0,0.0,0.0,0.0,0.0,0.0,0.0,0.0,0.0,0.0,0.0,0.0,0.0,2.7851,3.0254,0.0,3.2422,3.2405,3.0836,2.8818,2.6606,2.4173,0.0,0.0,0.0,0.0,0.0,0.0,0.0,0.0,0.0,0.0,0.0,0.0,0.0,0.0,0.0,0.0,0.0,0.0,0.0,0.0,0.0,0.0,0.0,0.0,0.0,0.0,0.0,0.0,0.0,0.0,0.0,0.0,0.0,0.0,0.0,0.0,0.0,0.0,0.0,0.0,0.0,0.0,0.0,0.0,0.0,0.0,0.0,0.0,0.0,0.0,0.0,0.0,0.0,0.0,0.0,0.0,0.0,0.0,0.0,0.0,0.0,0.0,0.0,0.0,0.0,0.0,0.0,0.0,0.0,0.0,0.0,0.0,0.0,0.0,0.0,0.0,0.0,0.0,0.0,0.0,0.0,0.0,0.0,0.0,0.0,0.0,0.0,0.0,0.0,0.0,0.0,0.0,0.0,0.0,0.0,0.0,0.0,0.0,0.0,0.0,0.0,0.0,2.4492,2.7617,3.0019,0.0,3.2207,3.2271,3.0866,2.8898,2.6628,2.4039,0.0,0.0,0.0,0.0,0.0,0.0,0.0,0.0,0.0,0.0,0.0,0.0,0.0,0.0,0.0,0.0,0.0,0.0,0.0,0.0,0.0,0.0,0.0,0.0,0.0,0.0,0.0,0.0,0.0,0.0,0.0,0.0,0.0,0.0,0.0,0.0,0.0,0.0,0.0,0.0,0.0,0.0,0.0,0.0,0.0,0.0,0.0,0.0,0.0,0.0,0.0,0.0,0.0,0.0,0.0,0.0,0.0,0.0,0.0,0.0,0.0,0.0,0.0,0.0,0.0,0.0,0.0,0.0,0.0,0.0,0.0,0.0,0.0,0.0,0.0,0.0,0.0,0.0,0.0,0.0,0.0,0.0,0.0,0.0,0.0,0.0,0.0,0.0,0.0,0.0,0.0,0.0,0.0,0.0,0.0,0.0,0.0,0.0,0.0,0.0,0.0,0.0,2.4082,2.7493,2.9959,3.0839,3.2031,3.2332,3.1208,2.9219,2.6889,0.0,0.0,0.0,0.0,0.0,0.0,0.0,0.0,0.0,0.0,0.0,0.0,0.0,0.0,0.0,0.0,0.0,0.0,0.0,0.0,0.0,0.0,0.0,0.0,0.0,0.0,0.0,0.0,0.0,0.0,0.0,0.0,0.0,0.0,0.0,0.0,0.0,0.0,0.0,0.0,0.0,0.0,0.0,0.0,0.0,0.0,0.0,0.0,0.0,0.0,0.0,0.0,0.0,0.0,0.0,0.0,0.0,0.0,0.0,0.0,0.0,0.0,0.0,0.0,0.0,0.0,0.0,0.0,0.0,0.0,0.0,0.0,0.0,0.0,0.0,0.0,0.0,0.0,0.0,0.0,0.0,0.0,0.0,0.0,0.0,0.0,0.0,0.0,0.0,0.0,0.0,0.0,0.0,0.0,0.0,0.0,0.0,0.0,0.0,0.0,0.0,0.0,0.0,2.4896,2.8503,3.0994,3.1604,3.315,3.3569,3.2167,3.0906,2.8932,2.6027,0.0,0.0,0.0,0.0,0.0,0.0,0.0,0.0,0.0,0.0,0.0,0.0,0.0,0.0,0.0,0.0,0.0,0.0,0.0,0.0,0.0,0.0,0.0,0.0,0.0,0.0,0.0,0.0,0.0,0.0,0.0,0.0,0.0,0.0,0.0,0.0,0.0,0.0,0.0,0.0,0.0,0.0,0.0,0.0,0.0,0.0,0.0,0.0,0.0,0.0,0.0,0.0,0.0,0.0,0.0,0.0,0.0,0.0,0.0,0.0,0.0,0.0,0.0,0.0,0.0,0.0,0.0,0.0,0.0,0.0,0.0,0.0,0.0,0.0,0.0,0.0,0.0,0.0,0.0,0.0,0.0,0.0,0.0,0.0,0.0,0.0,0.0,0.0,0.0,0.0,0.0,0.0,0.0,0.0,0.0,0.0,0.0,0.0,0.0,0.0,0.0,0.0,2.5813,2.9558,3.2233,3.2895,3.4474,3.4977,3.3734,3.2728,3.085,2.7732,0.0,0.0,0.0,0.0,0.0,0.0,0.0,0.0,0.0,0.0,0.0,0.0,0.0,0.0,0.0,0.0,0.0,0.0,0.0,0.0,0.0,0.0,0.0,0.0,0.0,0.0,0.0,0.0,0.0,0.0,0.0,0.0,0.0,0.0,0.0,0.0,0.0,0.0,0.0,0.0,0.0,0.0,0.0,0.0,0.0,0.0,0.0,0.0,0.0,0.0,0.0,0.0,0.0,0.0,0.0,0.0,0.0,0.0,0.0,0.0,0.0,0.0,0.0,0.0,0.0,0.0,0.0,0.0,0.0,0.0,0.0,0.0,0.0,0.0,0.0,0.0,0.0,0.0,0.0,0.0,0.0,0.0,0.0,0.0,0.0,0.0,0.0,0.0,0.0,0.0,0.0,0.0,0.0,0.0,0.0,0.0,0.0,0.0,0.0,0.0,0.0,0.0,2.6846,3.0722,3.3503,3.4423,3.5859,3.6376,3.5466,3.4661,3.2747,2.938,0.0,0.0,0.0,0.0,0.0,0.0,0.0,0.0,0.0,0.0,0.0,0.0,0.0,0.0,0.0,0.0,0.0,0.0,0.0,0.0,0.0,0.0,0.0,0.0,0.0,0.0,0.0,0.0,0.0,0.0,0.0,0.0,0.0,0.0,0.0,0.0,0.0,0.0,0.0,0.0,0.0,0.0,0.0,0.0,0.0,0.0,0.0,0.0,0.0,0.0,0.0,0.0,0.0,0.0,0.0,0.0,0.0,0.0,0.0,0.0,2.8288,0.0,0.0,0.0,0.0,0.0,0.0,0.0,0.0,0.0,0.0,0.0,0.0,0.0,0.0,0.0,0.0,0.0,0.0,0.0,0.0,0.0,0.0,0.0,0.0,0.0,0.0,0.0,0.0,0.0,0.0,0.0,0.0,0.0,0.0,0.0,0.0,0.0,0.0,0.0,0.0,0.0,2.7989,3.1897,3.4597,3.5276,3.6665,3.7185,3.6212,3.5733,3.4195,3.1229,2.8411,0.0,0.0,0.0,0.0,0.0,0.0,0.0,0.0,0.0,0.0,0.0,0.0,0.0,0.0,0.0,0.0,0.0,0.0,0.0,0.0,0.0,0.0,0.0,0.0,0.0,0.0,0.0,0.0,0.0,0.0,0.0,0.0,0.0,0.0,0.0,0.0,0.0,0.0,0.0,0.0,0.0,0.0,0.0,0.0,0.0,0.0,0.0,0.0,0.0,0.0,0.0,0.0,0.0,0.0,0.0,0.0,0.0,0.0,0.0,0.0,3.0181,0.0,0.0,0.0,0.0,0.0,0.0,0.0,0.0,0.0,0.0,0.0,0.0,0.0,0.0,0.0,0.0,0.0,0.0,0.0,0.0,0.0,0.0,0.0,0.0,0.0,0.0,0.0,0.0,0.0,0.0,0.0,0.0,0.0,0.0,0.0,0.0,0.0,0.0,0.0,0.0,2.9237,3.2851,3.5526,3.662,3.7712,3.8157,3.7635,3.7195,3.5713,3.2897,3.0388,0.0,0.0,0.0,0.0,0.0,0.0,0.0,0.0,0.0,0.0,0.0,0.0,0.0,0.0,0.0,0.0,0.0,0.0,0.0,0.0,0.0,0.0,0.0,0.0,0.0,0.0,0.0,0.0,0.0,0.0,0.0,0.0,0.0,0.0,0.0,0.0,0.0,0.0,0.0,0.0,0.0,0.0,0.0,0.0,0.0,0.0,0.0,0.0,0.0,0.0,0.0,0.0,0.0,3.6935,3.7713,3.8567,3.8115,3.7864,3.7638,3.5353,3.352,3.2114,3.2014,0.0,0.0,0.0,0.0,0.0,0.0,0.0,0.0,0.0,0.0,0.0,0.0,0.0,0.0,0.0,0.0,0.0,0.0,0.0,0.0,0.0,0.0,0.0,0.0,3.1788,3.0733,0.0,0.0,0.0,0.0,0.0,0.0,0.0,0.0,0.0,0.0,0.0,0.0,3.04,3.3662,3.621,3.7713,3.8467,3.8869,3.8718,3.8366,3.701,3.4349,3.2215,2.9829,0.0,0.0,0.0,0.0,0.0,0.0,0.0,0.0,0.0,0.0,0.0,0.0,0.0,0.0,0.0,0.0,0.0,0.0,0.0,0.0,0.0,0.0,0.0,0.0,0.0,0.0,0.0,0.0,0.0,0.0,0.0,0.0,3.0206,3.0281,0.0,0.0,0.0,0.0,0.0,0.0,0.0,0.0,0.0,0.0,0.0,0.0,0.0,3.5228,3.5751,3.7436,3.8517,3.917,4.0199,4.0699,4.0849,4.0774,4.0526,4.0049,3.9697,0.0,3.4906,3.4474,0.0,0.0,0.0,0.0,0.0,0.0,0.0,0.0,0.0,0.0,0.0,0.0,0.0,0.0,0.0,0.0,0.0,0.0,0.0,0.0,0.0,0.0,3.5082,3.5651,3.4926,3.4223,0.0,3.1997,2.9503,2.7971,2.7168,0.0,0.0,0.0,0.0,0.0,0.0,0.0,3.1431,3.446,3.6508,3.7211,3.8241,3.8668,3.8165,3.8517,3.7764,3.5433,3.3696,3.1738,2.9453,2.6666,0.0,0.0,0.0,0.0,0.0,0.0,0.0,0.0,0.0,0.0,0.0,0.0,0.0,0.0,0.0,0.0,0.0,0.0,0.0,0.0,0.0,0.0,0.0,0.0,0.0,0.0,0.0,0.0,0.0,3.0608,3.1989,3.1989,3.1712,3.1185,0.0,0.0,0.0,0.0,0.0,0.0,0.0,0.0,0.0,3.5353,3.7312,3.8592,3.9145,4.0802,4.1907,4.2484,4.3288,4.384,4.4116,4.3815,4.3539,4.3288,4.2961,4.1831,3.9998,3.7563,3.578,3.4349,0.0,0.0,0.0,0.0,3.1436,3.2173,3.2466,3.2566,0.0,3.2265,0.0,0.0,0.0,0.0,0.0,0.0,0.0,0.0,0.0,0.0,3.6985,3.7236,3.6684,3.6182,3.6408,3.5328,3.3646,0.0,2.9955,2.8587,2.6872,0.0,0.0,0.0,0.0,2.9696,3.2306,3.453,3.6232,3.7086,3.7914,3.8417,3.8492,3.8718,3.8191,3.6558,3.4926,3.3144,3.1235,2.8473,2.649,0.0,0.0,0.0,0.0,0.0,0.0,0.0,0.0,0.0,0.0,0.0,0.0,0.0,0.0,0.0,0.0,0.0,0.0,0.0,0.0,0.0,0.0,0.0,0.0,0.0,0.0,0.0,0.0,3.2315,3.3822,3.4098,3.3746,3.3269,0.0,0.0,0.0,0.0,0.0,0.0,3.5328,3.6684,3.7788,3.8492,4.0199,4.1404,4.1902,4.3338,4.4292,4.4844,4.5271,4.5773,4.6301,4.5748,4.5497,4.5447,4.4869,4.4392,4.3765,4.0576,3.8567,3.7262,3.5328,3.4977,3.5454,3.465,3.4951,3.5805,3.5956,3.6006,3.5981,3.583,3.4751,3.3319,3.234,0.0,0.0,0.0,0.0,3.4776,3.5834,3.7186,3.8266,3.8391,3.8015,3.7613,3.7613,3.7487,3.6609,0.0,3.2516,3.1085,2.9252,0.0,0.0,0.0,0.0,3.116,3.3244,3.4826,3.6056,3.6885,3.7588,3.8115,3.8466,3.8743,3.8366,3.7109,3.568,3.4079,3.229,2.998,2.8097,2.6725,0.0,0.0,0.0,0.0,0.0,0.0,0.0,0.0,0.0,0.0,0.0,0.0,0.0,0.0,0.0,0.0,0.0,0.0,0.0,0.0,0.0,0.0,0.0,0.0,0.0,0.0,0.0,0.0,0.0,3.686,3.696,0.0,0.0,0.0,0.0,3.6078,3.6659,3.7688,3.932,3.9973,4.0802,4.1911,4.2564,4.3112,4.3664,4.4267,4.4869,4.5447,4.5472,4.5773,4.6301,4.5748,4.5497,4.5447,4.4869,4.4593,4.4493,4.3237,4.1781,4.0199,3.9019,3.8291,3.7839,3.7789,3.814,3.8793,3.927,3.9446,3.9346,3.8818,3.6835,3.4525,3.3947,3.3345,0.0,0.0,3.5353,3.6531,3.7588,3.8341,3.8969,3.9496,3.9195,3.8844,3.8844,3.8341,3.7312,0.0,3.4575,3.3822,3.1612,0.0,2.9955,3.1009,3.1712,3.2717,3.4424,3.5629,3.638,3.643,3.7362,3.7814,3.7312,3.8266,3.8215,3.6556,3.583,3.448,3.2315,3.111,2.9478,2.7293,2.6013,0.0,0.0,0.0,0.0,0.0,0.0,0.0,0.0,0.0,0.0,0.0,0.0,0.0,0.0,0.0,0.0,0.0,0.0,0.0,0.0,0.0,0.0,0.0,0.0,0.0,0.0,0.0,0.0,3.8718,3.9421,0.0,3.9094,3.8366,3.8366,3.9471,4.0727,4.1856,4.2811,4.4091,4.4945,4.5347,4.5874,4.625,4.6451,4.6627,4.6828,4.7054,4.7054,4.7154,4.733,4.7129,4.6853,4.6527,4.6326,4.605,4.5673,4.5271,4.394,4.1982,4.0902,4.0325,4.0047,3.9747,3.9973,4.0475,4.0676,4.0752,4.0651,4.0099,3.8768,3.7362,3.7161,3.6709,3.6332,3.6734,3.7387,3.8114,3.8467,3.8969,3.9446,3.9647,3.9546,3.9396,3.9396,3.9245,3.8642,3.7136,3.6257,3.5403,3.4274,3.3169,3.2566,3.2943,3.347,3.4129,3.5082,3.5906,3.6405,3.6405,3.7337,3.7789,3.7236,3.7563,3.7436,3.6455,3.4851,3.3596,3.2792,3.1386,3.008,2.8925,2.7444,2.5661,0.0,0.0,0.0,0.0,0.0,0.0,0.0,0.0,0.0,0.0,0.0,0.0,0.0,0.0,0.0,0.0,0.0,0.0,0.0,0.0,0.0,0.0,0.0,0.0,0.0,0.0,3.9772,4.0701,4.1605,4.2032,4.1656,4.1128,4.1254,4.2304,4.3639,4.4618,4.5171,4.6426,4.6993,4.6853,4.738,4.7657,4.7657,4.7832,4.7908,4.7908,4.7908,4.7807,4.7657,4.7657,4.7355,4.6853,4.6853,4.6652,4.6301,4.6301,4.5321,4.3765,4.3011,4.2509,4.2133,4.1756,4.1731,4.1882,4.1882,4.1781,4.1555,4.1178,4.045,3.9697,3.9697,3.9446,3.912,3.912,3.927,3.9421,3.9421,3.9572,3.9697,3.9697,3.9697,3.9697,3.9697,3.9546,3.9195,3.8442,3.7563,3.6634,3.5658,3.4881,3.4449,3.4449,3.4731,3.5157,3.5755,3.6132,3.6405,3.6405,3.7337,3.7713,3.696,3.7086,3.6784,3.5855,3.4098,3.296,3.2516,3.1286,3.0256,2.9528,2.767,2.5988,2.4531,0.0,0.0,0.0,0.0,0.0,0.0,0.0,0.0,0.0,0.0,0.0,0.0,0.0,0.0,0.0,0.0,0.0,0.0,0.0,0.0,0.0,0.0,0.0,3.6408,3.8894,4.1254,4.2861,4.3564,4.394,4.394,4.3438,4.3564,4.4644,4.5271,4.5824,4.6326,4.6878,4.6903,4.6376,4.6878,4.7093,4.7118,4.7707,4.7958,4.7958,4.7958,4.7682,4.7118,4.7118,4.6878,4.6326,4.6326,4.6326,4.6301,4.6301,4.5999,4.5522,4.5497,4.4794,4.379,4.379,4.3463,4.2986,4.2986,4.2665,4.2213,4.2238,4.1806,4.13,4.1326,4.1326,4.13,4.13,4.0899,4.0526,4.0501,4.0099,3.9697,3.9697,3.9697,3.9697,3.9697,3.927,3.8894,3.8894,3.8391,3.7487,3.5834,3.5533,3.5533,3.5533,3.5533,0.0,3.6329,3.6405,3.6405,3.6405,3.7337,3.7563,3.6505,3.6908,3.6458,3.4801,3.3621,3.2516,3.1411,3.0859,3.0016,2.8913,2.6766,2.5109,2.4029,0.0,0.0,0.0,0.0,0.0,0.0,0.0,0.0,0.0,0.0,0.0,0.0,0.0,0.0,0.0,0.0,0.0,0.0,0.0,0.0,0.0,3.5429,3.7538,3.8115,4.1254,4.3815,4.4694,4.5974,4.6778,4.6778,4.6652,4.6677,4.6979,4.7531,4.7757,4.7481,4.7606,4.7631,4.7481,4.7606,4.7908,4.8309,4.8862,4.9138,4.9138,4.9138,4.8837,4.8309,4.8309,4.7807,4.6903,4.6903,4.6677,4.6301,4.6301,4.6225,4.605,4.5648,4.4794,4.379,4.379,4.3463,4.2986,4.2986,4.2665,4.2263,4.2665,4.2384,4.2007,4.2409,4.2258,4.1856,4.1401,4.0899,4.0425,4.0023,3.9798,3.9697,3.9697,3.9697,3.9697,3.9697,3.9572,3.922,3.8391,3.8115,3.7739,3.6885,3.6408,3.6132,3.6132,3.6132,0.0,3.638,3.6405,3.6405,3.6405,3.7337,3.7563,3.6505,3.6556,3.5881,3.4223,3.234,3.116,3.0834,2.9866,2.9214,2.8888,2.7544,2.6088,0.0,0.0,0.0,0.0,0.0,0.0,0.0,0.0,0.0,0.0,0.0,0.0,0.0,0.0,0.0,0.0,0.0,0.0,0.0,0.0,0.0,0.0,3.7638,4.0023,4.0827,4.3288,4.5196,4.5773,4.7054,4.7908,4.7908,4.7908,4.8008,4.8259,4.8586,4.851,4.7933,4.7908,4.7707,4.7255,4.7682,4.8083,4.841,4.9188,4.949,4.9238,4.9238,4.8837,4.8083,4.8083,4.7606,4.6778,4.6778,4.6602,4.6301,4.6301,4.6301,0.0,0.0,0.0,0.0,0.0,4.3589,4.3288,4.3062,4.2816,4.2615,4.2861,4.276,4.2564,4.2665,4.2464,4.2087,4.1505,4.0899,4.045,4.0124,3.9873,3.9697,3.9697,3.9697,3.9697,3.9697,3.9521,3.9145,3.8492,3.799,0.0,3.7236,3.6782,3.6405,3.6405,3.6405,3.6405,3.6405,3.6405,3.6405,3.6405,3.7337,3.7563,3.6505,3.6631,0.0,0.0,0.0,3.1085,3.0633,2.9754,0.0,0.0,0.0,0.0,0.0,0.0,0.0,0.0,2.423,2.4707,0.0,0.0,0.0,0.0,0.0,0.0,0.0,0.0,0.0,0.0,0.0,0.0,0.0,0.0,0.0,0.0,3.9925,4.274,4.3915,4.5045,4.5949,4.6426,4.7431,4.8109,4.8109,4.8109,4.8309,4.8837,4.8862,4.8611,4.8033,0.0,0.0,0.0,0.0,4.7933,4.8008,4.9063,4.9314,4.8761,4.8761,4.8184,4.7068,4.7068,4.6828,4.6301,4.6301,4.6301,4.6301,4.6301,4.6301,4.6301,4.625,4.5924,4.5347,4.4217,4.379,4.3714,4.3162,0.0,0.0,4.2986,4.2986,4.2886,4.2439,4.2213,4.1957,4.148,4.0899,4.0501,4.045,4.0099,3.9772,3.9697,3.9697,3.9697,3.9697,3.932,3.8994,3.8919,3.8065,3.7337,3.7211,3.6782,3.6405,3.6405,3.6405,3.6405,3.6405,3.6405,3.6405,3.6405,0.0,0.0,3.6505,3.6857,3.6408,3.4781,3.3144,3.1738,3.0658,3.0206,3.0181,3.0608,2.959,2.8813,2.8298,2.8423,2.875,2.9214,2.767,2.7278,0.0,0.0,0.0,0.0,0.0,0.0,0.0,0.0,0.0,0.0,0.0,0.0,0.0,0.0,0.0,3.927,4.1455,4.3514,4.5547,4.6753,4.7481,4.7581,4.8586,4.9264,4.9264,4.9264,4.9314,4.9439,4.9439,4.9188,4.8636,4.8159,4.7807,4.7606,4.7807,4.8134,4.8611,4.9264,4.9314,4.8761,0.0,0.0,4.7068,4.7068,4.6828,4.6301,4.6301,4.6301,4.6301,4.6301,4.6301,4.6276,4.5824,4.5573,4.5347,4.4217,4.379,4.3714,4.3162,4.2986,4.2986,4.2986,4.2986,4.2961,4.2861,4.2208,0.0,4.13,4.0899,4.0425,3.9973,4.0099,4.0249,3.9798,3.9697,3.9697,3.9697,3.9622,3.9396,3.8994,3.8743,3.8266,3.7337,3.6782,3.6405,3.6405,3.6405,3.6405,3.6405,3.6405,3.6405,3.6405,3.696,3.7086,3.6455,3.6505,3.6006,3.4801,3.3144,3.1738,3.0658,3.0909,3.0934,3.0633,3.0367,3.0005,2.9478,3.0331,3.1035,3.1537,3.0357,3.0331,0.0,0.0,0.0,0.0,0.0,0.0,0.0,0.0,0.0,0.0,0.0,3.3897,3.5278,0.0,3.9069,4.1028,4.2961,4.4719,4.6125,4.7481,4.8335,4.8335,4.9088,4.959,4.959,4.959,4.959,4.959,4.959,4.9364,4.8812,4.8485,4.8209,4.7908,4.8184,4.8335,4.8335,4.8887,4.8761,4.7958,4.7958,4.7531,4.6728,4.6728,4.6577,4.6301,4.6301,4.6301,4.6301,4.6301,4.6301,4.6276,4.5999,4.5899,4.5773,4.4618,4.4217,4.4091,4.3263,4.2986,4.2986,4.2986,4.2986,4.2936,4.2715,4.2183,4.1681,4.1351,4.11,4.0852,4.0601,4.0526,4.045,4.0174,3.9898,3.9697,3.9697,3.9697,3.9622,3.9346,3.9069,3.8743,3.8115,3.7385,3.6732,3.6455,3.6405,3.6405,3.6405,3.6405,3.6405,3.6405,3.6908,3.696,3.6455,3.6107,3.573,3.5132,3.3822,3.2817,3.229,3.224,3.224,3.2265,3.1989,3.1712,3.1436,3.224,3.3068,3.3828,3.3621,3.3495,0.0,0.0,0.0,0.0,0.0,0.0,0.0,0.0,3.1888,3.3545,3.5027,3.636,3.7613,3.9396,4.1078,4.2338,4.4166,4.5748,4.6527,4.7757,4.8636,4.8825,4.9264,4.959,4.959,4.959,4.959,4.959,4.959,4.9389,4.8962,4.8937,4.8711,4.8259,4.8686,4.8661,4.8083,4.8535,4.8209,4.7068,4.7068,4.6853,4.6301,4.6301,4.6301,4.6301,4.6301,4.6301,4.6301,4.6301,4.6301,4.6301,4.6301,4.6301,4.6175,4.5045,4.4618,4.4468,4.3363,4.2986,4.2986,4.2986,4.2986,4.2886,4.2514,4.2288,4.2112,4.163,4.1505,4.148,4.13,4.1103,4.0777,4.0576,4.0174,3.9823,3.9722,3.9697,3.9697,3.9697,3.932,3.9045,3.8944,3.8165,3.7287,3.6656,3.648,3.6405,3.6405,3.6405,3.6405,3.6405,3.6807,3.6885,3.6606,3.6107,3.5784,3.5658,3.4776,3.4173,3.4073,3.3646,3.3646,3.4198,3.3796,3.3596,3.3765,3.4274,3.5052,3.5984,3.6609,3.6332,2.8524,2.9804,3.2014,3.3169,3.3822,3.4198,0.0,0.0,3.4726,3.6383,3.7262,3.8216,3.9848,4.0752,4.1702,4.3363,4.4669,4.6024,4.7506,4.7883,4.8184,4.8711,4.9264,4.959,4.959,4.959,4.959,4.959,4.959,4.9565,4.9515,4.9515,4.9464,4.9414,4.9464,4.9238,4.8686,4.8736,4.8209,4.7068,4.7068,4.6853,4.6301,4.6301,4.6301,4.6301,4.6301,4.6301,4.6301,4.6301,4.6301,4.6301,4.6301,4.6301,4.6175,4.5045,4.4618,4.4468,4.3363,4.2986,4.2986,4.2986,4.2986,4.2961,4.2911,4.259,4.2213,4.2137,4.2112,4.1957,4.1455,4.1656,4.1785,4.0752,4.0475,4.03,3.9798,3.9697,3.9697,3.9697,3.9647,3.9446,3.8994,3.8768,3.8366,3.7262,3.6732,3.6405,3.6405,3.6405,3.6405,3.6405,3.6455,3.6681,3.7109,3.7036,3.6784,3.6355,3.5705,3.5107,3.465,3.4575,3.4756,3.5307,3.5257,3.5504,3.6053,3.6558,3.7136,3.7739,3.8316,3.8241,3.0834,3.2064,3.4022,3.5454,3.6483,3.7211,3.7538,3.7613,3.7889,3.8919,4.0074,4.1103,4.1831,4.266,4.3589,0.0,4.5723,4.6677,4.7355,4.8008,4.8259,4.7857,4.8033,4.8284,4.8586,4.8611,4.8611,4.8611,4.8937,4.8962,4.8636,4.8937,4.8962,4.8636,4.8611,4.836,4.7832,4.7807,4.7431,4.6652,4.6652,4.6527,4.6301,4.6301,4.6301,4.6301,4.6301,4.6301,4.6301,4.6301,4.6301,4.6276,4.5949,4.5824,4.5723,4.492,4.4618,4.4468,4.3363,4.2986,4.2986,4.2986,4.2986,4.2986,4.2986,4.2811,4.269,4.269,4.269,4.264,4.2359,4.2208,4.2087,4.158,4.0978,4.045,4.0224,3.9923,3.9697,3.9697,3.9697,3.9622,3.9396,3.9094,3.8768,3.8241,3.7412,3.6782,3.6455,3.6405,3.6405,3.6405,3.6405,3.6757,3.7588,3.7086,3.6933,3.7287,3.6508,3.5906,3.568,3.5981,3.6257,3.6483,3.681,3.7086,3.7312,3.7563,3.7965,3.8517,3.8768,3.8919,3.2842,3.4123,3.5805,3.7462,3.8617,3.9471,4.0023,4.0023,4.0124,4.0827,4.1907,4.2785,4.2961,4.3765,4.4593,4.5171,4.6301,4.7068,4.7068,4.7933,4.8134,4.7029,4.6778,4.6778,4.6979,4.7431,4.7682,4.7682,4.836,4.851,4.7933,4.846,4.851,4.7933,4.7908,4.7657,4.7093,4.7068,4.6853,4.6301,4.6301,4.6301,4.6301,4.6301,4.6301,4.6301,4.6301,4.6301,4.6301,4.6301,4.6301,4.625,4.5698,4.5497,4.5397,4.4669,4.4392,4.4267,4.3313,4.2986,4.2986,4.2986,4.2986,4.2986,4.2986,4.2986,4.2986,4.2986,4.2986,4.2986,4.2986,4.274,4.2389,4.2238,4.143,4.0701,4.0551,4.0074,3.9697,3.9697,3.9697,3.9697,3.9697,3.9371,3.9095,3.8944,3.8215,3.7387,3.6732,3.6505,3.6405,3.6405,3.6556,3.6958,3.7713,3.7036,3.6935,3.7739,3.6885,3.648,3.6631,3.696,3.7337,3.7638,3.804,3.8316,3.8467,3.8467,3.8693,3.9094,3.9094,3.9396,3.4073,3.5855,3.7513,3.9195,4.0049,4.0601,4.1125,4.0824,4.0802,4.1936,4.2213,4.2389,4.2886,4.3438,4.4016,4.4568,4.605,4.7068,4.7068,4.7606,4.7531,4.6451,4.5874,4.5321,0.0,4.62,4.7093,4.7093,4.8159,4.851,4.7933,4.846,4.851,4.7933,4.7908,4.7657,4.7093,4.7068,4.6853,4.6301,4.6301,4.6301,4.6301,4.6301,4.6301,4.6301,4.6301,4.6301,4.6301,4.6301,4.6301,4.625,4.5698,4.5497,4.5347,4.4242,4.3815,4.374,4.3162,4.2986,4.2986,4.2986,4.2986,4.2986,4.2986,4.2986,4.2986,4.2986,4.2986,4.2986,4.2986,4.2961,4.2811,4.2338,4.1731,4.1125,4.0626,4.0074,3.9697,3.9697,3.9697,3.9697,3.9697,3.9672,3.9496,3.8994,3.8894,3.8466,3.7312,3.6732,3.6405,3.6405,3.6883,3.7186,3.7211,3.7186,3.7186,3.7211,3.6732,3.6656,3.7136,3.7186,3.7688,3.8844,3.8894,3.912,3.9647,3.9647,3.9647,3.9672,3.9672,3.9973,3.4731,3.6458,3.814,3.9823,4.0927,4.1756,4.2308,4.2283,4.2158,4.2213,4.2213,4.2263,4.2464,4.2942,4.3564,4.4468,4.5723,4.6602,4.6602,4.7054,4.6853,4.5372,4.502,0.0,0.0,0.0,0.0,4.6024,4.6728,4.7054,4.6853,4.738,4.7431,4.6878,4.6853,4.6753,4.6602,4.6602,4.6502,4.6301,4.6301,4.6301,4.6301,4.5924,4.5773,4.5748,4.5372,4.5196,4.5196,4.5196,4.5196,4.5146,4.4568,4.4367,4.4267,4.3539,4.3263,4.3212,4.3037,4.2986,4.2986,4.2986,4.2986,4.2986,4.2986,4.2986,4.2986,4.2986,4.2986,4.2986,4.2986,4.2986,4.2936,4.2735,4.2007,4.1225,4.105,4.035,3.9697,3.9697,3.9697,3.9697,3.9697,3.9697,3.9496,3.8994,3.8542,3.8165,3.7789,3.7563,3.7312,3.6983,3.7086,3.7186,3.7186,3.6883,3.6832,3.7161,3.6707,3.6656,3.7161,3.7538,3.809,3.8894,3.922,3.9496,3.9697,3.9697,3.9697,3.9697,3.9697,3.9998,3.5934,3.7789,3.9496,4.0777,4.1781,4.259,4.2886,4.2866,4.259,4.1982,4.1555,4.1333,4.1333,4.1882,4.2685,4.3589,4.5196,4.625,4.605,4.6652,4.6577,4.5121,4.4744,4.4267,0.0,0.0,0.0,4.4844,4.5773,4.6225,4.6024,4.6728,4.6878,4.6326,4.6301,4.6301,4.6301,4.6301,4.6301,4.6301,4.6301,4.6301,4.6301,4.5748,4.5497,4.5447,4.4869,4.4618,4.4618,4.4618,4.4618,4.4568,4.4016,4.379,4.374,4.3187,4.2986,4.2986,4.2986,4.2986,4.2986,4.2986,4.2986,4.2986,4.2986,4.2986,4.2986,4.2986,4.2986,4.2986,4.2986,4.2986,4.2986,4.2986,4.2133,4.1275,4.1275,4.0475,3.9697,3.9697,3.9697,3.9697,3.9697,3.9697,3.9572,3.922,3.8843,3.8467,3.8065,3.8015,3.7789,3.7236,3.7186,3.7111,3.6958,3.6606,3.6556,3.686,3.6606,3.6757,3.7437,3.7814,3.8366,3.9145,3.9521,3.9798,3.9998,3.9998,4.0099,4.0275,4.0275,4.0576,3.7688,3.9722,4.1505,4.2112,4.264,4.2961,4.2936,4.2564,4.1986,4.1275,4.0325,3.9521,0.0,0.0,4.1329,4.2011,4.4392,4.6024,4.5547,4.6401,4.6702,0.0,0.0,0.0,0.0,0.0,0.0,4.379,0.0,4.5999,4.5522,4.6502,4.6853,4.6326,4.6301,4.6301,4.6301,4.6276,4.6276,4.6276,4.6225,4.6225,4.62,4.5648,4.5397,4.5372,4.4794,4.4543,4.4543,4.4543,4.4543,4.4493,4.3966,4.3765,4.3689,4.3162,4.2986,4.2986,4.2986,4.2986,4.2986,4.2986,4.2986,4.2986,4.2986,4.2986,4.2986,4.2986,4.2986,4.2986,4.2986,4.2986,4.2986,4.2986,4.2133,4.1275,4.1275,4.0475,3.9697,3.9697,3.9697,3.9697,3.9697,3.9697,3.9697,3.9697,3.9697,3.9295,3.8241,3.809,3.7889,3.7337,3.7262,3.7036,3.6531,3.648,3.648,3.648,3.648,3.6935,3.8015,3.804,3.8567,3.9672,3.9697,3.9973,4.0526,4.0526,4.0802,4.1275,4.1275,4.163,3.932,4.0877,4.2082,4.269,4.2861,4.2861,4.2514,4.1932,4.1153,3.9798,3.8291,3.7236,0.0,0.0,0.0,4.0626,4.2911,0.0,4.5397,4.6075,0.0,4.5573,0.0,4.5045,4.4468,4.4292,0.0,0.0,4.4819,4.5171,4.5472,4.615,4.6451,4.6326,4.6301,4.6301,4.6301,4.5899,4.5698,4.5698,4.5271,4.5045,4.5045,4.4493,4.4242,4.4192,4.3639,4.3388,4.3388,4.3388,4.3388,4.3388,4.3237,4.3187,4.3162,4.3037,4.2986,4.2986,4.2986,4.2986,4.2986,4.2986,4.2986,4.2986,4.2986,4.2986,4.2986,4.2986,4.2986,4.2986,4.2986,4.2986,4.2986,4.2986,4.2133,4.1275,4.1275,4.0475,3.9697,3.9697,3.9697,3.9697,3.9697,3.9697,3.9697,3.9697,3.9697,3.9597,3.9295,3.927,3.9044,3.8492,3.8492,3.8216,3.7638,3.7588,3.7588,3.7588,3.7588,3.7914,3.8617,3.8642,3.8969,3.9672,3.9697,3.9973,4.0526,4.0526,4.0802,4.1275,4.1275,4.163,4.04,4.1681,4.264,4.2911,4.2785,4.2514,4.1932,4.0802,3.9471,3.8114,3.6056,3.465,3.4921,3.5579,3.6759,0.0,0.0,0.0,4.4267,4.507,4.5547,0.0,4.5271,0.0,4.502,4.4769,4.4618,0.0,4.4869,4.5146,4.5472,4.6024,4.6301,4.6301,4.6301,4.6301,4.6301,4.5773,4.5497,4.5472,4.4895,4.4618,4.4593,4.4041,4.379,4.3765,0.0,4.2986,4.2986,4.2986,4.2986,4.2986,4.2986,4.2986,4.2986,4.2986,4.2986,4.2986,4.2986,4.2986,4.2986,4.2986,4.2986,4.2986,4.2986,4.2986,4.2986,4.2986,4.2986,4.2986,4.2986,4.2986,4.2986,4.2986,4.2333,4.1681,4.1681,4.1028,4.035,4.0099,4.0049,3.9973,3.9747,3.9697,3.9697,3.9697,3.9697,3.9697,3.9697,3.9697,3.9471,3.8969,3.8919,3.8642,3.8065,3.8015,3.8015,3.8015,3.8241,3.8642,3.922,3.9471,3.9848,4.04,4.0425,4.0676,4.1229,4.1229,4.153,4.2057,4.2057,4.2233,4.1153,4.2258,4.3062,4.2911,4.2459,4.1856,4.1078,3.922,3.7312,3.6103,3.3721,3.2064,3.2641,3.3596,3.4876,3.6684,0.0,4.2011,4.266,4.3765,4.4694,4.5196,4.4945,4.4945,4.5447,4.5095,4.4844,4.4844,4.5321,4.5573,4.5497,4.6024,4.6301,4.6301,4.6301,4.6276,4.62,4.5648,4.5321,4.5271,4.4669,4.4392,4.4392,4.3915,4.3689,4.3664,4.3187,4.2986,4.2986,4.2986,4.2986,4.2986,4.2986,4.2986,4.2986,4.2986,4.2986,4.2986,4.2986,4.2986,4.2986,4.2986,4.2986,4.2986,4.2986,4.2986,4.2986,4.2986,4.2986,4.2986,4.2986,4.2986,4.2986,4.2986,4.2615,4.2213,4.2213,4.1731,4.1125,4.0626,4.0526,4.035,3.9798,3.9697,3.9697,3.9697,3.9697,3.9697,3.9697,3.9697,3.9521,3.907,3.902,3.8768,3.8266,3.8241,3.8241,3.8241,3.8693,3.922,3.9772,4.0249,4.0724,4.1275,4.1275,4.1605,4.2213,4.2213,4.2489,4.2986,4.2986,4.2986,4.1831,4.2811,4.3438,4.259,4.1882,4.0978,3.9019,3.7188,0.0,3.3345,3.1486,3.0382,3.0934,3.1562,3.2817,3.5357,3.7864,3.9948,4.1404,4.2961,4.3991,0.0,4.4819,0.0,0.0,0.0,0.0,0.0,0.0,4.5974,4.5522,4.6024,4.6301,4.6301,4.6301,4.61,4.5623,4.507,4.4543,4.4091,4.3539,4.3263,4.3263,4.3162,4.3112,4.3112,4.3011,0.0,4.2986,4.2986,4.2986,4.2986,4.2986,4.2986,4.2986,4.2986,4.2986,4.2986,4.2986,4.2986,4.2986,4.2986,4.2986,4.2986,4.2986,4.2986,4.2986,4.2986,4.2986,4.2986,4.2986,4.2986,4.2986,4.2986,4.2615,4.2213,4.2213,4.1731,4.1125,4.0626,4.0526,4.035,3.9798,3.9697,3.9697,3.9697,3.9697,3.9697,3.9697,3.9697,3.9647,3.9572,3.9546,3.9521,3.9396,3.9396,3.9396,3.9396,3.9496,3.9798,4.035,4.0475,4.0724,4.1275,4.1275,4.1605,4.2213,4.2213,4.2489,4.2986,4.2986,4.2986,4.2157,4.3075,4.3539,4.2489,4.1304,3.9973,3.8015,0.0,0.0,3.1712,2.9829,2.8649,2.9202,2.9754,0.0,3.3376,3.568,3.7814,3.9772,4.1229,0.0,4.3263,4.4116,0.0,0.0,0.0,0.0,0.0,0.0,4.62,4.5924,4.6175,4.6301,4.6301,4.6024,4.5748,4.5497,4.4618,4.4066,4.379,4.3237,4.2986,4.2986,4.2986,4.2986,4.2986,4.2986,0.0,4.2986,4.2986,4.2986,4.2986,4.2986,4.2986,4.2986,4.2986,4.2986,4.2986,4.2986,4.2986,4.2986,4.2986,4.2986,4.2986,4.2986,4.2986,4.2986,4.2986,4.2986,4.2986,4.2986,4.2986,4.2986,4.2986,4.2816,4.264,4.264,4.2384,4.2032,4.148,4.1379,4.1204,4.0651,4.0551,4.045,4.0174,4.0124,4.0023,3.9722,3.9697,3.9697,3.9697,3.9697,3.9697,3.9697,3.9697,3.9697,3.9697,3.9973,4.0375,4.0874,4.1229,4.163,4.2183,4.2183,4.2333,4.264,4.264,4.264,4.2615,4.2836,4.2866,4.2256,4.3198,4.3664,4.2308,4.0651,3.8793,3.6759,3.3822,3.116,2.998,2.8147,2.6917,2.7469,2.7921,2.8976,0.0,3.3326,3.5433,3.7839,3.932,4.0727,0.0,0.0,0.0,0.0,0.0,0.0,0.0,0.0,0.0,4.6301,4.6301,4.625,4.6125,4.5723,4.5372,4.5121,4.4242,4.374,4.3614,4.3187,4.2986,4.2986,4.2986,4.2986,4.2986,4.2986,0.0,0.0,4.2986,4.2986,4.2986,4.2986,4.2986,4.2986,4.2986,4.2986,4.2986,4.2986,4.2986,4.2986,4.2986,4.2986,4.2986,4.2986,4.2986,4.2986,4.2986,4.2986,4.2986,4.2986,4.2986,4.2986,4.2986,4.2986,4.2986,4.2986,4.2986,4.2811,4.2313,4.2213,4.2037,4.1376,4.1275,4.11,4.0601,4.0526,4.0325,3.9772,3.9697,3.9697,3.9697,3.9697,3.9697,3.9697,3.9697,3.9697,3.9697,4.0199,4.0752,4.125,4.1856,4.2464,4.2961,4.2986,4.2986,4.2986,4.2986,4.276,4.2389,4.2816,4.2735,4.2108,4.3424,4.4041,4.1877,3.9772,3.7337,3.4173,0.0,2.8775,2.7203,2.5887,2.5209,2.5737,2.5862,2.6816,2.9553,3.1009,3.2717,3.5433,3.7688,3.9446,4.0601,0.0,0.0,0.0,0.0,0.0,0.0,0.0,0.0,4.6301,4.6301,4.6075,4.5573,4.5522,4.4995,4.3966,4.384,4.3539,4.3062,4.3011,4.2986,4.2986,4.2986,4.2986,4.2986,4.2986,0.0,0.0,4.2986,4.2986,4.2986,4.2986,4.2986,4.2986,4.2986,4.2986,4.2986,4.2986,4.2986,4.2986,4.2986,4.2986,4.2986,4.2986,4.2986,4.2986,4.2986,4.2986,4.2986,4.2986,4.2986,4.2986,4.2986,4.2986,4.2986,4.2986,4.2986,4.2811,4.2313,4.2213,4.2037,4.1376,4.1275,4.11,4.0601,4.0526,4.0325,3.9772,3.9697,3.9697,3.9697,3.9697,3.9697,3.9697,3.9697,3.9697,3.9697,4.0199,4.0752,4.125,4.1856,4.2464,4.2961,4.2986,4.2986,4.2986,4.2986,4.2961,4.2911,4.2961,4.2961,4.0443,4.2396,4.3589,4.1404,3.917,3.6734,3.379,3.0658,2.8047,2.6776,2.5586,2.4883,2.5084,2.5385,2.6289,2.8423,2.9704,3.1386,3.4173,3.5881,3.7538,0.0,0.0,0.0,0.0,0.0,0.0,0.0,0.0,0.0,4.6301,4.6301,4.605,4.5497,4.5146,4.4593,4.3815,4.3463,4.3187,4.2986,4.2986,4.2986,4.2986,4.2986,4.2986,4.2986,4.2986,0.0,0.0,4.2986,4.2986,4.2986,4.2986,4.2986,4.2986,4.2986,4.2986,4.2986,4.2986,4.2986,4.2986,4.2986,4.2986,4.2986,4.2986,4.2986,4.2986,4.2986,4.2986,4.2986,4.2986,4.2986,4.2986,4.2986,4.2986,4.2986,4.2986,4.2986,4.2911,4.274,4.2715,4.2585,4.2359,4.2333,4.2133,4.158,4.1505,4.1304,4.0752,4.0676,4.0676,4.0676,4.0099,3.9697,3.9697,3.9697,3.9848,4.0174,4.04,4.0902,4.1781,4.2087,4.2464,4.2961,4.2986,4.2986,4.2986,4.2986,4.2811,4.2539,4.2866,4.2986,3.8783,4.1317,4.3037,4.0827,3.8592,3.6229,3.3244,3.0005,2.7293,2.6248,2.5084,2.4349,2.4525,2.4883,2.5661,2.7344,2.8549,3.0156,3.2591,3.4173,3.5755,0.0,0.0,0.0,0.0,0.0,0.0,0.0,0.0,0.0,4.6075,4.6075,4.5824,4.5246,4.4669,4.4116,4.3564,4.3162,4.2986,4.2986,4.2986,4.2986,4.2986,4.2986,4.2986,4.2986,4.2986,0.0,0.0,4.2986,4.2986,4.2986,4.2986,4.2986,4.2986,4.2986,4.2986,4.2986,4.2986,4.2986,4.2986,4.2986,4.2986,4.2986,4.2986,4.2986,4.2986,4.2986,4.2986,4.2986,4.2986,4.2986,4.2986,4.2986,4.2986,4.2986,4.2986,4.2986,4.2986,4.2986,4.2986,4.2986,4.2986,4.2986,4.2841,4.2288,4.2213,4.1957,4.1351,4.1275,4.1275,4.1275,4.0651,4.0124,3.9948,3.9948,4.0023,4.0249,4.0576,4.1103,4.1882,4.2288,4.264,4.2961,4.2986,4.2986,4.2986,4.2986,4.2841,4.2464,4.2785,4.3062,3.7371,4.0477,4.2459,4.0249,3.8015,3.555,3.2164,2.8888,2.6197,2.5059,2.3898,2.3296,2.3904,2.4004,2.4556,2.6248,2.7394,2.8725,3.0407,3.2541,0.0,0.0,0.0,0.0,0.0,0.0,0.0,0.0,0.0,0.0,4.5522,4.5497,4.5221,4.4644,4.4091,4.3539,4.2986,4.2986,4.2986,4.2986,4.2986,4.2986,4.2986,4.2986,4.2986,0.0,0.0,0.0,0.0,4.2986,4.2986,4.2986,4.2986,4.2986,4.2986,4.2986,4.2986,4.2986,4.2986,4.2986,4.2986,4.2986,4.2986,4.2986,4.2986,4.2986,4.2986,4.2986,4.2986,4.2986,4.2986,4.2986,4.2986,4.2986,4.2986,4.2986,4.2986,4.2986,4.2986,4.2986,4.2986,4.2986,4.2986,4.2986,4.2841,4.2288,4.2213,4.1957,4.1351,4.1275,4.1275,4.1275,4.1275,4.105,4.0551,4.0501,4.0275,3.9747,4.0674,4.1275,4.13,4.2384,4.2961,4.2986,4.2986,4.2986,4.2986,4.2986,4.2986,4.2961,4.2986,4.3263,3.3819,3.6675,3.8685,3.7069,3.5386,3.3488,3.0884,2.7996,2.5661,2.4926,2.3898,2.317,2.3346,2.3998,2.4858,2.5737,2.6816,2.8273,0.0,0.0,0.0,0.0,0.0,0.0,0.0,0.0,0.0,0.0,0.0,0.0,4.5497,4.4744,4.4242,4.4066,4.389,4.3539,4.2986,4.2986,4.2986,4.2986,4.2986,4.2986,4.2986,4.2986,4.2986,0.0,0.0,0.0,0.0,4.2986,4.2986,4.2986,4.2986,4.2986,4.2986,4.2986,4.2986,4.2986,4.2986,4.2986,4.2986,4.2986,4.2986,4.2986,4.2986,4.2986,4.2986,4.2986,4.2986,4.2986,4.2986,4.2986,4.2986,4.2986,4.2986,4.2986,4.2986,4.2986,4.2986,4.2986,4.2986,4.2986,4.2986,4.2986,4.2911,4.2735,4.2766,4.266,4.2484,4.2459,4.2459,4.2459,4.2459,4.1932,4.0626,4.0526,4.045,4.0275,4.0576,4.1103,4.1856,4.2288,4.264,4.2961,4.2986,4.2986,4.2986,4.2986,4.3162,4.3564,4.4342,4.4794,3.0283,3.3126,3.5182,3.4061,3.3084,3.1913,2.993,2.7469,2.546,2.4901,2.3898,2.317,2.3396,2.3998,2.4757,2.5485,2.6399,2.767,0.0,0.0,0.0,0.0,0.0,0.0,0.0,0.0,0.0,0.0,0.0,0.0,4.4869,4.4192,4.3714,4.3489,4.3489,4.3313,4.2986,4.2986,4.2986,4.2986,4.2986,4.2986,4.2986,4.2986,4.2986,0.0,0.0,0.0,0.0,4.2986,4.2986,4.2986,4.2986,4.2986,4.2986,4.2986,4.2986,4.2986,4.2986,4.2986,4.2986,4.2986,4.2986,4.2986,4.2986,4.2986,4.2986,4.2986,4.2986,4.2986,4.2986,4.2986,4.2986,4.2986,4.2986,4.2986,4.2986,4.2986,4.2986,4.2986,4.2986,4.3037,4.3263,4.3288,4.3288,4.3288,4.3288,4.3212,4.3011,4.2986,4.2986,4.2986,4.2986,4.2484,4.1229,4.1128,4.1053,4.0852,4.1028,4.143,4.2187,4.2414,4.269,4.2961,4.2986,4.2986,4.2986,4.3187,4.3463,4.384,4.497,4.5497,0.0,2.972,3.1886,3.1266,3.115,3.0733,2.9088,2.7092,0.0,2.4825,2.3873,2.3271,2.3904,2.4029,2.4406,2.5435,2.6147,2.7153,0.0,3.1085,0.0,0.0,0.0,0.0,0.0,0.0,0.0,0.0,0.0,0.0,4.384,4.3765,4.3514,4.2986,4.2986,4.2986,4.2986,4.2986,4.2986,4.2986,4.2986,4.2986,4.2986,4.2986,4.2986,0.0,0.0,0.0,0.0,4.2986,4.2986,4.2986,4.2986,4.2986,4.2986,4.2986,4.2986,4.2986,4.2986,4.2986,4.2986,4.2986,4.2986,4.2986,4.2986,4.2986,4.2986,4.2986,4.2986,4.2986,4.2986,4.2986,4.2986,4.2986,4.2986,4.2986,4.2986,4.2986,4.2986,4.2986,4.2986,4.3137,4.3664,4.3765,4.379,4.379,4.379,4.3614,4.3112,4.3011,4.2986,4.2986,4.2986,4.2816,4.2313,4.2238,4.1907,4.1326,4.1831,4.2162,4.2213,4.2715,4.2936,4.2986,4.2986,4.2986,4.3037,4.3589,4.389,4.394,4.5045,4.5547,2.2331,0.0,2.8704,2.857,2.8741,2.8549,0.0,2.5988,2.4858,2.4305,2.3597,2.3271,2.3904,2.4356,2.4833,2.5485,2.644,2.7821,2.993,0.0,0.0,3.8868,0.0,0.0,0.0,0.0,0.0,0.0,0.0,4.394,4.3815,4.3388,4.3112,4.2986,4.2986,4.2986,4.2986,4.2986,4.2986,4.2986,4.2986,4.2986,4.2986,4.2986,4.2986,0.0,0.0,4.2986,4.2986,4.2986,4.2986,4.2986,4.2986,4.2986,4.2986,4.2986,4.2986,4.2986,4.2986,4.2986,4.2986,4.2986,4.2986,4.2986,4.2986,4.2986,4.2986,4.2986,4.2986,4.2986,4.2986,4.2986,4.2986,4.2986,4.2986,4.2986,4.2986,4.2986,4.2986,4.2986,4.2986,4.3011,4.3162,4.3514,4.379,4.379,4.379,4.374,4.3639,4.3237,4.2986,4.2986,4.2986,4.2936,4.2785,4.2464,4.1907,4.1326,4.1401,4.1731,4.2187,4.2338,4.2615,4.2961,4.2986,4.3187,4.3614,4.4166,4.4669,4.5121,4.5799,4.6125,2.0864,2.3448,2.5885,2.6235,2.6858,2.7118,2.6298,2.5234,2.4356,2.4054,2.3521,2.3271,2.3904,2.4456,2.5084,2.5862,2.6917,0.0,0.0,0.0,0.0,0.0,0.0,0.0,0.0,0.0,0.0,0.0,0.0,4.3413,4.3413,4.3137,4.2986,4.2986,4.2986,4.2986,4.2986,4.2986,4.2986,4.2986,4.2986,4.2986,4.2986,4.2986,4.2986,0.0,0.0,4.2986,4.2986,4.2986,4.2986,4.2986,4.2986,4.2986,4.2986,4.2986,4.2986,4.2986,4.2986,4.2986,4.2986,4.2986,4.2986,4.2986,4.2986,4.2986,4.2986,4.2986,4.2986,4.2986,4.2986,4.2986,4.2986,4.2986,4.2986,4.2986,4.2986,4.2986,4.2986,4.2986,4.2986,4.3062,4.3313,4.3815,4.4192,4.4192,4.4392,4.4392,4.3865,4.3539,4.3263,4.3011,4.2986,4.2986,4.2986,4.271,4.2409,4.2108,4.2082,4.2233,4.2564,4.259,4.2715,4.2961,4.2986,4.3112,4.3413,4.3966,4.4543,4.5095,4.5673,4.6075,2.074,2.236,2.3913,2.4657,2.5738,2.6474,2.5862,2.4958,2.423,2.413,2.3697,2.3572,0.0,2.4833,0.0,0.0,0.0,0.0,3.4525,3.7412,0.0,0.0,0.0,0.0,0.0,0.0,0.0,0.0,0.0,4.2986,4.2986,4.2986,4.2986,4.2986,4.2986,4.2986,4.2986,4.2986,4.2986,4.2986,4.2986,4.2986,4.2986,4.2986,4.2986,4.2986,0.0,0.0,4.2986,4.2986,4.2986,4.2986,4.2986,4.2986,4.2986,4.2986,4.2986,4.2986,4.2986,4.2986,4.2986,4.2986,4.2986,4.2986,4.2986,4.2986,4.2986,4.2986,4.2986,4.2986,4.2986,4.2986,4.2986,4.2986,4.2986,4.2986,4.2986,4.2986,4.2986,4.2986,4.2986,4.3162,4.3714,4.4267,4.4644,4.4744,4.5171,4.5121,4.4066,4.384,4.3589,4.3037,4.2986,4.2986,4.2986,4.2986,4.2986,4.2986,4.2986,4.2986,4.2986,4.2986,4.2986,4.2986,4.2986,4.3011,4.3112,4.3564,4.4091,4.4644,4.5221,4.5723,2.0185,2.2208,2.4127,2.5198,2.6359,2.7052,2.6499,2.5845,2.5234,0.0,0.0,0.0,0.0,2.6575,2.7419,0.0,0.0,3.4424,0.0,0.0,0.0,0.0,0.0,0.0,0.0,0.0,0.0,0.0,0.0,4.2986,4.2986,4.2986,4.2986,4.2986,4.2986,4.2986,4.2986,4.2986,4.2986,4.2986,4.2986,4.2986,4.2986,4.2986,4.2986,4.2986,0.0,4.2986,4.2986,4.2986,4.2986,4.2986,4.2986,4.2986,4.2986,4.2986,4.2986,4.2986,4.2986,4.2986,4.2986,4.2986,4.2986,4.2986,4.2986,4.2986,4.2986,4.2986,4.2986,4.2986,4.2986,4.2986,4.2986,4.2986,4.2986,4.2986,4.2986,4.2986,4.2986,4.2986,4.2986,4.3162,4.3714,4.4267,4.4794,4.5271,4.5422,4.5246,4.4593,4.4091,4.3589,4.3037,4.2986,4.2986,4.2986,4.2986,4.2986,4.2986,4.2986,4.2986,4.2986,4.2986,4.2986,4.2986,4.2986,4.3212,4.3689,4.3765,4.4091,4.4644,4.5221,4.5522,1.9661,2.1524,2.3505,2.495,2.6554,2.757,2.7052,2.6499,2.6021,0.0,0.0,0.0,0.0,0.0,2.9478,3.2039,0.0,3.6533,3.7889,0.0,0.0,0.0,0.0,0.0,0.0,0.0,0.0,0.0,0.0,0.0,4.2986,4.2986,4.2986,4.2986,4.2986,4.2986,4.2986,4.2986,4.2986,4.2986,4.2986,4.2986,4.2986,4.2986,4.2986,4.2986,0.0,4.2986,4.2986,4.2986,4.2986,4.2986,4.2986,4.2986,4.2986,4.2986,4.2986,4.2986,4.2986,4.2986,4.2986,4.2986,4.2986,4.2986,4.2986,4.2986,4.2986,4.2986,4.2986,4.2986,4.2986,4.2986,4.2986,4.2986,4.2986,4.2986,4.2986,4.2986,4.2986,4.2986,4.3212,4.3514,4.3765,4.4518,4.5171,4.5447,4.5748,4.5623,4.4744,4.4392,4.3915,4.3062,4.2986,4.2986,4.2986,4.2986,4.2986,4.2986,4.2986,4.2986,4.2986,4.2986,4.2986,4.2986,4.2986,4.3112,4.3363,4.3363,4.3639,4.4192,4.4443,4.4895,1.9277,2.0702,2.2399,2.4269,2.6332,2.7937,2.7823,2.7544,2.7278,0.0,0.0,0.0,0.0,2.9829,0.0,3.443,3.6307,3.7814,3.9069,4.045,0.0,0.0,0.0,0.0,0.0,0.0,0.0,0.0,0.0,0.0,4.2986,4.2986,4.2986,4.2986,4.2986,4.2986,4.2986,4.2986,4.2986,4.2986,4.2986,4.2986,4.2986,4.2986,4.2986,4.2986,4.2986,4.2986,4.2986,4.2986,4.2986,4.2986,4.2986,4.2986,4.2986,4.2986,4.2986,4.2986,4.2986,4.2986,4.2986,4.2986,4.2986,4.2986,4.2986,4.2986,4.2986,4.2986,4.2986,4.2986,4.2986,4.2986,4.2986,4.2986,4.2986,4.2986,4.2986,4.2986,4.2986,4.2986,4.3313,4.3689,4.394,4.4719,4.5372,4.5648,4.605,4.5949,4.4945,4.4719,4.4242,4.3263,4.3062,4.2986,4.2986,4.2986,4.2986,4.2986,4.2986,4.2986,4.2986,4.2986,4.2986,4.2986,4.2986,4.2986,4.2986,4.2986,4.3187,4.3614,4.374,4.4342,1.9093,1.9872,2.0935,2.2994,2.5543,2.7841,2.8983,2.9399,0.0,2.9553,0.0,0.0,0.0,3.2164,3.4022,3.5232,3.686,3.8517,4.0174,0.0,0.0,0.0,0.0,0.0,0.0,0.0,0.0,0.0,0.0,0.0,4.2986,4.2986,4.2986,4.2986,4.2986,4.2986,4.2986,4.2986,4.2986,4.2986,4.2986,4.2986,4.2986,4.2986,4.2986,4.2986,4.2986,4.2986,4.2986,4.2986,4.2986,4.2986,4.2986,4.2986,4.2986,4.2986,4.2986,4.2986,4.2986,4.2986,4.2986,4.2986,4.2986,4.2986,4.2986,4.2986,4.2986,4.2986,4.2986,4.2986,4.2986,4.2986,4.2986,4.2986,4.2986,4.2986,4.2986,4.2986,4.2986,4.2986,4.3011,4.3363,4.4392,4.4644,4.5045,4.61,4.6276,4.61,4.5497,4.4945,4.4392,4.379,4.3288,4.2986,4.2986,4.2986,4.2986,4.2986,4.2986,4.2986,4.2986,4.2986,4.2986,4.2986,4.2986,4.2986,4.2986,4.2986,4.2986,4.3062,4.3564,4.4116,1.9004,1.9451,2.0288,2.2165,2.443,0.0,0.0,3.0462,3.1486,3.2215,3.2516,0.0,0.0,0.0,3.5232,3.6383,3.7965,3.9396,4.0375,0.0,0.0,0.0,0.0,0.0,0.0,0.0,0.0,0.0,0.0,0.0,4.1957,4.1957,4.1957,4.1957,4.1957,4.1957,4.1957,4.1957,4.1957,4.1957,4.266,4.2986,4.2986,4.2986,4.2986,4.2986,4.2986,4.2986,4.2986,4.2986,4.2986,4.2986,4.2986,4.2986,4.2986,4.2986,4.2986,4.2986,4.2986,4.2986,4.2986,4.2986,4.2986,4.2986,4.2986,4.2986,4.2986,4.2986,4.2986,4.2986,4.2986,4.2986,4.2986,4.2986,4.2986,4.2986,4.2986,4.2986,4.2986,4.2986,4.3263,4.3614,4.4041,4.4392,4.4895,4.5673,4.5799,4.5723,4.5522,4.497,4.4418,4.3865,4.3313,4.2986,4.2986,4.2986,4.2986,4.2986,4.2986,4.2986,4.2986,4.2986,4.2986,4.2986,4.2986,4.2986,4.2986,4.2986,4.2986,4.2986,4.3539,4.4091,1.9104,1.9054,1.9588,2.1615,0.0,0.0,2.9196,3.1395,3.3068,3.4173,3.4424,3.4299,3.3972,0.0,0.0,0.0,3.8191,0.0,0.0,0.0,0.0,0.0,0.0,0.0,0.0,0.0,0.0,0.0,0.0,0.0,0.0,4.1275,4.1275,4.1275,4.1275,4.1275,4.1275,4.1275,4.1275,4.13,4.2108,4.2459,4.2459,4.2459,4.2459,4.2459,4.2635,4.2766,4.2791,4.2911,4.2986,4.2986,4.2986,4.2986,4.2986,4.2986,4.2986,4.2986,4.2986,4.2986,4.2986,4.2986,4.2986,4.2986,4.2986,4.2986,4.2986,4.2986,4.2986,4.2986,4.2986,4.2986,4.2986,4.2986,4.2986,4.2986,4.2986,4.2986,4.2986,4.2986,4.3413,4.3865,4.4041,4.4518,4.502,4.5422,4.5497,4.5497,4.5497,4.4819,4.4141,4.3589,4.3212,4.2986,4.2986,4.2986,4.2986,4.2986,4.2986,4.2986,4.2986,4.2986,4.2986,4.2986,4.2986,4.2986,4.2986,4.2986,4.3062,4.3237,4.3639,4.4192,1.9297,1.8672,1.8646,2.1267,0.0,0.0,2.9536,3.2225,3.4248,3.5307,3.5533,3.5182,3.4123,0.0,0.0,0.0,0.0,0.0,0.0,0.0,0.0,0.0,0.0,0.0,0.0,0.0,0.0,0.0,0.0,0.0,0.0,4.1275,4.1275,4.1275,4.1275,4.1275,4.1275,4.1275,4.1275,4.1275,4.1275,4.1275,4.1275,4.1275,4.1275,4.13,4.1907,4.2213,4.2263,4.2816,4.2986,4.2986,4.2986,4.2986,4.2986,4.2986,4.2986,4.2986,4.2986,4.2986,4.2986,4.2986,4.2986,4.2986,4.2986,4.2986,4.2986,4.2986,4.2986,4.2986,4.2986,4.2986,4.2986,4.2986,4.2986,4.2986,4.2986,4.2986,4.2986,4.2986,4.3413,4.3966,4.4518,4.5095,4.5472,4.5472,4.5472,4.5472,4.5472,4.4493,4.3589,4.3037,4.2986,4.2986,4.2986,4.2986,4.2986,4.2986,4.2986,4.2986,4.2986,4.2986,4.2986,4.2986,4.2986,4.2986,4.2986,4.2986,4.3263,4.379,4.3815,4.4418,1.9297,1.9102,0.0,2.1374,0.0,0.0,0.0,3.3126,0.0,0.0,3.7513,3.6483,3.5801,0.0,0.0,0.0,0.0,0.0,0.0,0.0,0.0,0.0,0.0,0.0,0.0,0.0,0.0,0.0,0.0,0.0,0.0,4.0174,4.0174,4.0174,4.0174,4.0174,4.0174,4.0174,4.0174,4.0174,4.0174,4.0601,4.1275,4.1275,4.1275,4.13,4.1907,4.2213,4.2263,4.2816,4.2986,4.2986,4.2986,4.2986,4.2986,4.2986,4.2986,4.2986,4.2986,4.2986,4.2986,4.2986,4.2986,4.2986,4.2986,4.2986,4.2986,4.2986,4.2986,4.2986,4.2986,4.2986,4.2986,4.2986,4.2986,4.2986,4.2986,4.2986,4.2986,4.2986,4.3413,4.384,4.4016,4.4518,4.4895,4.4895,4.4895,4.4744,4.4342,4.4016,4.3589,4.3037,4.2986,4.2986,4.2986,4.2986,4.2986,4.2986,4.2986,4.2986,4.2986,4.2986,4.2986,4.2986,4.2986,4.2986,4.2986,4.2986,4.3263,4.3815,4.4192,4.4769,1.9453,1.9531,0.0,2.2216,2.4749,2.7856,3.2123,0.0,0.0,0.0,0.0,3.7211,3.6207,3.6408,0.0,0.0,0.0,0.0,0.0,0.0,0.0,0.0,0.0,0.0,0.0,0.0,0.0,0.0,0.0,0.0,0.0,3.9697,3.9697,3.9697,3.9697,3.9697,3.9697,3.9697,3.9697,3.9697,3.9697,4.0049,4.0676,4.0676,4.0802,4.1053,4.1831,4.2338,4.2564,4.2891,4.2986,4.2986,4.2986,4.2986,4.2986,4.2986,4.2986,4.2986,4.2986,4.2986,4.2986,4.2986,4.2986,4.2986,4.2986,4.2986,4.2986,4.2986,4.2986,4.2986,4.2986,4.2986,4.2986,4.2986,4.2986,4.2986,4.2986,4.2986,4.2986,4.2986,4.3614,4.4141,4.4141,4.4769,4.5221,4.4995,4.497,4.4769,4.4192,4.4141,4.3915,4.3363,4.3112,4.2986,4.2986,4.2986,4.2986,4.2986,4.2986,4.2986,4.2986,4.2986,4.2986,4.2986,4.2986,4.2986,4.2986,4.2986,4.3363,4.4141,4.4694,4.5397,1.9629,1.9922,2.0602,2.333,2.6014,0.0,3.5804,3.7563,3.7965,3.8065,0.0,3.7462,3.5934,0.0,0.0,0.0,0.0,0.0,0.0,0.0,0.0,0.0,0.0,0.0,0.0,0.0,0.0,0.0,0.0,0.0,0.0,3.9697,3.9722,3.9772,3.9772,3.9798,3.9848,3.9848,3.9823,3.9772,3.9772,3.9747,3.9697,3.9697,4.0023,4.0651,4.176,4.2514,4.2986,4.2986,4.2986,4.2986,4.2986,4.2986,4.2986,4.2986,4.2986,4.2986,4.2986,4.2986,4.2986,4.2986,4.2986,4.2986,4.2986,4.2986,4.2986,4.2986,4.2986,4.2986,4.2986,4.2986,4.2986,4.2986,4.2986,4.2986,4.2986,4.2986,4.2986,4.2986,4.3865,4.4618,4.4618,4.5573,4.6125,4.5573,4.5447,4.5221,4.4694,4.4593,4.4367,4.3865,4.3313,4.2986,4.2986,4.2986,4.2986,4.2986,4.2986,4.2986,4.2986,4.2986,4.2986,4.2986,4.2986,4.3011,4.3062,4.3062,4.3614,4.4719,4.5296,4.6125,1.9199,1.9922,0.0,0.0,2.752,3.2077,3.6273,3.7287,3.7613,3.8492,3.799,3.7262,0.0,0.0,0.0,0.0,0.0,0.0,0.0,0.0,0.0,0.0,0.0,0.0,0.0,0.0,0.0,0.0,0.0,0.0,3.9697,3.9697,3.9898,4.0325,4.035,4.0551,4.0924,4.0924,4.0724,4.035,4.035,4.0124,3.9697,3.9697,4.0224,4.115,4.1856,4.2514,4.2986,4.2986,4.2986,4.2986,4.2986,4.2986,4.2986,4.2986,4.2986,4.2986,4.2986,4.2986,4.2986,4.2986,4.2986,4.2986,4.2986,4.2986,4.2986,4.2986,4.2986,4.2986,4.2986,4.2986,4.2986,4.2986,4.2986,4.2986,4.2986,4.2986,4.2986,4.2986,4.3865,4.4618,4.4618,4.5573,4.6125,4.5573,4.5095,4.4769,4.4644,4.4242,4.394,4.3815,4.3313,4.2986,4.2986,4.2986,4.2986,4.2986,4.2986,4.2986,4.2986,4.2986,4.2986,4.2986,4.2986,4.3187,4.3614,4.3614,4.4192,4.5321,4.5874,4.6597,1.918,0.0,0.0,2.6044,0.0,3.3314,3.6173,3.6832,3.7008,3.7586,3.7412,0.0,0.0,0.0,0.0,0.0,0.0,0.0,0.0,0.0,0.0,0.0,0.0,0.0,0.0,0.0,0.0,0.0,0.0,3.9697,3.9697,3.9948,4.0224,4.0501,4.0777,4.1,4.1275,4.1025,4.0802,4.0526,4.0249,3.9973,3.9697,3.9973,4.04,4.0924,4.1806,4.2158,4.2208,4.2484,4.264,4.264,4.264,4.2735,4.2986,4.2986,4.2986,4.2986,4.2986,4.2986,4.2986,4.2986,4.2986,4.2986,4.2986,4.2986,4.2986,4.2986,4.2986,4.2986,4.2986,4.2986,4.2986,4.2986,4.2986,4.2986,4.2986,4.2986,4.2986,4.2986,4.3865,4.4618,4.4618,4.5573,4.6225,4.5924,4.5623,4.5422,4.5422,4.4694,4.4192,4.4192,4.3463,4.2986,4.2986,4.2986,4.2986,4.2986,4.2986,4.2986,4.2986,4.2986,4.2986,4.2986,4.2986,4.3237,4.379,4.379,4.4392,4.5497,4.605,4.697,1.9177,0.0,2.335,2.9103,3.1948,0.0,3.5924,3.6405,3.6405,3.6405,0.0,0.0,0.0,0.0,0.0,0.0,0.0,0.0,0.0,0.0,0.0,0.0,0.0,0.0,0.0,0.0,0.0,0.0,0.0,3.9747,3.9823,4.0275,4.0601,4.0802,4.1254,4.153,4.1576,4.1078,4.0752,4.0651,3.9998,3.9697,3.9722,4.0275,4.0576,4.0727,4.1785,4.1957,4.1601,4.2108,4.2363,4.2363,4.2363,4.264,4.2986,4.2986,4.2986,4.2986,4.2986,4.2986,4.2986,4.2986,4.2986,4.2986,4.2986,4.2986,4.2986,4.2986,4.2986,4.2986,4.2986,4.2986,4.3011,4.3112,4.3112,4.3087,4.2986,4.2986,4.2986,4.2986,4.3865,4.4694,4.4895,4.5698,4.6301,4.6301,4.6301,4.6301,4.6301,4.5321,4.4618,4.4618,4.3639,4.2986,4.2986,4.2986,4.2986,4.2986,4.2986,4.2986,4.2986,4.2986,4.2986,4.2986,4.2986,4.3288,4.394,4.394,4.4518,4.5648,4.62,4.7293,0.0,0.0,2.6041,0.0,3.2229,3.3831,0.0,0.0,3.6405,0.0,0.0,0.0,0.0,0.0,0.0,0.0,0.0,0.0,0.0,0.0,0.0,0.0,0.0,0.0,0.0,0.0,0.0,0.0,3.9421,3.9898,4.0375,4.0475,4.0953,4.1961,4.2062,4.2283,4.276,4.2263,4.1706,4.1175,4.0199,3.9697,3.9722,4.0275,4.0724,4.12,4.1882,4.2439,4.276,4.2836,4.2861,4.2861,4.2861,4.2911,4.2986,4.2986,4.2986,4.2986,4.2986,4.2986,4.2986,4.2986,4.2986,4.2986,4.2986,4.2986,4.2986,4.2986,4.2986,4.2986,4.2986,4.2986,4.3112,4.3589,4.3689,4.3564,4.3087,4.2986,4.2986,4.2986,4.3865,4.4945,4.5924,4.62,4.6301,4.6301,4.6301,4.6301,4.6301,4.5321,4.4618,4.4618,4.3639,4.2986,4.2986,4.2986,4.2986,4.2986,4.2986,4.2986,4.2986,4.2986,4.2986,4.2986,4.2986,4.3489,4.4518,4.4518,4.5095,4.6225,4.6753,4.7592,1.9915,2.3545,2.7208,0.0,3.2313,3.3774,3.5144,0.0,0.0,0.0,0.0,0.0,0.0,0.0,0.0,0.0,0.0,0.0,0.0,0.0,0.0,0.0,0.0,0.0,0.0,0.0,0.0,0.0,3.9371,3.9798,4.0049,4.035,4.0752,4.1229,4.153,4.1806,4.2057,4.1505,4.0953,4.04,3.9923,3.9697,3.9722,4.0275,4.0651,4.0927,4.1835,4.2108,4.2082,4.2384,4.2564,4.2564,4.2564,4.2766,4.2986,4.2986,4.2986,4.2986,4.2986,4.2986,4.2986,4.2986,4.2986,4.2986,4.2986,4.2986,4.2986,4.2986,4.2986,4.3062,4.3363,4.3438,4.3589,4.4141,4.4267,4.4192,4.394,4.389,4.3991,4.4317,4.4769,4.5372,4.6175,4.6301,4.6301,4.6301,4.6301,4.6301,4.6301,4.5321,4.4618,4.4618,4.3639,4.3112,4.3413,4.3438,4.3564,4.389,4.389,4.389,4.389,4.389,4.389,4.389,4.3288,4.3514,4.4618,4.4618,4.5196,4.6326,4.6552,4.7434,0.0,0.0,2.7062,2.9875,3.1677,3.3036,0.0,0.0,0.0,0.0,0.0,0.0,0.0,0.0,0.0,0.0,0.0,0.0,0.0,0.0,0.0,0.0,0.0,0.0,0.0,0.0,0.0,0.0,3.8944,3.932,3.9471,3.9873,4.0174,4.03,4.0852,4.1075,4.1075,4.0852,4.045,3.9898,3.9898,3.9898,3.9923,4.0475,4.0727,4.0777,4.1731,4.2007,4.1781,4.2208,4.2414,4.2414,4.2414,4.2665,4.2986,4.2986,4.2986,4.2986,4.2986,4.2986,4.2986,4.2986,4.2986,4.2986,4.2986,4.2986,4.3011,4.3137,4.3187,4.3313,4.3865,4.4016,4.4141,4.4719,4.4844,4.4794,4.4644,4.4618,4.4794,4.5372,4.5497,4.5673,4.6225,4.6301,4.6301,4.6301,4.6301,4.6301,4.6301,4.5321,4.4618,4.4618,4.3765,4.3363,4.3765,4.4066,4.4342,4.4593,4.4769,4.4769,4.4644,4.4618,4.4618,4.4618,4.3815,4.3922,4.4961,4.4994,4.5615,4.6661,4.6721,4.7699,0.0,2.29,0.0,2.8279,2.9845,0.0,0.0,0.0,0.0,0.0,0.0,0.0,0.0,0.0,0.0,0.0,0.0,0.0,0.0,0.0,0.0,0.0,0.0,0.0,0.0,0.0,0.0,0.0,3.7789,3.8341,3.8894,3.8994,3.9195,3.9722,4.0275,4.0551,4.0551,4.1,4.0974,4.0475,4.0475,4.0475,4.0501,4.1,4.125,4.1275,4.1907,4.2489,4.2886,4.2936,4.2936,4.2936,4.2936,4.2961,4.2986,4.2986,4.2986,4.2986,4.2986,4.2986,4.2986,4.2986,4.2986,4.2986,4.2986,4.2986,4.3087,4.3614,4.3765,4.389,4.4443,4.4593,4.4719,4.5296,4.5447,4.5296,4.4744,4.4618,4.4794,4.5372,4.5497,4.5673,4.6225,4.6301,4.6301,4.6301,4.6301,4.6301,4.6301,4.5321,4.4618,4.4618,4.4116,4.3765,4.379,4.4794,4.5171,4.4644,4.5146,4.5196,4.4644,4.4618,4.4618,4.4618,4.4568,4.4936,4.5834,4.6159,4.6759,4.7645,4.7938,4.8753,0.0,0.0,0.0,2.5993,2.7354,2.8497,0.0,0.0,0.0,0.0,0.0,0.0,0.0,0.0,0.0,0.0,0.0,0.0,0.0,0.0,0.0,0.0,0.0,0.0,0.0,0.0,0.0,0.0,0.0,3.809,3.8316,3.8316,3.8417,3.8592,3.917,3.9622,3.9973,4.0199,4.0199,3.9998,3.9998,3.9998,3.9998,4.0551,4.0949,4.13,4.1907,4.2514,4.2986,4.2986,4.2986,4.2936,4.264,4.2715,4.2936,4.264,4.2715,4.2986,4.2986,4.2986,4.2986,4.2986,4.2986,4.2986,4.2986,4.3212,4.3539,4.374,4.4066,4.4468,4.502,4.5171,4.5321,4.5874,4.6024,4.5949,4.5748,4.5698,4.5773,4.5974,4.6024,4.6075,4.6276,4.6301,4.6301,4.6301,4.6301,4.6301,4.6301,4.5648,4.5171,4.5171,4.4669,4.4493,4.4844,4.5246,4.5547,4.5698,4.5899,4.5924,4.5723,4.5698,4.5757,4.602,4.6146,4.6246,4.621,4.6913,4.7748,4.882,4.9478,5.0294,2.0361,0.0,0.0,0.0,0.0,0.0,0.0,0.0,0.0,0.0,0.0,0.0,0.0,0.0,0.0,0.0,0.0,0.0,0.0,0.0,0.0,0.0,0.0,0.0,0.0,0.0,0.0,0.0,0.0,0.0,3.7462,3.7462,3.7613,3.799,3.8391,3.8944,3.9697,3.9873,3.9973,3.9973,3.9973,3.9973,3.9973,4.035,4.0701,4.1103,4.1831,4.2514,4.2986,4.2986,4.2986,4.2911,4.2414,4.2539,4.2911,4.2414,4.2564,4.2986,4.2986,4.2986,4.2986,4.2986,4.2986,4.2986,4.2986,4.3363,4.384,4.4016,4.4493,4.5045,4.5623,4.5773,4.5849,4.6225,4.6301,4.6301,4.6301,4.6301,4.6301,4.6301,4.6301,4.6301,4.6301,4.6301,4.6301,4.6301,4.6301,4.6301,4.6301,4.5824,4.5497,4.5497,4.5146,4.507,4.5447,4.5824,4.6125,4.6301,4.6652,4.6778,4.6602,4.6753,4.7036,4.752,4.7743,4.7964,4.8064,4.8425,4.9128,5.0182,5.0989,5.1701,0.0,0.0,0.0,0.0,0.0,0.0,0.0,0.0,0.0,0.0,0.0,0.0,0.0,0.0,0.0,0.0,0.0,0.0,0.0,0.0,0.0,0.0,0.0,0.0,0.0,0.0,0.0,0.0,3.6405,3.6405,3.6405,3.6405,3.6908,3.7965,3.8015,3.8542,3.9697,4.0224,4.0501,4.0501,4.0501,4.0501,4.0501,4.0501,4.0501,4.0576,4.1656,4.2489,4.2961,4.2961,4.2986,4.2911,4.2414,4.2539,4.2911,4.2389,4.2539,4.2986,4.2986,4.2986,4.2986,4.2986,4.2986,4.2986,4.2986,4.3363,4.394,4.4468,4.5045,4.5623,4.6175,4.6301,4.6301,4.6301,4.6301,4.6301,4.6301,4.6301,4.6301,4.6301,4.6301,4.6301,4.6301,4.6301,4.6301,4.6301,4.6301,4.6301,4.6301,4.5849,4.5522,4.5522,4.5522,4.5522,4.5522,4.6502,4.6878,4.6351,4.7305,4.7657,4.7093,4.7631,4.8218,4.8871,4.9218,5.0046,5.1366,5.0763,5.0906,5.1785,5.2408,5.3102,1.9699,0.0,0.0,0.0,0.0,0.0,0.0,0.0,0.0,0.0,0.0,0.0,0.0,0.0,0.0,0.0,0.0,0.0,0.0,0.0,0.0,0.0,0.0,0.0,0.0,0.0,0.0,0.0,3.6405,3.6405,3.6405,3.6405,3.6908,3.7965,3.8015,3.8542,3.9697,3.9848,3.9923,3.9923,3.9923,3.9923,3.9923,3.9923,4.0149,4.0526,4.0827,4.1505,4.2464,4.2811,4.2986,4.2886,4.1932,4.2133,4.2861,4.1907,4.2158,4.2986,4.2986,4.2986,4.2986,4.2986,4.2986,4.2986,4.2986,4.3639,4.4418,4.4593,4.5321,4.6125,4.6276,4.6301,4.6301,4.6301,4.6301,4.6301,4.6301,4.6301,4.6301,4.6301,4.6301,4.6301,4.6301,4.6301,4.6301,4.6301,4.6301,4.6301,4.6301,4.6175,4.6075,4.6075,4.6075,4.6075,4.6075,4.6351,4.6476,4.6326,4.6954,4.728,4.7093,4.7631,4.8342,4.9264,5.0234,5.1231,5.2268,5.2256,5.2619,5.3314,5.4126,5.4856,2.0084,0.0,0.0,0.0,0.0,0.0,0.0,2.3191,0.0,0.0,0.0,0.0,0.0,0.0,0.0,0.0,0.0,0.0,0.0,0.0,0.0,0.0,0.0,0.0,0.0,3.6279,3.6405,3.6405,3.6405,3.6405,3.6405,3.6405,3.6908,3.7965,3.8015,3.8542,3.9697,3.9697,3.9697,3.9697,3.9697,3.9697,3.9697,3.9697,3.9873,4.0199,4.0425,4.0877,4.153,4.2363,4.2816,4.2861,4.1781,4.2007,4.2836,4.1756,4.2032,4.2986,4.2986,4.2986,4.2986,4.2986,4.2986,4.2986,4.2986,4.374,4.4618,4.4618,4.5447,4.6301,4.6301,4.6301,4.6301,4.6301,4.6301,4.6301,4.6301,4.6301,4.6301,4.6301,4.6301,4.6301,4.6301,4.6301,4.6301,4.6301,4.6301,4.6301,4.6301,4.6301,4.6301,4.6301,4.6527,4.6552,4.6326,4.6527,4.6552,4.6326,4.7029,4.7456,4.7456,4.8209,4.9177,5.0296,5.1529,5.296,5.4454,5.4033,5.4019,5.4436,5.5245,5.5807,2.0765,2.0711,0.0,0.0,0.0,0.0,2.0611,2.211,2.3941,0.0,0.0,0.0,0.0,0.0,0.0,0.0,0.0,0.0,0.0,0.0,0.0,0.0,0.0,0.0,3.5483,3.5981,3.6355,3.6405,3.6405,3.6405,3.6405,3.6405,3.6908,3.7965,3.8015,3.8542,3.9697,3.9647,3.9647,3.9697,3.9622,3.9647,3.9697,3.9697,3.9697,3.9722,4.0199,4.045,4.0601,4.163,4.2439,4.2785,4.1756,4.2007,4.2836,4.1756,4.2032,4.2986,4.2986,4.2986,4.2986,4.2986,4.2986,4.2986,4.2986,4.374,4.4644,4.4769,4.5547,4.6301,4.6301,4.6301,4.6301,4.6301,4.6301,4.6301,4.6301,4.6301,4.6301,4.6301,4.6301,4.6301,4.6301,4.6301,4.6301,4.6301,4.6301,4.6301,4.6301,4.6301,4.6301,4.6361,4.6813,4.6889,4.6471,4.6813,4.6889,4.6411,4.7255,4.7832,4.7832,4.8837,5.0028,5.1413,5.2729,5.4599,5.7004,5.5736,5.5204,5.5418,5.6017,5.6368,2.1317,2.1317,2.1189,2.0684,0.0,0.0,2.0107,2.1009,2.2167,0.0,0.0,0.0,0.0,0.0,0.0,0.0,0.0,0.0,0.0,0.0,0.0,0.0,0.0,0.0,3.5458,3.5608,3.5881,3.638,3.6405,3.6405,3.6405,3.6405,3.6908,3.7965,3.8015,3.8542,3.9697,3.9245,3.9245,3.9697,3.9245,3.927,3.9697,3.9697,3.9697,3.9697,3.9798,4.0099,4.0576,4.1229,4.1831,4.2313,4.1605,4.2007,4.2836,4.1756,4.2032,4.2986,4.2986,4.2986,4.2986,4.2986,4.2986,4.2986,4.2986,4.374,4.4819,4.5723,4.615,4.6301,4.6301,4.6301,4.6301,4.6301,4.6301,4.6301,4.6301,4.6301,4.6301,4.6301,4.6301,4.6301,4.6301,4.6301,4.6301,4.6301,4.6301,4.6301,4.6301,4.6301,4.6361,4.6686,4.6976,4.7155,4.7053,4.713,4.7036,4.6746,4.705,4.728,4.728,4.7883,4.8858,5.0211,5.2398,5.445,5.6346,5.6549,5.6668,5.6735,5.6855,5.7214,2.2749,2.2523,2.2171,2.1619,0.0,0.0,0.0,0.0,0.0,0.0,0.0,0.0,0.0,0.0,0.0,0.0,0.0,0.0,0.0,0.0,0.0,0.0,0.0,0.0,3.47,3.4931,3.5253,3.5529,3.5554,3.5655,3.5931,3.5956,3.6458,3.7563,3.7864,3.8266,3.8843,3.8868,3.9019,3.927,3.9045,3.917,3.9697,3.9697,3.9697,3.9697,3.9697,3.9848,4.0149,4.0701,4.1103,4.1329,4.1275,4.1831,4.2514,4.1656,4.2032,4.2986,4.2986,4.2986,4.2986,4.2986,4.2986,4.2986,4.2986,4.374,4.4794,4.5673,4.61,4.6301,4.6301,4.6301,4.6301,4.6301,4.6301,4.6301,4.6301,4.6301,4.6301,4.6301,4.6301,4.6301,4.6301,4.6301,4.6301,4.6301,4.6301,4.6301,4.6301,4.6301,4.6481,4.6934,4.7733,4.8172,4.7912,4.8406,4.8247,4.7342,4.742,4.7405,4.7093,4.7631,4.8968,5.1137,5.3079,5.4894,5.6645,5.6944,5.6765,5.6166,5.6795,5.7274,0.0,0.0,0.0,0.0,0.0,2.0666,0.0,0.0,0.0,0.0,0.0,0.0,0.0,0.0,0.0,0.0,0.0,0.0,0.0,0.0,0.0,0.0,0.0,0.0,3.3721,3.4248,3.4575,3.4575,3.4575,3.4806,3.5458,3.5508,3.6009,3.7136,3.7613,3.7889,3.8015,3.8366,3.8693,3.8919,3.8768,3.9044,3.9697,3.9697,3.9697,3.9697,3.9697,3.9697,3.9747,4.03,4.045,4.04,4.0924,4.158,4.2137,4.153,4.2032,4.2986,4.2986,4.2986,4.2986,4.2986,4.2986,4.2986,4.3112,4.3765,4.4593,4.5296,4.5799,4.6175,4.6276,4.6301,4.6301,4.6301,4.6301,4.6301,4.6301,4.6301,4.6301,4.6301,4.6301,4.6301,4.6301,4.6301,4.6301,4.6386,4.6421,4.6481,4.6541,4.6601,4.6934,4.756,4.8779,4.9382,4.8957,4.9637,4.9383,4.7873,4.7653,4.7405,4.7065,4.7785,4.9513,5.229,5.361,5.5089,5.6735,5.6735,5.6316,5.5568,5.6615,5.7154,0.0,0.0,0.0,0.0,2.1845,0.0,0.0,0.0,0.0,0.0,0.0,0.0,0.0,0.0,0.0,0.0,0.0,0.0,0.0,0.0,0.0,0.0,0.0,0.0,0.0,3.3671,3.3997,3.3997,3.3997,3.4449,3.5433,3.5508,3.6009,3.7136,3.7236,3.7513,3.799,3.7588,3.7864,3.8919,3.8341,3.8668,3.9697,3.9697,3.9697,3.9697,3.9697,3.9697,3.9747,4.03,4.0224,3.9848,4.04,4.1254,4.2137,4.153,4.2032,4.2986,4.2986,4.2986,4.2986,4.2986,4.2986,4.3062,4.3564,4.379,4.4116,4.5196,4.5522,4.5698,4.6175,4.6301,4.6301,4.6301,4.6301,4.6301,4.6301,4.6301,4.6301,4.6301,4.6301,4.6301,4.6301,4.6301,4.6361,4.6686,4.6934,4.7205,4.7527,4.7821,4.8289,4.9186,4.984,5.0235,5.0181,4.9754,4.9068,4.8146,4.7061,4.6597,4.6822,4.842,5.0089,5.1762,5.3009,5.4228,5.5418,5.5418,5.5927,5.6885,5.7034,5.7423,0.0,0.0,0.0,0.0,0.0,0.0,2.0062,0.0,2.0339,0.0,0.0,0.0,0.0,0.0,0.0,0.0,0.0,0.0,0.0,0.0,0.0,0.0,0.0,0.0,0.0,0.0,0.0,0.0,3.1989,3.2742,3.45,3.4856,3.5579,3.6732,3.701,3.7136,3.7061,3.7136,3.7588,3.8366,3.8115,3.8592,3.9697,3.9697,3.9697,3.9697,3.9697,3.9697,3.9722,3.9948,3.9898,3.9722,3.9948,4.0701,4.1656,4.1376,4.2032,4.2986,4.2986,4.2986,4.2986,4.2986,4.2986,4.3011,4.3263,4.3539,4.3966,4.4769,4.5221,4.5623,4.6175,4.6301,4.6301,4.6301,4.6301,4.6301,4.6301,4.6301,4.6301,4.6301,4.6301,4.6361,4.6566,4.6446,4.6481,4.6934,4.7534,4.8152,4.8616,4.9278,4.9958,5.0712,5.1456,5.1811,5.1457,5.0932,5.0084,4.8726,4.7501,4.7087,4.7769,4.9217,5.0768,5.243,5.3285,5.423,5.5179,5.5179,5.5448,5.5987,5.6376,5.6915,2.6725,0.0,0.0,0.0,0.0,0.0,0.0,0.0,0.0,0.0,0.0,0.0,0.0,0.0,0.0,0.0,0.0,0.0,0.0,0.0,0.0,0.0,0.0,0.0,0.0,0.0,0.0,0.0,0.0,3.1361,3.3545,3.4198,3.5002,3.6107,3.6684,3.6807,3.6405,3.6807,3.7312,3.8015,3.8015,3.8592,3.9697,3.9697,3.9697,3.9697,3.9697,3.9697,3.9697,3.9697,3.9697,3.9697,3.9697,4.0375,4.1275,4.1275,4.2032,4.2986,4.2986,4.2986,4.2986,4.2986,4.3087,4.3212,4.3212,4.3589,4.4141,4.4694,4.5171,4.5623,4.6175,4.6301,4.6301,4.6301,4.6301,4.6301,4.6301,4.6301,4.6301,4.6301,4.6301,4.6421,4.684,4.6721,4.6755,4.7383,4.8236,4.8961,4.9505,5.0267,5.1044,5.1757,5.2512,5.2832,5.2462,5.1931,5.0759,4.8695,4.7795,4.771,4.85,4.9816,5.132,5.2992,5.3652,5.4385,5.5179,5.5179,5.5179,5.5209,5.5688,5.6346,0.0,0.0,0.0,2.3371,0.0,0.0,0.0,0.0,2.0842,0.0,0.0,0.0,0.0,0.0,0.0,0.0,0.0,0.0,0.0,0.0,0.0,0.0,0.0,0.0,0.0,0.0,0.0,0.0,2.9829,0.0,3.3036,3.3621,3.4424,3.5483,3.6107,3.643,3.6405,3.643,3.6983,3.8015,3.8015,3.8592,3.9697,3.9697,3.9697,3.9697,3.9697,3.9697,3.9697,3.9697,3.9697,3.9697,3.9697,4.0375,4.1275,4.1275,4.2032,4.2986,4.2986,4.2986,4.2986,4.2986,4.3338,4.3765,4.3765,4.4166,4.4719,4.5296,4.5472,4.5623,4.6175,4.6301,4.6301,4.6301,4.6301,4.6301,4.6301,4.6301,4.6301,4.6301,4.6301,4.6481,4.7087,4.7205,4.7383,4.8055,4.8899,4.9586,4.9953,5.0516,5.1238,5.2113,5.2677,5.3049,5.3054,5.2247,5.0406,4.7416,4.7501,4.7971,4.8584,5.0096,5.154,5.2967,5.386,5.459,5.5179,5.5179,5.5179,5.5179,5.5209,5.5897,0.0,0.0,2.5745,2.4958,0.0,0.0,0.0,0.0,0.0,0.0,0.0,0.0,0.0,0.0,0.0,0.0,0.0,0.0,0.0,0.0,0.0,0.0,0.0,0.0,0.0,0.0,0.0,0.0,2.8473,0.0,3.1838,3.2842,3.4022,3.5458,3.5683,3.6006,3.6405,3.6405,3.6958,3.8015,3.8015,3.8592,3.9697,3.9697,3.9697,3.9697,3.9697,3.9697,3.9697,3.9697,3.9697,3.9697,3.9697,4.0375,4.1275,4.1275,4.2032,4.2986,4.2986,4.2986,4.3037,4.3413,4.3639,4.3865,4.4242,4.4468,4.4744,4.5321,4.5497,4.5682,4.6415,4.678,4.6934,4.6934,4.6934,4.6874,4.6661,4.6421,4.6301,4.6301,4.6301,4.6541,4.7409,4.8152,4.8731,4.9014,4.9732,5.0323,5.0489,5.0685,5.1072,5.1785,5.2566,5.2992,5.3049,5.2056,5.0489,4.821,4.8236,4.8353,4.8558,4.9843,5.1348,5.2992,5.3652,5.4643,5.5837,5.5837,5.6047,5.6466,5.6466,5.6675,2.8649,2.7896,0.0,2.659,2.5661,0.0,2.3452,0.0,0.0,0.0,0.0,0.0,0.0,0.0,0.0,0.0,0.0,0.0,0.0,0.0,0.0,0.0,0.0,0.0,0.0,0.0,2.6725,2.7278,2.762,0.0,0.0,3.1863,3.3244,3.4856,3.5282,3.5805,3.6405,3.6405,3.6958,3.8015,3.8015,3.8592,3.9697,3.9697,3.9697,3.9697,3.9697,3.9697,3.9697,3.9697,3.9798,3.9998,3.9998,4.0651,4.1605,4.1351,4.2032,4.2986,4.2986,4.2986,4.3062,4.3614,4.394,4.4192,4.4769,4.507,4.5296,4.5673,4.5773,4.5968,4.6739,4.7324,4.7652,4.771,4.7652,4.7534,4.7197,4.6661,4.6301,4.6301,4.6301,4.6661,4.7703,4.8992,4.9818,4.97,5.0294,5.0713,5.0545,5.0294,5.0435,5.1155,5.2108,5.2857,5.3285,5.2272,5.0823,4.8935,4.8673,4.8469,4.821,4.9445,5.0879,5.2644,5.3622,5.4789,5.6218,5.6406,5.6705,5.7094,5.7334,5.7453]}]]